[[{"header":{"parameterUnit":"m.s-1","parameterCategory":1,"la1":31.0,"la2":29.5877,"lo1":-88.7671,"lo2":-86.6584,"dy":0.0162,"dx":0.0185,"nx":115,"ny":88,"refTime":"2024-06-09T12:00:00:Z","depth":0,"parameterNumber":2,"parameterNumberName":"U-component_of_WINDS"},"data":[0.0,0.0,0.0,0.0,0.0,0.0,0.0,0.0,0.0,0.0,0.0,0.0,0.0,0.0,0.0,0.0,0.0,0.0,0.0,0.0,0.0,0.0,0.0,0.0,0.0,0.0,0.0,0.0,0.0,0.0,0.0,0.0,0.0,0.0,0.0,0.0,0.0,0.0,0.0,0.0,0.0,0.0,0.0,0.0,0.0,0.0,0.0,0.0,0.0,0.0,0.0,0.0,0.0,0.0,0.0,0.0,0.0,0.0,0.0,0.0,0.0,0.0,0.0,0.0,0.0,0.0,0.0,0.0,0.0,0.0,0.0,0.0,0.0,0.0,0.0,0.0,0.0,0.0,0.0,0.0,0.0,0.0,0.0,0.0,0.0,0.0,0.0,0.0,0.0,0.0,0.0,0.0,0.0,0.0,0.0,0.0,0.0,0.0,0.0,0.0,0.0,0.0,0.0,0.0,0.0,0.0,0.0,0.0,0.0,0.0,0.0,0.0,0.0,0.0,0.0,0.0,0.0,0.0,0.0,0.0,0.0,0.0,0.0,0.0,0.0,0.0,0.0,0.0,0.0,0.0,0.0,0.0,0.0,0.0,0.0,0.0,0.0,0.0,0.0,0.0,0.0,0.0,0.0,0.0,0.0,0.0,0.0,0.0,0.0,0.0,0.0,0.0,0.0,0.0,0.0,0.0,0.0,0.0,0.0,0.0,0.0,0.0,0.0,0.0,0.0,0.0,0.0,0.0,0.0,0.0,0.0,0.0,0.0,0.0,0.0,0.0,0.0,0.0,0.0,0.0,0.0,0.0,0.0,0.0,0.0,0.0,0.0,0.0,0.0,0.0,0.0,0.0,0.0,0.0,0.0,0.0,0.0,0.0,0.0,0.0,0.0,0.0,0.0,0.0,0.0,0.0,0.0,0.0,0.0,0.0,0.0,0.0,0.0,0.0,0.0,0.0,0.0,0.0,0.0,0.0,0.0,0.0,0.0,0.0,0.0,0.0,0.0,0.0,0.0,0.0,0.0,0.0,0.0,0.0,0.0,0.0,0.0,0.0,0.0,0.0,0.0,0.0,0.0,0.0,0.0,0.0,0.0,0.0,0.0,0.0,0.0,0.0,0.0,0.0,0.0,0.0,0.0,0.0,0.0,0.0,0.0,0.0,0.0,0.0,0.0,0.0,0.0,0.0,0.0,0.0,0.0,0.0,0.0,0.0,0.0,0.0,0.0,0.0,0.0,0.0,0.0,0.0,0.0,0.0,0.0,0.0,0.0,0.0,0.0,0.0,0.0,0.0,0.0,0.0,0.0,0.0,0.0,0.0,0.0,0.0,0.0,0.0,0.0,0.0,0.0,0.0,0.0,0.0,0.0,0.0,0.0,0.0,0.0,0.0,0.0,0.0,0.0,0.0,0.0,0.0,0.0,0.0,0.0,0.0,0.0,0.0,0.0,0.0,0.0,0.0,0.0,0.0,0.0,0.0,0.0,0.0,0.0,0.0,0.0,0.0,0.0,0.0,0.0,0.0,0.0,0.0,0.0,0.0,0.0,0.0,0.0,0.0,0.0,0.0,0.0,0.0,0.0,0.0,0.0,0.0,0.0,0.0,0.0,0.0,0.0,0.0,0.0,0.0,0.0,0.0,0.0,0.0,0.0,0.0,0.0,0.0,0.0,0.0,0.0,0.0,0.0,0.0,0.0,0.0,0.0,0.0,0.0,0.0,0.0,0.0,0.0,0.0,0.0,0.0,0.0,0.0,0.0,0.0,0.0,0.0,0.0,0.0,0.0,0.0,0.0,0.0,0.0,0.0,0.0,0.0,0.0,0.0,0.0,0.0,0.0,0.0,0.0,0.0,0.0,0.0,0.0,0.0,0.0,0.0,0.0,0.0,0.0,0.0,0.0,0.0,0.0,0.0,0.0,0.0,0.0,0.0,0.0,0.0,0.0,0.0,0.0,0.0,0.0,0.0,0.0,0.0,0.0,0.0,0.0,0.0,0.0,0.0,0.0,0.0,0.0,0.0,0.0,0.0,0.0,0.0,0.0,0.0,0.0,0.0,0.0,0.0,0.0,0.0,0.0,0.0,0.0,0.0,0.0,0.0,0.0,0.0,0.0,0.0,0.0,0.0,0.0,0.0,0.0,0.0,0.0,0.0,0.0,0.0,0.0,0.0,0.0,0.0,0.0,0.0,0.0,0.0,0.0,0.0,0.0,0.0,0.0,0.0,0.0,0.0,0.0,0.0,0.0,0.0,0.0,0.0,0.0,0.0,0.0,0.0,0.0,0.0,0.0,0.0,0.0,0.0,0.0,0.0,0.0,0.0,0.0,0.0,0.0,0.0,0.0,0.0,0.0,0.0,0.0,0.0,0.0,0.0,0.0,0.0,0.0,0.0,0.0,0.0,0.0,0.0,0.0,0.0,0.0,0.0,0.0,0.0,0.0,0.0,0.0,0.0,0.0,0.0,0.0,0.0,0.0,0.0,0.0,0.0,0.0,0.0,0.0,0.0,0.0,0.0,0.0,0.0,0.0,0.0,0.0,0.0,0.0,0.0,0.0,0.0,0.0,0.0,0.0,0.0,0.0,0.0,0.0,0.0,0.0,0.0,0.0,0.0,0.0,0.0,0.0,0.0,0.0,0.0,0.0,0.0,0.0,0.0,0.0,0.0,0.0,0.0,0.0,0.0,0.0,0.0,0.0,0.0,0.0,0.0,0.0,0.0,0.0,0.0,0.0,0.0,0.0,0.0,0.0,0.0,0.0,0.0,0.0,0.0,0.0,0.0,0.0,0.0,0.0,0.0,0.0,0.0,0.0,0.0,0.0,0.0,0.0,0.0,0.0,0.0,0.0,0.0,0.0,0.0,0.0,0.0,0.0,0.0,0.0,0.0,0.0,0.0,0.0,0.0,0.0,0.0,0.0,0.0,0.0,0.0,0.0,0.0,0.0,0.0,0.0,0.0,0.0,0.0,0.0,0.0,0.0,0.0,0.0,0.0,0.0,0.0,0.0,0.0,0.0,0.0,0.0,0.0,0.0,0.0,0.0,0.0,0.0,0.0,0.0,0.0,0.0,0.0,0.0,0.0,0.0,0.0,0.0,0.0,0.0,0.0,0.0,0.0,0.0,0.0,0.0,0.0,0.0,0.0,0.0,0.0,0.0,0.0,0.0,0.0,0.0,0.0,0.0,0.0,0.0,0.0,0.0,0.0,0.0,0.0,0.0,0.0,0.0,0.0,0.0,0.0,0.0,0.0,0.0,0.0,0.0,0.0,0.0,0.0,0.0,0.0,0.0,0.0,0.0,0.0,0.0,0.0,0.0,0.0,0.0,0.0,0.0,0.0,0.0,0.0,0.0,0.0,0.0,0.0,0.0,0.0,0.0,0.0,0.0,0.0,0.0,0.0,0.0,0.0,0.0,0.0,0.0,0.0,0.0,0.0,0.0,0.0,0.0,0.0,0.0,0.0,0.0,0.0,0.0,0.0,0.0,0.0,0.0,0.0,0.0,0.0,0.0,0.0,0.0,0.0,0.0,0.0,0.0,0.0,0.0,0.0,0.0,0.0,0.0,0.0,0.0,0.0,0.0,0.0,0.0,0.0,0.0,0.0,0.0,0.0,0.0,0.0,0.0,0.0,0.0,0.0,0.0,0.0,0.0,0.0,0.0,0.0,0.0,0.0,0.0,0.0,0.0,0.0,0.0,0.0,0.0,0.0,0.0,0.0,0.0,0.0,0.0,0.0,0.0,0.0,0.0,0.0,0.0,0.0,0.0,0.0,0.0,0.0,0.0,0.0,0.0,0.0,0.0,0.0,0.0,0.0,0.0,0.0,0.0,0.0,0.0,0.0,0.0,0.0,0.0,0.0,0.0,0.0,0.0,0.0,0.0,0.0,0.0,0.0,0.0,0.0,0.0,0.0,0.0,0.0,0.0,0.0,0.0,0.0,0.0,0.0,0.0,0.0,0.0,0.0,0.0,0.0,0.0,0.0,0.0,0.0,0.0,0.0,0.0,0.0,0.0,0.0,0.0,0.0,0.0,0.0,0.0,0.0,0.0,0.0,0.0,0.0,0.0,0.0,0.0,0.0,0.0,0.0,0.0,0.0,0.0,0.0,0.0,0.0,0.0,0.0,0.0,0.0,0.0,0.0,0.0,0.0,0.0,0.0,0.0,0.0,0.0,0.0,0.0,0.0,0.0,0.0,0.0,0.0,0.0,0.0,0.0,0.0,0.0,0.0,0.0,0.0,0.0,0.0,0.0,0.0,0.0,0.0,0.0,0.0,1.7105,0.0,0.0,0.0,0.0,0.0,0.0,0.0,0.0,0.0,0.0,0.0,0.0,0.0,0.0,0.0,0.0,0.0,0.0,0.0,0.0,0.0,0.0,0.0,0.0,0.0,0.0,0.0,0.0,0.0,0.0,0.0,0.0,0.0,0.0,0.0,0.0,0.0,0.0,0.0,0.0,0.0,0.0,0.0,0.0,0.0,0.0,0.0,0.0,0.0,0.0,0.0,0.0,0.0,0.0,0.0,0.0,0.0,0.0,0.0,0.0,0.0,0.0,0.0,0.0,0.0,0.0,0.0,0.0,0.0,0.0,0.0,0.0,0.0,0.0,0.0,0.0,0.0,0.0,0.0,0.0,0.0,0.0,0.0,0.0,0.0,0.0,0.0,0.0,0.0,0.0,0.0,0.0,0.0,0.0,0.0,0.0,0.0,0.0,0.0,0.0,0.0,0.0,0.0,0.0,0.0,0.0,0.0,0.0,0.0,0.0,1.8833,1.9002,1.8598,1.8121,1.7634,0.0,0.0,0.0,0.0,0.0,0.0,0.0,0.0,0.0,0.0,0.0,0.0,0.0,0.0,0.0,0.0,0.0,0.0,0.0,0.0,0.0,0.0,0.0,0.0,0.0,0.0,0.0,0.0,0.0,0.0,0.0,0.0,0.0,0.0,0.0,0.0,0.0,0.0,0.0,0.0,0.0,0.0,0.0,0.0,0.0,0.0,0.0,0.0,0.0,0.0,0.0,0.0,0.0,0.0,0.0,0.0,0.0,0.0,0.0,0.0,0.0,0.0,0.0,0.0,0.0,0.0,0.0,0.0,0.0,0.0,0.0,0.0,0.0,0.0,0.0,0.0,0.0,0.0,0.0,0.0,0.0,0.0,0.0,0.0,0.0,0.0,0.0,0.0,0.0,0.0,0.0,0.0,0.0,0.0,0.0,0.0,0.0,0.0,0.0,0.0,0.0,0.0,0.0,0.0,0.0,0.0,0.0,0.0,0.0,0.0,0.0,0.0,1.9408,1.8804,1.7823,0.0,0.0,0.0,0.0,0.0,0.0,0.0,0.0,0.0,0.0,0.0,0.0,0.0,0.0,0.0,0.0,0.0,0.0,0.0,0.0,0.0,0.0,0.0,0.0,0.0,0.0,0.0,0.0,0.0,0.0,0.0,0.0,0.0,0.0,0.0,0.0,0.0,0.0,0.0,0.0,0.0,0.0,0.0,0.0,0.0,0.0,0.0,0.0,0.0,0.0,0.0,0.0,0.0,0.0,0.0,0.0,0.0,0.0,0.0,0.0,0.0,0.0,0.0,0.0,0.0,0.0,0.0,0.0,0.0,0.0,0.0,0.0,0.0,0.0,0.0,0.0,0.0,0.0,0.0,0.0,0.0,0.0,0.0,0.0,0.0,0.0,0.0,0.0,0.0,0.0,0.0,0.0,0.0,0.0,0.0,0.0,0.0,0.0,0.0,0.0,0.0,0.0,0.0,0.0,0.0,0.0,0.0,0.0,0.0,0.0,2.0521,2.1005,2.0401,0.0,1.7884,0.0,0.0,0.0,0.0,0.0,0.0,0.0,0.0,0.0,0.0,0.0,0.0,0.0,0.0,0.0,0.0,0.0,0.0,0.0,0.0,0.0,0.0,0.0,0.0,0.0,0.0,0.0,0.0,0.0,0.0,0.0,0.0,0.0,0.0,0.0,0.0,0.0,0.0,0.0,0.0,0.0,0.0,0.0,0.0,0.0,0.0,0.0,0.0,0.0,0.0,0.0,0.0,0.0,0.0,0.0,0.0,0.0,0.0,0.0,0.0,0.0,0.0,0.0,0.0,0.0,0.0,0.0,0.0,0.0,0.0,0.0,0.0,0.0,0.0,0.0,0.0,0.0,0.0,0.0,0.0,0.0,0.0,0.0,0.0,0.0,0.0,0.0,0.0,0.0,0.0,0.0,0.0,0.0,0.0,0.0,0.0,0.0,0.0,0.0,0.0,0.0,0.0,0.0,0.0,0.0,0.0,0.0,0.0,0.0,0.0,2.1109,2.1313,2.0676,1.9746,0.0,0.0,0.0,0.0,0.0,0.0,0.0,0.0,0.0,0.0,0.0,0.0,0.0,0.0,0.0,0.0,0.0,0.0,0.0,0.0,0.0,0.0,0.0,0.0,0.0,0.0,0.0,0.0,0.0,0.0,0.0,0.0,0.0,0.0,0.0,0.0,0.0,0.0,0.0,0.0,0.0,0.0,0.0,0.0,0.0,0.0,0.0,0.0,0.0,0.0,0.0,0.0,0.0,0.0,0.0,0.0,0.0,0.0,0.0,0.0,0.0,0.0,0.0,0.0,0.0,0.0,0.0,0.0,0.0,0.0,0.0,0.0,0.0,0.0,0.0,0.0,0.0,0.0,0.0,0.0,0.0,0.0,0.0,0.0,0.0,0.0,0.0,0.0,0.0,0.0,0.0,0.0,0.0,0.0,0.0,0.0,0.0,0.0,0.0,0.0,0.0,0.0,0.0,0.0,0.0,0.0,0.0,0.0,0.0,0.0,2.0848,2.1447,2.1358,2.0759,1.9968,1.9078,0.0,0.0,0.0,0.0,0.0,0.0,0.0,0.0,0.0,0.0,0.0,0.0,0.0,0.0,0.0,0.0,0.0,0.0,0.0,0.0,0.0,0.0,0.0,0.0,0.0,0.0,0.0,0.0,0.0,0.0,0.0,0.0,0.0,0.0,0.0,0.0,0.0,0.0,0.0,0.0,0.0,0.0,0.0,0.0,0.0,0.0,0.0,0.0,0.0,0.0,0.0,0.0,0.0,0.0,0.0,0.0,0.0,0.0,0.0,0.0,0.0,0.0,0.0,0.0,0.0,0.0,0.0,0.0,0.0,0.0,0.0,0.0,0.0,0.0,0.0,0.0,0.0,0.0,0.0,0.0,0.0,0.0,0.0,0.0,0.0,0.0,0.0,0.0,0.0,0.0,0.0,0.0,0.0,0.0,0.0,0.0,0.0,0.0,0.0,0.0,0.0,0.0,0.0,0.0,0.0,0.0,0.0,0.0,0.0,2.0977,2.1544,2.1397,2.0771,2.0015,0.0,0.0,0.0,0.0,0.0,0.0,0.0,0.0,0.0,0.0,0.0,0.0,0.0,0.0,0.0,0.0,0.0,0.0,0.0,0.0,0.0,0.0,0.0,0.0,0.0,0.0,0.0,0.0,0.0,0.0,0.0,0.0,0.0,0.0,0.0,0.0,0.0,0.0,0.0,0.0,0.0,0.0,0.0,0.0,0.0,0.0,0.0,0.0,0.0,0.0,0.0,0.0,0.0,0.0,0.0,0.0,0.0,0.0,0.0,0.0,0.0,0.0,0.0,0.0,0.0,0.0,0.0,0.0,0.0,0.0,0.0,0.0,0.0,0.0,0.0,0.0,0.0,0.0,0.0,0.0,0.0,0.0,0.0,0.0,0.0,0.0,0.0,0.0,0.0,0.0,0.0,0.0,0.0,0.0,0.0,0.0,0.0,0.0,0.0,0.0,0.0,0.0,0.0,0.0,0.0,0.0,0.0,0.0,0.0,2.0524,2.1239,2.1518,2.1397,2.1172,2.0521,0.0,0.0,0.0,0.0,0.0,0.0,0.0,0.0,0.0,0.0,0.0,0.0,0.0,0.0,0.0,0.0,0.0,0.0,0.0,0.0,0.0,0.0,0.0,0.0,0.0,0.0,0.0,0.0,0.0,0.0,0.0,0.0,0.0,0.0,0.0,0.0,0.0,0.0,0.0,0.0,0.0,0.0,0.0,0.0,0.0,0.0,0.0,0.0,0.0,0.0,0.0,0.0,0.0,0.0,0.0,0.0,0.0,0.0,0.0,0.0,0.0,0.0,0.0,0.0,0.0,0.0,0.0,0.0,0.0,0.0,0.0,0.0,0.0,0.0,0.0,0.0,0.0,0.0,0.0,0.0,0.0,0.0,0.0,0.0,0.0,0.0,0.0,0.0,0.0,0.0,0.0,0.0,0.0,0.0,0.0,0.0,0.0,0.0,0.0,0.0,0.0,0.0,0.0,0.0,0.0,0.0,0.0,0.0,0.0,2.1216,0.0,2.1568,0.0,2.1423,2.0808,0.0,0.0,0.0,0.0,0.0,0.0,0.0,0.0,0.0,0.0,0.0,0.0,0.0,0.0,0.0,0.0,0.0,0.0,0.0,0.0,0.0,0.0,0.0,0.0,0.0,0.0,0.0,0.0,0.0,0.0,0.0,0.0,0.0,0.0,0.0,0.0,0.0,0.0,0.0,0.0,0.0,0.0,0.0,0.0,0.0,0.0,0.0,0.0,0.0,0.0,0.0,0.0,0.0,0.0,0.0,0.0,0.0,0.0,0.0,0.0,0.0,0.0,0.0,0.0,0.0,0.0,0.0,0.0,0.0,0.0,0.0,0.0,0.0,0.0,0.0,0.0,0.0,0.0,0.0,0.0,0.0,0.0,0.0,0.0,0.0,0.0,0.0,0.0,0.0,0.0,0.0,0.0,0.0,0.0,0.0,0.0,0.0,0.0,0.0,0.0,0.0,0.0,0.0,0.0,0.0,0.0,0.0,0.0,2.0796,2.1913,2.172,2.1602,2.1604,2.1471,2.0808,0.0,0.0,0.0,0.0,0.0,0.0,0.0,0.0,0.0,0.0,0.0,0.0,0.0,0.0,0.0,0.0,0.0,0.0,0.0,0.0,0.0,0.0,0.0,0.0,0.0,0.0,0.0,0.0,0.0,0.0,0.0,0.0,0.0,0.0,0.0,0.0,0.0,0.0,0.0,0.0,0.0,0.0,0.0,0.0,0.0,0.0,0.0,0.0,0.0,0.0,0.0,0.0,0.0,0.0,0.0,0.0,0.0,0.0,0.0,0.0,0.0,0.0,0.0,0.0,0.0,0.0,0.0,0.0,0.0,0.0,0.0,0.0,0.0,0.0,0.0,0.0,0.0,0.0,0.0,0.0,0.0,0.0,0.0,0.0,0.0,0.0,0.0,0.0,0.0,0.0,0.0,0.0,0.0,0.0,0.0,0.0,0.0,0.0,0.0,0.0,0.0,0.0,0.0,0.0,0.0,0.0,0.0,0.0,0.0,2.198,2.1831,2.17,2.1616,2.1471,2.0843,0.0,0.0,0.0,0.0,0.0,0.0,0.0,0.0,0.0,0.0,0.0,0.0,0.0,0.0,0.0,0.0,0.0,0.0,0.0,0.0,0.0,0.0,0.0,0.0,0.0,0.0,0.0,0.0,0.0,0.0,0.0,0.0,0.0,0.0,0.0,0.0,0.0,0.0,0.0,0.0,0.0,0.0,0.0,0.0,0.0,0.0,0.0,0.0,0.0,0.0,0.0,0.0,0.0,0.0,0.0,0.0,0.0,0.0,0.0,0.0,0.0,0.0,0.0,0.0,0.0,0.0,0.0,0.0,0.0,0.0,0.0,0.0,0.0,0.0,0.0,0.0,0.0,0.0,0.0,0.0,0.0,0.0,0.0,0.0,0.0,0.0,0.0,0.0,0.0,0.0,0.0,0.0,0.0,0.0,0.0,0.0,0.0,0.0,0.0,0.0,0.0,0.0,0.0,0.0,0.0,0.0,0.0,0.0,0.0,2.24,2.2013,2.1759,2.1674,2.1508,2.0964,2.0041,0.0,0.0,0.0,0.0,0.0,0.0,0.0,0.0,0.0,0.0,0.0,0.0,0.0,0.0,0.0,0.0,0.0,0.0,0.0,0.0,0.0,0.0,0.0,0.0,0.0,0.0,0.0,0.0,0.0,0.0,0.0,0.0,0.0,0.0,0.0,0.0,0.0,0.0,0.0,0.0,0.0,0.0,0.0,0.0,0.0,0.0,0.0,0.0,0.0,0.0,0.0,0.0,0.0,0.0,0.0,0.0,0.0,0.0,0.0,0.0,0.0,0.0,0.0,0.0,0.0,0.0,0.0,0.0,0.0,0.0,0.0,0.0,0.0,0.0,0.0,0.0,0.0,0.0,0.0,0.0,0.0,0.0,0.0,0.0,0.0,0.0,0.0,0.0,0.0,0.0,0.0,0.0,0.0,0.0,0.0,0.0,0.0,0.0,0.0,0.0,0.0,0.0,0.0,0.0,0.0,0.0,0.0,0.0,2.3166,2.2326,2.1931,2.1917,2.1626,2.1169,0.0,0.0,0.0,0.0,0.0,0.0,0.0,0.0,0.0,0.0,0.0,0.0,0.0,0.0,0.0,0.0,0.0,0.0,0.0,0.0,0.0,0.0,0.0,0.0,0.0,0.0,0.0,0.0,0.0,0.0,0.0,0.0,0.0,0.0,0.0,0.0,0.0,0.0,0.0,0.0,0.0,0.0,0.0,0.0,0.0,0.0,0.0,0.0,0.0,0.0,0.0,0.0,0.0,0.0,0.0,0.0,0.0,0.0,0.0,0.0,0.0,0.0,0.0,0.0,0.0,0.0,0.0,0.0,0.0,0.0,0.0,0.0,0.0,0.0,0.0,0.0,0.0,0.0,0.0,0.0,0.0,0.0,0.0,0.0,0.0,0.0,0.0,0.0,0.0,0.0,0.0,0.0,0.0,0.0,0.0,0.0,0.0,0.0,0.0,0.0,0.0,0.0,0.0,0.0,0.0,0.0,0.0,0.0,0.0,2.3811,2.3367,2.3119,2.3106,2.2443,2.1791,0.0,0.0,0.0,0.0,0.0,0.0,0.0,0.0,0.0,0.0,0.0,0.0,0.0,0.0,0.0,0.0,0.0,0.0,0.0,0.0,0.0,0.0,0.0,0.0,0.0,0.0,0.0,0.0,0.0,0.0,0.0,0.0,0.0,0.0,0.0,0.0,0.0,0.0,0.0,0.0,0.0,0.0,0.0,0.0,0.0,0.0,0.0,0.0,0.0,0.0,0.0,0.0,0.0,0.0,0.0,0.0,0.0,0.0,0.0,0.0,0.0,0.0,0.0,0.0,0.0,0.0,0.0,0.0,0.0,0.0,0.0,0.0,0.0,0.0,0.0,0.0,0.0,0.0,0.0,0.0,0.0,0.0,0.0,0.0,0.0,0.0,0.0,0.0,0.0,0.0,0.0,0.0,0.0,0.0,0.0,0.0,0.0,0.0,0.0,0.0,0.0,0.0,0.0,0.0,0.0,0.0,0.0,0.0,2.4094,2.4472,2.4438,2.4403,2.439,2.3277,2.2401,0.0,0.0,0.0,0.0,0.0,0.0,0.0,0.0,0.0,0.0,0.0,0.0,0.0,0.0,0.0,0.0,0.0,0.0,0.0,0.0,0.0,0.0,0.0,0.0,0.0,0.0,0.0,0.0,0.0,0.0,0.0,0.0,0.0,0.0,0.0,0.0,0.0,0.0,0.0,0.0,0.0,0.0,0.0,0.0,0.0,0.0,0.0,0.0,0.0,0.0,0.0,0.0,0.0,0.0,0.0,0.0,0.0,0.0,0.0,0.0,0.0,0.0,0.0,0.0,0.0,0.0,0.0,0.0,0.0,0.0,0.0,0.0,0.0,0.0,0.0,0.0,0.0,0.0,0.0,0.0,0.0,0.0,0.0,0.0,0.0,0.0,0.0,0.0,0.0,0.0,0.0,0.0,0.0,0.0,0.0,0.0,0.0,0.0,0.0,0.0,0.0,0.0,0.0,0.0,0.0,0.0,0.0,0.0,2.5133,2.519,2.5522,2.5646,2.555,2.4109,2.3012,0.0,0.0,0.0,0.0,0.0,0.0,0.0,0.0,0.0,0.0,0.0,0.0,0.0,0.0,0.0,0.0,0.0,0.0,0.0,0.0,0.0,0.0,0.0,0.0,0.0,0.0,0.0,0.0,0.0,0.0,0.0,0.0,0.0,0.0,0.0,0.0,0.0,0.0,0.0,0.0,0.0,0.0,0.0,0.0,0.0,0.0,0.0,0.0,0.0,0.0,0.0,0.0,0.0,0.0,0.0,0.0,0.0,0.0,0.0,0.0,0.0,0.0,0.0,0.0,0.0,0.0,0.0,0.0,0.0,0.0,0.0,0.0,0.0,0.0,0.0,0.0,0.0,0.0,0.0,0.0,0.0,0.0,0.0,0.0,0.0,0.0,0.0,0.0,0.0,0.0,0.0,0.0,0.0,0.0,0.0,0.0,0.0,0.0,0.0,0.0,0.0,0.0,0.0,0.0,0.0,0.0,0.0,0.0,2.5936,2.6413,2.673,2.6696,2.6198,2.4709,2.3621,0.0,0.0,0.0,0.0,0.0,0.0,0.0,0.0,0.0,0.0,0.0,0.0,0.0,0.0,0.0,0.0,0.0,0.0,0.0,0.0,0.0,0.0,0.0,0.0,0.0,0.0,0.0,0.0,0.0,0.0,0.0,0.0,0.0,0.0,0.0,0.0,0.0,0.0,0.0,0.0,0.0,0.0,0.0,0.0,0.0,0.0,0.0,0.0,1.9367,0.0,0.0,0.0,0.0,0.0,0.0,0.0,0.0,0.0,0.0,0.0,0.0,0.0,0.0,0.0,0.0,0.0,0.0,0.0,0.0,0.0,0.0,0.0,0.0,0.0,0.0,0.0,0.0,0.0,0.0,0.0,0.0,0.0,0.0,0.0,0.0,0.0,0.0,0.0,0.0,0.0,0.0,0.0,0.0,0.0,0.0,0.0,0.0,0.0,0.0,0.0,0.0,0.0,0.0,0.0,0.0,0.0,0.0,0.0,2.6483,2.6807,2.7134,2.7027,2.6392,2.5474,2.4394,0.0,0.0,0.0,0.0,0.0,0.0,0.0,0.0,0.0,0.0,0.0,0.0,0.0,0.0,0.0,0.0,0.0,0.0,0.0,0.0,0.0,0.0,0.0,0.0,0.0,0.0,0.0,0.0,0.0,0.0,0.0,0.0,0.0,0.0,0.0,0.0,0.0,0.0,0.0,0.0,0.0,0.0,0.0,0.0,0.0,0.0,0.0,0.0,0.0,0.0,0.0,0.0,0.0,0.0,0.0,0.0,0.0,0.0,0.0,0.0,0.0,0.0,0.0,0.0,0.0,0.0,0.0,0.0,0.0,0.0,0.0,0.0,0.0,0.0,0.0,0.0,0.0,0.0,0.0,0.0,0.0,0.0,0.0,0.0,0.0,0.0,0.0,0.0,0.0,0.0,0.0,0.0,0.0,0.0,0.0,0.0,0.0,0.0,0.0,0.0,0.0,0.0,0.0,0.0,0.0,0.0,0.0,2.5991,2.6933,2.6918,2.7355,2.7234,2.6514,2.6196,2.5126,2.3283,0.0,0.0,0.0,0.0,0.0,0.0,0.0,0.0,0.0,0.0,0.0,0.0,0.0,0.0,0.0,0.0,0.0,0.0,0.0,0.0,0.0,0.0,0.0,0.0,0.0,0.0,0.0,0.0,0.0,0.0,0.0,0.0,0.0,0.0,0.0,0.0,0.0,0.0,1.7716,1.854,0.0,0.0,0.0,0.0,0.0,0.0,0.0,0.0,1.9873,0.0,0.0,0.0,0.0,0.0,0.0,0.0,0.0,0.0,0.0,0.0,0.0,0.0,0.0,0.0,0.0,0.0,0.0,0.0,0.0,0.0,0.0,0.0,0.0,0.0,0.0,0.0,0.0,0.0,0.0,0.0,0.0,0.0,0.0,0.0,0.0,0.0,0.0,0.0,0.0,0.0,0.0,0.0,0.0,0.0,0.0,0.0,0.0,0.0,0.0,0.0,0.0,0.0,0.0,0.0,0.0,2.4119,2.6441,2.7549,2.7416,2.8321,2.8224,2.7057,2.6779,2.5559,2.3364,0.0,0.0,0.0,0.0,0.0,0.0,0.0,0.0,0.0,0.0,0.0,0.0,0.0,0.0,0.0,0.0,0.0,0.0,0.0,0.0,0.0,0.0,0.0,0.0,0.0,0.0,0.0,0.0,0.0,0.0,0.0,0.0,0.0,0.0,0.0,0.0,0.0,0.0,0.0,1.9803,2.0343,0.0,0.0,0.0,0.0,0.0,0.0,0.0,0.0,2.0712,0.0,0.0,0.0,0.0,0.0,0.0,0.0,0.0,0.0,0.0,0.0,0.0,0.0,0.0,0.0,0.0,0.0,0.0,0.0,0.0,0.0,0.0,0.0,0.0,0.0,0.0,0.0,0.0,0.0,0.0,0.0,0.0,0.0,0.0,0.0,0.0,0.0,0.0,0.0,0.0,0.0,0.0,0.0,0.0,0.0,0.0,0.0,0.0,0.0,0.0,0.0,0.0,0.0,0.0,0.0,2.4655,2.6596,2.7753,2.7983,2.8612,2.8361,2.7149,2.6899,2.5654,0.0,0.0,0.0,0.0,0.0,0.0,0.0,0.0,0.0,0.0,0.0,0.0,0.0,0.0,0.0,0.0,0.0,0.0,0.0,0.0,0.0,0.0,0.0,0.0,0.0,0.0,0.0,0.0,0.0,0.0,0.0,0.0,0.0,0.0,0.0,0.0,0.0,0.0,0.0,0.0,2.0358,2.0986,2.1491,0.0,0.0,0.0,0.0,0.0,0.0,2.1608,2.1562,0.0,0.0,0.0,0.0,0.0,0.0,0.0,0.0,0.0,0.0,0.0,0.0,0.0,0.0,0.0,0.0,0.0,0.0,0.0,0.0,0.0,0.0,0.0,0.0,0.0,0.0,0.0,0.0,0.0,0.0,0.0,0.0,0.0,0.0,0.0,0.0,0.0,0.0,0.0,0.0,0.0,0.0,0.0,0.0,0.0,0.0,0.0,0.0,0.0,0.0,0.0,0.0,0.0,0.0,0.0,2.5035,2.6651,2.7789,2.8341,2.864,2.8251,2.709,2.6899,2.5654,0.0,0.0,0.0,0.0,0.0,0.0,0.0,0.0,0.0,0.0,0.0,0.0,0.0,0.0,0.0,0.0,0.0,0.0,0.0,0.0,0.0,0.0,0.0,0.0,0.0,0.0,0.0,0.0,0.0,0.0,0.0,0.0,0.0,0.0,0.0,0.0,0.0,0.0,0.0,0.0,0.0,2.1518,2.1991,2.2252,0.0,0.0,0.0,0.0,2.2062,2.2177,0.0,0.0,0.0,0.0,0.0,0.0,0.0,0.0,0.0,0.0,0.0,0.0,0.0,0.0,0.0,0.0,0.0,0.0,0.0,0.0,0.0,0.0,0.0,0.0,0.0,0.0,0.0,0.0,0.0,0.0,0.0,0.0,0.0,0.0,0.0,0.0,0.0,0.0,0.0,0.0,0.0,0.0,0.0,0.0,0.0,0.0,0.0,0.0,0.0,0.0,0.0,0.0,0.0,0.0,0.0,0.0,2.5049,2.6665,2.7729,2.8218,2.8592,2.8188,2.6865,2.6808,2.5682,0.0,0.0,0.0,0.0,0.0,0.0,0.0,0.0,0.0,0.0,0.0,0.0,0.0,0.0,0.0,0.0,0.0,0.0,0.0,0.0,0.0,0.0,0.0,0.0,0.0,0.0,0.0,0.0,0.0,0.0,0.0,0.0,0.0,0.0,0.0,0.0,0.0,0.0,0.0,0.0,0.0,2.2002,2.2541,2.2486,2.2349,0.0,0.0,2.2073,2.1855,2.1855,0.0,0.0,0.0,0.0,0.0,0.0,0.0,0.0,0.0,0.0,0.0,0.0,0.0,0.0,0.0,0.0,0.0,0.0,0.0,0.0,0.0,0.0,0.0,0.0,0.0,0.0,0.0,0.0,0.0,0.0,0.0,0.0,0.0,0.0,0.0,0.0,0.0,0.0,0.0,0.0,0.0,0.0,0.0,0.0,0.0,0.0,0.0,0.0,0.0,0.0,0.0,0.0,0.0,0.0,0.0,2.4583,2.5869,2.6768,2.7639,2.8512,2.8627,2.8094,2.682,2.6793,2.5668,0.0,0.0,0.0,0.0,0.0,0.0,0.0,0.0,0.0,0.0,0.0,0.0,0.0,0.0,0.0,0.0,0.0,0.0,0.0,0.0,0.0,0.0,0.0,0.0,0.0,0.0,0.0,0.0,0.0,0.0,0.0,0.0,0.0,0.0,0.0,0.0,0.0,0.0,0.0,0.0,0.0,0.0,2.337,2.3684,0.0,0.0,0.0,2.3523,2.334,0.0,0.0,0.0,0.0,0.0,0.0,0.0,0.0,0.0,0.0,0.0,0.0,0.0,0.0,0.0,0.0,0.0,0.0,0.0,0.0,0.0,0.0,0.0,0.0,0.0,0.0,0.0,0.0,0.0,0.0,0.0,0.0,0.0,0.0,0.0,0.0,0.0,0.0,0.0,0.0,0.0,0.0,0.0,0.0,0.0,0.0,0.0,0.0,0.0,0.0,0.0,0.0,0.0,0.0,0.0,0.0,0.0,2.6522,2.6855,2.7583,2.8741,2.8651,2.803,2.6847,2.6793,0.0,0.0,0.0,0.0,0.0,0.0,0.0,0.0,0.0,0.0,0.0,0.0,0.0,0.0,0.0,0.0,0.0,0.0,0.0,0.0,0.0,0.0,0.0,0.0,0.0,0.0,0.0,1.5858,0.0,0.0,0.0,0.0,0.0,0.0,0.0,0.0,0.0,0.0,0.0,0.0,0.0,0.0,2.4118,2.4086,2.4599,2.4943,0.0,0.0,2.4612,2.4506,2.4287,2.3908,0.0,0.0,0.0,0.0,0.0,0.0,0.0,0.0,0.0,0.0,0.0,0.0,0.0,0.0,0.0,0.0,0.0,0.0,0.0,0.0,0.0,0.0,0.0,0.0,0.0,0.0,0.0,0.0,0.0,0.0,0.0,0.0,0.0,0.0,0.0,0.0,0.0,0.0,0.0,0.0,0.0,0.0,0.0,0.0,0.0,0.0,0.0,0.0,0.0,0.0,0.0,0.0,0.0,0.0,0.0,2.6351,2.6796,2.7568,2.8755,2.8667,2.8017,2.6847,2.6793,2.5668,0.0,0.0,0.0,0.0,0.0,0.0,0.0,0.0,0.0,0.0,0.0,0.0,0.0,0.0,0.0,0.0,0.0,0.0,0.0,0.0,0.0,0.0,0.0,0.0,0.0,0.0,0.0,0.0,0.0,0.0,0.0,0.0,0.0,0.0,0.0,0.0,0.0,0.0,0.0,0.0,0.0,2.4097,2.4495,2.4647,2.4736,0.0,2.4592,2.4495,2.4517,2.4484,2.4277,2.3746,0.0,0.0,0.0,0.0,0.0,0.0,0.0,0.0,0.0,0.0,0.0,0.0,0.0,0.0,0.0,0.0,0.0,0.0,0.0,0.0,0.0,0.0,0.0,0.0,0.0,0.0,0.0,0.0,0.0,0.0,0.0,0.0,0.0,0.0,0.0,0.0,0.0,0.0,0.0,0.0,0.0,0.0,0.0,0.0,0.0,0.0,0.0,0.0,0.0,0.0,0.0,0.0,0.0,2.4559,2.6728,2.6853,2.7456,2.8613,2.8619,2.8209,2.7393,2.6996,2.5859,0.0,0.0,0.0,0.0,0.0,0.0,0.0,0.0,0.0,0.0,0.0,0.0,0.0,0.0,0.0,0.0,0.0,0.0,0.0,0.0,0.0,0.0,0.0,0.0,0.0,0.0,0.0,0.0,1.7656,1.8159,1.8997,0.0,0.0,0.0,0.0,0.0,0.0,0.0,0.0,0.0,0.0,2.4902,2.5125,2.5436,0.0,0.0,2.5576,2.5469,2.5743,2.5172,2.4613,2.4409,2.402,0.0,0.0,0.0,0.0,0.0,0.0,0.0,0.0,0.0,0.0,0.0,0.0,0.0,0.0,0.0,0.0,0.0,0.0,0.0,0.0,0.0,0.0,0.0,0.0,0.0,0.0,0.0,0.0,0.0,0.0,0.0,0.0,0.0,0.0,0.0,0.0,0.0,0.0,0.0,0.0,0.0,0.0,0.0,0.0,0.0,0.0,0.0,0.0,0.0,0.0,0.0,0.0,2.4886,2.6919,2.7003,2.7583,2.856,2.8587,2.8315,2.7716,2.712,2.6019,0.0,0.0,0.0,0.0,0.0,0.0,0.0,0.0,0.0,0.0,0.0,0.0,0.0,0.0,0.0,0.0,0.0,0.0,0.0,0.0,0.0,0.0,0.0,0.0,0.0,0.0,0.0,0.0,1.8274,1.8928,1.9803,0.0,0.0,0.0,0.0,0.0,0.0,0.0,0.0,0.0,0.0,2.5506,2.5675,2.6058,2.6426,2.6769,2.6497,2.6345,2.6661,2.5936,2.5262,2.5049,0.0,0.0,0.0,0.0,0.0,0.0,0.0,0.0,0.0,0.0,0.0,0.0,0.0,0.0,0.0,0.0,0.0,0.0,0.0,0.0,0.0,0.0,0.0,0.0,0.0,0.0,0.0,2.0972,0.0,0.0,2.0953,0.0,0.0,0.0,0.0,0.0,0.0,0.0,0.0,0.0,0.0,0.0,0.0,0.0,0.0,0.0,0.0,0.0,0.0,0.0,0.0,0.0,0.0,2.5547,2.6794,2.7364,2.7976,2.8573,2.8587,2.8315,2.773,2.7133,2.6164,2.4792,0.0,0.0,0.0,0.0,0.0,0.0,0.0,0.0,0.0,0.0,0.0,0.0,0.0,0.0,0.0,0.0,0.0,0.0,0.0,0.0,0.0,0.0,0.0,0.0,0.0,0.0,1.8804,1.9333,1.9861,0.0,0.0,0.0,0.0,0.0,0.0,0.0,0.0,0.0,0.0,2.4987,2.5686,2.6121,2.6417,2.6758,2.7217,2.7083,2.6972,2.6982,2.6717,2.6312,0.0,0.0,0.0,0.0,0.0,0.0,0.0,0.0,0.0,0.0,0.0,0.0,0.0,0.0,0.0,0.0,0.0,0.0,0.0,0.0,0.0,0.0,0.0,0.0,0.0,0.0,0.0,2.3225,2.2681,0.0,0.0,0.0,0.0,0.0,0.0,0.0,0.0,0.0,0.0,0.0,2.7143,2.7088,0.0,0.0,0.0,0.0,0.0,0.0,0.0,0.0,0.0,0.0,0.0,0.0,2.5602,2.6752,2.7391,2.8003,2.8589,2.8587,2.8443,2.8085,2.7503,2.6346,2.4516,0.0,0.0,0.0,0.0,0.0,0.0,0.0,0.0,0.0,0.0,0.0,0.0,0.0,0.0,0.0,0.0,0.0,0.0,0.0,0.0,0.0,0.0,0.0,0.0,0.0,1.9226,0.0,0.0,0.0,0.0,0.0,0.0,0.0,0.0,0.0,0.0,0.0,2.485,2.5489,2.5807,2.6201,2.6833,2.6889,2.7039,0.0,0.0,0.0,0.0,0.0,0.0,0.0,0.0,0.0,0.0,0.0,0.0,0.0,0.0,2.2573,2.1915,2.1419,2.0994,2.0666,0.0,0.0,0.0,0.0,0.0,0.0,0.0,0.0,0.0,0.0,0.0,0.0,0.0,0.0,2.4735,0.0,2.4237,0.0,0.0,0.0,0.0,0.0,0.0,0.0,0.0,2.7741,2.8279,2.8557,2.8768,2.8709,0.0,2.7762,2.6708,0.0,0.0,0.0,0.0,0.0,0.0,0.0,0.0,2.6116,2.7093,2.7689,2.8207,2.8589,2.8538,2.8444,2.8303,2.7563,2.6177,2.4135,2.2734,2.1603,0.0,0.0,0.0,0.0,0.0,0.0,0.0,0.0,0.0,0.0,0.0,0.0,0.0,0.0,0.0,0.0,0.0,0.0,0.0,0.0,0.0,0.0,0.0,2.001,0.0,0.0,0.0,0.0,0.0,0.0,0.0,0.0,0.0,2.4274,2.4935,2.5636,2.6259,2.648,2.679,2.7368,0.0,0.0,0.0,0.0,0.0,0.0,0.0,2.5654,2.5468,2.5154,2.4838,2.4598,2.4539,2.4441,2.4217,0.0,0.0,2.274,2.2199,2.188,2.175,2.1517,2.1343,2.1352,2.1321,2.1343,0.0,0.0,0.0,0.0,0.0,0.0,0.0,0.0,2.6156,2.606,0.0,2.5716,0.0,0.0,0.0,0.0,0.0,2.7256,0.0,0.0,2.9309,2.9783,2.9715,3.0231,3.0219,2.9629,2.9067,2.8373,2.7553,2.5827,0.0,0.0,0.0,0.0,0.0,0.0,2.712,2.7732,2.8315,2.8627,2.8652,2.8479,2.8341,2.8268,2.7235,2.5717,2.3793,2.3392,2.2625,2.1303,2.021,0.0,0.0,0.0,0.0,0.0,0.0,0.0,0.0,0.0,0.0,0.0,0.0,0.0,0.0,0.0,0.0,0.0,0.0,0.0,0.0,2.0261,0.0,0.0,0.0,0.0,0.0,0.0,0.0,0.0,0.0,0.0,2.5624,2.5956,2.6336,2.6616,0.0,0.0,0.0,0.0,2.7681,2.7644,2.7436,2.7088,2.6595,2.6285,2.5922,2.542,0.0,0.0,2.4458,2.4952,2.5264,2.465,2.5165,2.5268,2.367,2.3161,2.2982,2.2959,2.2931,2.2931,2.2904,2.2794,2.2798,2.8696,0.0,0.0,0.0,0.0,2.7367,2.7646,2.7987,2.815,2.7892,2.7328,2.7548,0.0,0.0,0.0,0.0,0.0,0.0,2.923,2.9818,3.065,3.1,3.0949,3.0986,3.0906,3.0741,3.0429,3.0153,2.9852,2.84,2.7196,2.6343,0.0,0.0,0.0,0.0,2.7746,2.8329,2.8942,2.9392,2.9663,2.9612,2.9193,2.8396,2.6777,2.5635,2.5041,2.3611,2.2566,2.2078,2.091,0.0,0.0,0.0,0.0,0.0,0.0,0.0,0.0,0.0,0.0,0.0,0.0,0.0,0.0,0.0,0.0,0.0,0.0,0.0,2.1252,2.1427,2.1649,0.0,0.0,0.0,0.0,0.0,0.0,0.0,0.0,0.0,2.7206,2.7097,2.7086,0.0,0.0,2.7792,2.8331,2.8081,2.7962,2.8275,2.7606,0.0,2.6892,2.6439,2.606,2.5907,2.5739,2.5514,2.5157,2.5263,2.5358,2.5161,2.5336,2.5336,2.493,2.4521,2.4271,2.4219,2.4024,2.3712,2.3422,2.3325,2.3251,3.0742,2.9558,2.9013,2.8809,2.889,2.889,2.9143,2.9553,2.9567,2.9334,2.9024,2.9215,2.9087,2.8742,2.8929,0.0,0.0,0.0,3.0304,3.068,3.1325,3.1604,3.1618,3.1749,3.167,3.1431,3.1305,3.1109,3.0776,2.9928,2.9121,2.8336,0.0,0.0,2.7513,2.7881,2.8478,2.9279,2.9608,2.9858,3.0092,2.9653,2.8951,2.7988,2.6646,2.5707,2.5298,2.4047,2.3098,2.2545,2.1517,2.0505,0.0,0.0,0.0,0.0,0.0,0.0,0.0,0.0,0.0,0.0,0.0,1.8865,1.9501,0.0,0.0,0.0,2.1101,2.1661,2.2168,2.2325,0.0,0.0,0.0,0.0,0.0,0.0,0.0,2.6376,2.6868,2.7435,2.8188,2.8141,2.8081,2.8234,2.8218,2.8301,2.861,0.0,2.7851,2.795,2.7307,2.6756,2.6561,2.6217,2.5933,2.5829,2.5709,2.5606,2.5424,2.5517,2.5627,2.5645,2.5765,2.5884,2.5875,2.5682,2.5398,2.5104,2.4847,2.4581,2.4283,2.4246,2.4164,3.2843,3.2223,3.1151,3.0608,3.0486,3.0486,3.0513,3.054,3.0554,3.0513,3.0486,3.0617,3.0661,3.0624,3.081,0.0,3.0963,3.0977,3.1005,3.106,3.1613,3.1875,3.1889,3.241,3.2396,3.1854,3.184,3.1447,3.0767,3.0682,3.0583,3.0401,2.8204,2.7635,2.8682,2.875,2.9289,3.0411,3.0239,3.0148,3.0153,2.9043,2.8104,2.7392,2.6739,2.5901,2.4913,2.4594,2.3967,2.2827,2.2071,2.1374,2.0768,0.0,0.0,0.0,0.0,0.0,0.0,0.0,0.0,0.0,0.0,0.0,0.0,0.0,0.0,0.0,2.2263,0.0,2.2857,2.3054,0.0,0.0,0.0,2.473,2.609,2.6121,2.642,2.7315,0.0,0.0,2.8811,2.9066,2.9176,2.9128,2.9031,2.8873,2.8609,2.8046,2.7535,2.7225,2.6776,2.6405,2.612,2.599,2.586,2.5641,2.5499,2.5544,2.5563,2.5792,2.6013,2.604,2.6352,2.6591,2.6609,2.6545,2.6353,2.5636,2.5499,2.548,2.5388,2.5379,2.5343,3.3609,3.346,3.3189,3.2313,3.1083,3.1083,3.1341,3.1766,3.1762,3.1535,3.1101,3.1235,3.1113,3.081,3.0878,3.1157,3.1599,3.1585,3.1834,3.2275,3.2414,3.2483,3.2465,3.2474,3.2389,3.2247,3.2154,3.2009,3.1806,3.1357,3.1118,3.1042,3.0066,2.9683,2.9954,2.9821,3.01,3.0854,3.0664,3.0631,3.0745,2.9463,2.8488,2.7921,2.6927,2.6012,2.5214,2.4631,2.408,2.3471,2.2574,2.1755,2.1119,2.045,0.0,0.0,0.0,0.0,0.0,0.0,0.0,0.0,0.0,2.0695,2.088,0.0,2.2224,0.0,2.2771,2.3303,2.4052,2.4066,0.0,0.0,2.5462,2.5894,2.6451,2.7097,2.7763,2.8365,2.8857,2.9254,2.9526,2.9731,2.972,2.9308,2.8923,2.8556,2.8201,2.7843,2.7633,2.7617,2.7197,2.6852,2.6699,2.6531,2.6387,2.6334,2.6315,2.6298,2.6315,2.6371,2.6472,2.6444,2.6509,2.6609,2.6637,2.6618,2.6572,2.6334,2.6325,2.6224,2.5921,2.5847,2.5756,3.4301,3.4273,3.3997,3.3338,3.2435,3.2196,3.2295,3.2585,3.2309,3.201,3.1698,3.176,3.1689,3.148,3.148,3.1641,3.1973,3.1973,3.2151,3.2467,3.248,3.248,3.2467,3.2372,3.2318,3.2318,3.2241,3.2187,3.2173,3.1875,3.1698,3.1712,3.1279,3.1064,3.105,3.0675,3.0712,3.1108,3.0761,3.0535,3.0432,2.9366,2.855,2.8052,2.6975,2.613,2.5541,2.4862,2.426,2.3723,2.308,2.2459,2.188,2.1162,2.0645,0.0,0.0,0.0,0.0,0.0,0.0,0.0,0.0,0.0,0.0,0.0,2.3038,2.3382,2.3731,2.4266,2.5053,2.5136,2.5403,2.6063,2.6446,2.6833,2.7173,2.7916,2.8538,2.9053,2.9415,2.9748,3.0065,2.9905,2.9701,2.9441,2.8869,2.8374,2.815,2.7788,2.7513,2.7492,2.7098,2.6836,2.6845,2.6691,2.6618,2.6618,2.6618,2.6618,2.6618,2.6618,2.6646,2.6802,2.6875,2.694,2.7096,2.7142,2.7132,2.7132,2.7132,2.6912,2.6389,2.626,2.6178,3.491,3.4856,3.4355,3.4138,3.4064,3.3558,3.3259,3.3164,3.2648,3.2418,3.2418,3.2431,3.239,3.2309,3.2322,3.2268,3.2187,3.2187,3.2187,3.2187,3.2187,3.2187,3.2187,3.2187,3.2187,3.2187,3.2187,3.2182,3.215,3.215,3.215,3.2109,3.1945,3.1835,3.1767,3.1253,3.104,3.1161,3.0615,3.0133,2.976,2.901,2.8438,2.7984,2.7003,2.6256,2.5788,2.515,2.4477,2.381,2.3518,2.3218,2.2805,2.1914,2.1385,0.0,2.094,0.0,0.0,0.0,0.0,0.0,0.0,0.0,0.0,2.3062,2.3687,2.4526,2.4935,2.5395,2.5985,2.6216,2.6521,2.7006,2.7239,2.7599,2.8133,2.8604,2.9063,2.9585,2.9778,3.0048,3.0378,2.9854,2.9446,2.9425,2.8817,2.8266,2.8121,2.7672,2.7241,2.6999,2.6736,2.6646,2.6655,2.6664,2.671,2.6683,2.6793,2.6738,2.6784,2.6802,2.6866,2.7197,2.7279,2.7389,2.7738,2.7766,2.7766,2.7729,2.772,2.7527,2.694,2.6701,2.6664,3.5527,3.5513,3.5405,3.5364,3.531,3.4727,3.4198,3.3764,3.3623,3.3582,3.3582,3.3582,3.3335,3.2933,3.2925,3.2667,3.22,3.2187,3.2187,3.2187,3.2187,3.2187,3.2187,3.2187,3.2187,3.2187,3.2187,3.2109,3.1977,3.1977,3.1872,3.172,3.1683,3.1516,3.1179,0.0,0.0,0.0,3.0049,2.9767,2.9489,2.902,2.8504,2.8001,2.7236,0.0,2.567,2.5096,2.4581,2.4112,2.3643,0.0,0.0,0.0,0.0,0.0,0.0,0.0,0.0,0.0,0.0,0.0,2.3945,2.3852,2.3659,2.4243,2.5049,2.5961,2.603,2.6339,2.7246,2.7184,2.7283,2.7753,2.7828,2.8221,2.9085,2.9292,2.9602,3.024,3.036,3.0385,3.0366,3.0083,2.9698,2.9244,2.8691,2.813,2.7657,2.7323,2.6999,2.6745,2.6682,2.6637,2.6618,2.6903,2.7086,2.7123,2.738,2.7527,2.7527,2.7536,2.7555,2.7683,2.7711,2.7701,2.7802,2.7784,2.7839,2.7793,2.7802,2.7757,2.76,2.7316,2.7003,3.571,3.571,3.571,3.571,0.0,3.5378,3.5059,3.4767,3.4146,3.3908,3.3908,3.3908,3.3764,3.3498,3.3498,3.3317,3.3045,3.3032,3.3032,3.3032,3.3032,3.3045,3.3032,3.2938,3.2882,3.2896,3.2802,3.2707,3.2613,3.2594,3.248,3.2303,3.2195,3.199,3.1636,3.1106,3.0515,2.9966,2.9514,2.9229,2.9099,2.8803,2.8524,2.8239,2.7616,0.0,0.0,0.0,0.0,0.0,0.0,0.0,0.0,0.0,0.0,2.3046,2.3293,2.3449,2.3472,2.4113,2.4652,2.4916,2.5326,2.5397,2.5074,2.53,2.5855,2.6794,2.6809,2.7052,2.7755,2.772,2.7937,2.8614,2.8734,2.9052,2.9718,3.0046,3.0264,3.0435,3.0571,3.0561,3.024,2.9816,2.9406,2.8956,2.8291,2.7831,2.7695,2.7283,2.6973,2.693,2.7086,2.7206,2.7206,2.7343,2.75,2.7527,2.7665,2.7775,2.7784,2.7784,2.7858,2.8041,2.8105,2.8151,2.8353,2.839,2.839,2.839,2.8399,2.8312,2.8168,2.7673,2.7217,3.571,3.571,3.571,3.571,3.571,3.571,3.571,3.5622,0.0,0.0,0.0,3.4219,3.4165,3.407,3.4051,3.4016,3.3902,3.3869,3.3863,3.385,3.3811,3.3792,3.3792,3.3619,3.3554,3.3535,3.3341,3.3223,3.3204,3.3165,3.3027,3.281,3.2639,3.2447,3.2089,3.1095,3.0298,2.9767,2.9128,2.8784,2.8744,2.8578,2.851,2.851,2.7986,2.7511,2.7097,2.6564,2.5905,2.5103,2.505,2.4859,2.4476,2.4056,2.3791,2.3831,2.4216,2.4483,2.4476,2.5325,2.5895,2.5977,2.6386,2.6549,2.6341,2.6208,2.6486,2.7348,2.7424,2.761,2.809,2.8232,2.8592,2.9436,2.9578,2.9794,3.0275,3.0608,3.0722,3.0582,3.0608,3.0464,2.9994,2.9406,2.897,2.8693,2.8087,2.7596,2.7807,2.751,2.7225,2.7326,2.7527,2.7747,2.7793,2.7867,2.7903,2.7913,2.7977,2.8014,2.8014,2.8004,2.8151,2.8443,2.8489,2.8618,2.8893,2.892,2.8984,2.8984,2.8945,2.8836,2.8492,2.7885,2.7331,3.571,3.571,3.571,3.571,3.571,3.571,3.571,3.5676,3.5513,3.5445,3.5445,3.5445,3.5161,3.4666,3.4686,3.4395,3.3902,3.3715,3.3638,3.3619,3.3477,3.3393,3.338,3.336,3.3341,3.3334,3.3139,3.2949,3.2778,3.2566,3.2334,3.218,3.2107,3.1898,3.1505,3.0795,3.0167,2.9626,2.9074,2.8724,2.855,2.8498,2.851,2.8486,2.7986,2.7491,2.7097,2.6607,2.608,2.562,2.5612,2.5566,2.5478,2.5387,2.5375,2.5375,2.5444,2.5497,2.5509,2.6037,2.6597,2.7023,2.7143,2.7094,2.6849,2.6987,2.7326,2.7827,2.7904,2.8134,2.8627,2.9008,2.9292,2.951,2.986,3.0286,3.072,3.0676,3.064,3.0724,3.0359,3.001,2.9659,2.9162,2.8806,2.8758,2.831,2.7901,2.7864,2.7741,2.7703,2.773,2.7747,2.7784,2.7913,2.8124,2.8269,2.8335,2.8592,2.8739,2.8709,2.8739,2.8775,2.8874,2.8886,2.8902,2.8984,2.8984,2.8984,2.8955,2.8776,2.8576,2.8436,2.7899,2.7374,3.571,3.571,3.571,3.571,3.571,3.571,3.571,3.5703,3.5568,3.5602,3.569,3.571,3.548,3.5136,3.5116,3.4908,3.4533,3.4433,3.4426,3.4393,3.4326,3.4206,3.4039,3.3938,3.383,3.3741,3.3504,3.3327,3.3245,3.3122,3.2915,3.2596,3.2357,3.1913,3.1313,3.0973,3.0516,2.9878,2.9326,2.8887,2.8522,2.851,2.851,2.851,2.8139,2.7842,2.7536,2.7171,2.6697,2.6148,2.6137,2.6003,2.5708,2.5696,2.5696,2.5708,2.5988,2.6137,2.6137,2.6861,2.7297,2.7321,2.7772,2.7888,2.7536,2.76,2.7893,2.8375,2.8429,2.8649,2.9119,2.9381,2.9685,3.0209,3.0461,3.0692,3.0976,3.0946,3.0824,3.0604,3.0245,2.9827,2.9396,2.9023,2.8746,2.8689,2.8499,2.8369,2.8172,2.8307,2.8362,2.8197,2.8307,2.8445,2.8454,2.8601,2.87,2.8748,2.8856,2.8975,2.8984,2.8984,2.8984,2.8984,2.8984,2.8984,2.8984,2.8984,2.8925,2.8755,2.8636,2.8427,2.805,2.759,2.7267,3.6035,3.5893,3.5893,3.5791,3.5642,3.5642,3.5588,3.5548,3.5399,3.5419,3.5548,3.5568,3.548,3.5338,3.5338,3.5256,3.5093,3.499,3.4949,3.4928,3.4825,3.4681,3.4481,3.4335,3.4168,3.3992,3.3704,3.3577,3.3556,3.345,3.327,3.293,3.2519,3.1981,3.1381,3.1338,3.0955,3.0299,2.989,2.934,2.8715,2.8563,2.851,2.849,2.8287,2.8099,2.7913,2.7647,2.7235,2.6708,2.6654,2.6482,2.6075,2.6029,2.6029,2.6063,2.6427,2.6711,2.6881,2.7665,2.8004,2.768,2.8265,2.8555,2.8224,2.8177,2.8353,2.8715,2.8891,2.9108,2.9423,2.9731,3.01,3.081,3.1007,3.1077,3.118,3.1152,3.092,3.0401,3.001,2.9621,2.927,2.8964,2.8757,2.864,2.8727,2.8743,2.8621,2.883,2.8819,2.87,2.8821,2.895,2.8984,2.8966,2.8996,2.8984,2.8975,2.8984,2.8984,2.8984,2.8984,2.8984,2.8895,2.8865,2.8865,2.8806,2.8657,2.8457,2.8268,2.805,2.7539,2.7207,2.6973,3.7005,3.6551,3.6524,3.6075,3.546,3.5433,3.5331,3.5188,3.5147,3.5134,3.5134,3.5154,3.5134,3.5134,3.5113,3.5072,3.5031,3.4647,3.446,3.4431,3.4021,3.3818,3.3831,3.3776,3.3768,3.367,3.3334,3.3133,3.3133,3.2723,3.2519,3.2431,3.2169,3.2013,3.1896,3.1731,3.139,3.0862,3.0768,3.0263,2.9268,2.8731,2.851,2.851,2.8299,2.8111,2.7913,2.7644,2.7389,2.7162,2.7119,2.7107,2.705,2.7061,2.7041,2.7061,2.7119,2.7357,2.7826,2.8333,2.861,2.8589,2.8645,2.8733,2.8684,2.8704,2.8725,2.8891,2.9208,2.9436,2.9532,3.022,3.0734,3.0905,3.1254,3.1447,3.1219,3.0983,3.062,3.0099,2.9611,2.9229,2.9267,2.892,2.863,2.8755,2.8866,2.8945,2.8895,2.892,2.9005,2.892,2.9005,2.8975,2.8984,2.8984,2.8984,2.8984,2.8984,2.8984,2.8955,2.8955,2.8984,2.8776,2.8725,2.8546,2.8487,2.8328,2.814,2.805,2.7801,2.7491,2.7185,2.6882,2.6662,3.7286,3.6937,3.6951,3.6461,3.5757,3.5696,3.5475,3.5119,3.4962,3.4825,3.4701,3.4556,3.4577,3.4667,3.4667,3.4543,3.4251,3.405,3.3979,3.3966,3.3776,3.3641,3.3513,3.3398,3.3292,3.3086,3.281,3.268,3.2627,3.2335,3.2169,3.2147,3.1937,3.1827,3.1815,3.1739,3.1585,3.1358,3.1045,3.0684,3.0215,2.94,2.8959,2.8915,2.8357,2.799,2.7861,2.7525,2.7281,2.721,2.719,2.719,2.719,2.719,2.7348,2.7635,2.7943,2.8163,2.839,2.8906,2.9031,2.8724,2.9003,2.9078,2.8839,2.9042,2.9206,2.9228,2.9392,2.9709,3.0256,3.0679,3.1007,3.1244,3.1356,3.1245,3.0972,3.0739,3.0349,2.9837,2.9603,2.9359,2.9139,2.8856,2.8746,2.8881,2.8961,2.8975,2.8984,2.8984,2.8984,2.8984,2.8984,2.8984,2.8984,2.8984,2.8984,2.8984,2.8984,2.8955,2.8755,2.8696,2.8657,2.8469,2.8328,2.8208,2.8199,2.811,2.796,2.7741,2.7289,2.6926,2.6822,2.654,2.6297,3.7634,3.7343,3.7182,3.6698,3.6064,3.5979,3.5711,3.5273,3.4905,3.4625,3.443,3.414,3.4055,3.4126,3.4189,3.4008,3.3747,3.3641,3.3577,3.3535,3.345,3.33,3.3133,3.2961,3.281,3.2615,3.241,3.2257,3.2191,3.2038,3.1915,3.1893,3.1749,3.1705,3.1705,3.1705,3.1705,3.1669,3.1286,3.1117,3.0985,3.0227,2.9665,2.9488,2.8812,2.8398,2.8304,2.7922,2.7686,2.7612,2.7612,2.7612,2.7612,2.7612,2.7773,2.8172,2.8654,2.8907,2.8919,2.9401,2.9464,2.9026,2.9295,2.9357,2.915,2.9305,2.9598,2.9906,2.9882,3.022,3.0734,3.1018,3.1233,3.1549,3.1347,3.1101,3.0827,3.0505,3.014,2.9748,2.9648,2.9518,2.9122,2.9003,2.9026,2.9011,2.9005,2.8984,2.8984,2.8984,2.8984,2.8984,2.8984,2.8984,2.8984,2.8984,2.8984,2.8955,2.8955,2.8755,2.8517,2.8457,2.8358,2.8199,2.802,2.7861,2.7831,2.7801,2.7629,2.7297,2.6904,2.654,2.6479,2.6167,2.587,3.8216,3.7608,3.7049,3.6706,3.6445,3.6197,3.5965,3.5643,3.4963,3.4636,3.4525,3.402,3.3632,3.35,3.3671,3.3738,3.3662,3.3462,3.3283,3.3124,3.2874,3.2636,3.2453,3.2431,3.2422,3.2388,3.2147,3.1937,3.1771,3.1727,3.1705,3.1727,3.1705,3.1705,3.1705,3.1705,3.1705,3.1693,3.1645,3.1657,3.1585,3.1081,3.0564,3.0146,2.9806,2.9512,2.9313,2.9114,2.8867,2.8642,2.8563,2.8586,2.8597,2.8609,2.8632,2.8712,2.9171,2.9458,2.9515,2.986,2.992,2.9521,2.9475,2.9502,2.9431,2.9512,2.9882,3.0723,3.0756,3.0843,3.0963,3.1265,3.1505,3.1531,3.1347,3.1086,3.0801,3.035,2.999,2.9789,2.9585,2.943,2.9289,2.9385,2.9229,2.9085,2.8984,2.8984,2.8984,2.8984,2.8984,2.8984,2.8984,2.8984,2.8984,2.8925,2.8925,2.8865,2.8696,2.8496,2.8397,2.8268,2.808,2.79,2.768,2.756,2.75,2.7289,2.7025,2.6783,2.664,2.6396,2.6053,2.5809,2.5472,3.8302,3.7797,3.7415,3.6912,3.6385,3.6273,3.5977,3.5531,3.5247,3.5025,3.4866,3.4508,3.3998,3.3439,3.3421,3.3252,3.3059,3.284,3.2714,3.2627,3.2553,3.2453,3.24,3.2247,3.2147,3.2103,3.1915,3.1771,3.1705,3.1705,3.1705,3.1705,3.1705,3.1705,3.1705,3.1705,3.1705,3.1705,3.1705,3.1705,3.1705,3.1502,3.1298,3.1093,3.0267,2.9676,2.9397,2.9196,2.896,2.8689,2.8689,2.8689,2.8723,2.9022,2.9217,2.9263,2.9688,2.9963,2.9975,3.0112,2.9988,2.9577,2.9508,2.9535,2.9566,2.9773,3.022,3.0788,3.1203,3.1345,3.1378,3.1505,3.1527,3.1347,3.1101,3.0853,3.0569,3.0285,3.0047,2.9819,2.9541,2.9365,2.9369,2.9307,2.9124,2.9014,2.8984,2.8984,2.8984,2.8984,2.8984,2.8984,2.8984,2.8984,2.8984,2.8776,2.8666,2.8576,2.8427,2.8118,2.793,2.7801,2.7612,2.7457,2.7267,2.7116,2.7017,2.6775,2.6479,2.6297,2.6183,2.5908,2.5541,2.5226,2.488,3.7929,3.7654,3.7459,3.7065,3.658,3.6476,3.6167,3.5719,3.5463,3.5206,3.4977,3.4632,3.4152,3.3684,3.3435,3.3228,3.2956,3.2594,3.2344,3.2279,3.2257,3.2247,3.2169,3.1994,3.1915,3.1893,3.1783,3.1705,3.1705,3.1705,3.1705,3.1705,3.1705,3.1705,3.1705,3.1705,3.1705,3.1705,3.1705,3.1705,3.1705,3.1705,3.1705,3.1577,3.0845,3.025,2.9924,2.9796,2.9523,2.9238,2.9194,2.9183,2.924,2.9527,2.9722,2.9768,3.0032,3.0216,3.0216,3.0216,3.0034,2.9703,2.9711,2.9747,2.9866,3.0204,3.0614,3.1072,3.1364,3.1593,3.1593,3.1593,3.1476,3.123,3.0957,3.0646,3.0318,3.0122,2.9988,2.9802,2.9564,2.9435,2.9434,2.9194,2.9035,2.8984,2.8984,2.8984,2.8984,2.8984,2.8984,2.8984,2.8984,2.8925,2.8776,2.8537,2.8487,2.8427,2.808,2.7749,2.753,2.7371,2.719,2.7004,2.683,2.667,2.6479,2.6236,2.6014,2.58,2.5625,2.5388,2.5011,2.4633,2.4324,3.7132,3.7108,3.7072,3.7026,3.6845,3.6646,3.6519,3.6157,3.5535,3.5126,3.49,3.4328,3.4156,3.3941,3.3722,3.3583,3.3361,3.2775,3.236,3.2113,3.204,3.1915,3.1749,3.1761,3.1727,3.1727,3.1705,3.1705,3.1705,3.1705,3.1705,3.1705,3.1705,3.1705,3.1705,3.1705,3.1705,3.1705,3.1705,3.1705,3.1705,3.1705,3.1705,3.1705,3.1599,3.1342,3.0935,3.089,3.0608,3.0203,3.0124,3.0193,3.0067,3.0124,3.0193,3.0158,3.0193,3.0216,3.0216,3.0216,3.0114,2.9976,3.0084,3.0251,3.052,3.074,3.1029,3.1433,3.1549,3.1593,3.1593,3.1578,3.145,3.1193,3.0931,3.0605,3.0145,2.9896,2.9791,2.9802,2.9628,2.9492,2.9411,2.9213,2.9014,2.8984,2.8984,2.8984,2.8984,2.8984,2.8984,2.8984,2.8925,2.8806,2.8537,2.8277,2.8307,2.8268,2.781,2.744,2.7267,2.7077,2.6835,2.664,2.6214,2.6053,2.5961,2.5709,2.5433,2.5218,2.5042,2.4857,2.4448,2.4108,2.3883,3.6934,3.6617,3.6617,3.6381,3.6086,3.5991,3.5895,3.5847,3.5543,3.541,3.5278,3.4988,3.4625,3.4285,3.399,3.3703,3.3376,3.3118,3.278,3.2362,3.1976,3.1807,3.1751,3.1717,3.1705,3.1705,3.1705,3.1705,3.1705,3.1705,3.1705,3.1705,3.1705,3.1705,3.1705,3.1705,3.1705,3.1705,3.1705,3.1705,3.1705,3.1705,3.1705,3.1705,3.1705,3.1528,3.1229,3.1062,3.0826,3.0476,3.0306,3.0216,3.0216,3.0216,3.0216,3.0216,3.0216,3.0216,3.0216,3.0216,3.0274,3.0317,3.0275,3.0507,3.0953,3.097,3.1127,3.1516,3.1593,3.1593,3.1567,3.1424,3.123,3.0931,3.0864,3.0611,3.0224,3.0056,2.9991,2.9871,2.967,2.9431,2.9213,2.9014,2.9014,2.8984,2.8984,2.8984,2.8984,2.8984,2.8984,2.8984,2.8836,2.8657,2.8388,2.805,2.787,2.7779,2.7448,2.7168,2.6995,2.6692,2.6479,2.6114,2.5717,2.5441,2.5349,2.5157,2.4849,2.4602,2.4448,2.417,2.386,2.3611,2.3417,3.6465,3.6097,3.6109,3.5931,3.5633,3.5609,3.5524,3.5464,3.544,3.5368,3.5271,3.5114,3.4872,3.4546,3.4354,3.4162,3.3849,3.3669,3.3357,3.302,3.2549,3.2212,3.1996,3.1755,3.1705,3.1705,3.1705,3.1705,3.1705,3.1705,3.1705,3.1705,3.1705,3.1705,3.1705,3.1705,3.1705,3.1705,3.1705,3.1705,3.1705,3.1705,3.1705,3.1705,3.1705,3.1594,3.1439,3.1151,3.0871,3.0623,3.0329,3.0216,3.0216,3.0216,3.0216,3.0216,3.0216,3.0216,3.0239,3.04,3.056,3.0706,3.0762,3.0948,3.1329,3.1254,3.1334,3.1527,3.1593,3.1593,3.1553,3.1347,3.1086,3.0827,3.0724,3.0527,3.0286,3.002,2.993,2.978,2.9538,2.9242,2.9073,2.8984,2.8984,2.8984,2.8984,2.8984,2.8984,2.8984,2.8984,2.8925,2.8725,2.8507,2.8298,2.79,2.7461,2.7259,2.7017,2.6874,2.6761,2.6336,2.6,2.5441,2.5011,2.4787,2.4695,2.451,2.4255,2.4077,2.3852,2.3635,2.3386,2.3199,2.2981,3.5812,3.5596,3.5572,3.5572,3.5524,3.5524,3.5368,3.5199,3.5175,3.5054,3.486,3.4848,3.4811,3.4775,3.4715,3.4679,3.4691,3.4282,3.4054,3.3898,3.3549,3.3104,3.2551,3.2164,3.1984,3.1946,3.1862,3.1801,3.1827,3.1753,3.1705,3.1705,3.1705,3.1705,3.1705,3.1705,3.1705,3.1705,3.1705,3.1705,3.1705,3.1705,3.1705,3.1705,3.1705,3.1683,3.1594,3.1241,3.086,3.0578,3.0329,3.0216,3.0216,3.0216,3.0216,3.0216,3.0216,3.0273,3.0365,3.0663,3.1019,3.1213,3.141,3.1737,3.1739,3.1624,3.1527,3.1582,3.1593,3.1593,3.1542,3.1322,3.1045,3.0777,3.0538,3.0446,3.0379,2.9821,2.9669,2.9748,2.94,2.8984,2.8984,2.8984,2.8984,2.8984,2.8984,2.8984,2.8984,2.8984,2.8984,2.8836,2.8576,2.8259,2.8011,2.7689,2.7259,2.6956,2.6692,2.6479,2.6305,2.5847,2.5418,2.4857,2.4386,2.4201,2.4015,2.3883,2.3697,2.351,2.3324,2.3137,2.295,2.2769,2.2543,3.5548,3.532,3.5295,3.5199,3.5017,3.5005,3.4969,3.4896,3.492,3.4884,3.4799,3.4799,3.4799,3.4799,3.4799,3.4799,3.4751,3.4655,3.4595,3.4583,3.4487,3.3897,3.3236,3.2935,3.285,3.279,3.2453,3.2286,3.2273,3.1948,3.1777,3.1705,3.1801,3.1753,3.1705,3.1741,3.1705,3.1705,3.1705,3.1705,3.1705,3.1705,3.1705,3.1705,3.1705,3.1705,3.1673,3.1263,3.077,3.0352,3.0238,3.0216,3.0216,3.0216,3.0239,3.0239,3.0239,3.0434,3.0744,3.0939,3.1352,3.1994,3.1841,3.1872,3.2255,3.1847,3.1655,3.1593,3.1593,3.1593,3.1527,3.12,3.0794,3.0417,3.0417,3.0471,3.0401,3.0103,2.9788,2.9815,2.9361,2.9073,2.8984,2.8984,2.8984,2.8984,2.8984,2.8984,2.8984,2.8984,2.8984,2.8627,2.8328,2.7981,2.7672,2.7388,2.7056,2.6722,2.6388,2.6053,2.5717,2.5257,2.4826,2.4324,2.3922,2.3673,2.3479,2.3324,2.3137,2.295,2.2731,2.2543,2.2425,2.2268,2.2111,3.5271,3.5054,3.503,3.4957,3.4799,3.4799,3.4799,3.4799,3.4799,3.4799,3.4799,3.4799,3.4799,3.4799,3.4799,3.4799,3.4799,3.4799,3.4787,3.4787,3.4763,3.4306,3.3717,3.3428,3.3284,3.3283,3.2984,3.2851,3.2791,3.2513,3.2393,3.2405,3.2369,3.226,3.2068,3.2032,3.1912,3.1743,3.1705,3.1705,3.1705,3.1705,3.1705,3.1705,3.1705,3.1661,3.1506,3.1174,3.0793,3.0454,3.0284,3.0216,3.0216,3.0216,3.0319,3.048,3.0526,3.079,3.1249,3.1502,3.188,3.2324,3.2182,3.2227,3.2289,3.1961,3.1593,3.1593,3.1593,3.1593,3.1534,3.1288,3.0852,3.0462,3.0525,3.0608,3.0461,3.0113,2.9854,2.9656,2.9331,2.8984,2.8984,2.8984,2.8984,2.8984,2.8984,2.8984,2.8984,2.8984,2.8856,2.8507,2.8178,2.7861,2.7491,2.7177,2.6753,2.6388,2.577,2.5502,2.5165,2.4664,2.4263,2.386,2.3456,2.3144,2.3019,2.2825,2.2581,2.2393,2.2142,2.2048,2.1954,2.1898,2.1734,3.5017,3.4799,3.4799,3.4799,3.4799,3.4799,3.4799,3.4799,3.4799,3.4799,3.4799,3.4799,3.4799,3.4799,3.4799,3.4799,3.4799,3.4799,3.4799,3.4799,3.4763,3.4511,3.4102,3.3778,3.3645,3.3573,3.3428,3.3356,3.3308,3.3272,3.3236,3.3128,3.3164,3.302,3.2659,3.2575,3.2333,3.2068,3.2044,3.1972,3.1912,3.1863,3.1827,3.1705,3.1705,3.1617,3.1441,3.1233,3.1022,3.0716,3.0386,3.0216,3.0227,3.0239,3.0514,3.0881,3.1042,3.1341,3.1801,3.2192,3.2502,3.2576,3.2569,3.2507,3.2392,3.1961,3.1593,3.1593,3.1593,3.1596,3.1594,3.1542,3.1228,3.0773,3.0912,3.0852,3.0333,3.0025,2.9804,2.9499,2.9183,2.9044,2.8984,2.8984,2.8984,2.8984,2.8984,2.8984,2.8955,2.8865,2.8687,2.8388,2.808,2.7771,2.7379,2.6995,2.6471,2.5984,2.5187,2.4726,2.451,2.4108,2.3759,2.3386,2.3082,2.2801,2.2581,2.2362,2.2111,2.1985,2.1859,2.1734,2.1639,2.1583,2.1457,3.4848,3.4799,3.4799,3.4799,3.4799,3.4799,3.4799,3.4799,3.4799,3.4799,3.4799,3.4799,3.4799,3.4799,3.4799,3.4799,3.4799,3.4799,3.4799,3.4799,3.4799,3.4751,3.4607,3.4426,3.4438,3.433,3.4018,3.3862,3.3802,3.3573,3.3308,3.3344,3.344,3.3248,3.3152,3.3116,3.3092,3.297,3.2922,3.267,3.2358,3.2298,3.2164,3.1862,3.1789,3.1731,3.1702,3.1778,3.1731,3.134,3.0743,3.0365,3.0399,3.064,3.0928,3.1134,3.1456,3.1847,3.226,3.249,3.2709,3.3015,3.2719,3.2493,3.2468,3.1961,3.1644,3.1593,3.1578,3.1591,3.1562,3.187,3.1592,3.1197,3.1286,3.1146,3.0237,2.9924,2.9795,2.9509,2.9213,2.8984,2.8984,2.8984,2.8984,2.8984,2.8984,2.8984,2.8895,2.8806,2.8537,2.8268,2.7921,2.759,2.7116,2.6601,2.5984,2.5464,2.4695,2.4015,2.3829,2.3673,2.3355,2.3043,2.2738,2.2487,2.2205,2.1954,2.1709,2.1646,2.1544,2.1418,2.1324,2.1267,2.1267,3.4799,3.4799,3.4799,3.4799,3.4799,3.4799,3.4799,3.4799,3.4799,3.4799,3.4799,3.4799,3.4799,3.4799,3.4799,3.4799,3.4799,3.4799,3.4799,3.4799,3.4799,3.4799,3.4799,3.4799,3.4787,3.4751,3.451,3.439,3.4294,3.4126,3.403,3.3982,3.3994,3.3874,3.3657,3.3621,3.3477,3.3284,3.3284,3.314,3.2911,3.2863,3.2791,3.2501,3.2441,3.2453,3.2503,3.243,3.2331,3.1983,3.1449,3.102,3.0985,3.1215,3.1444,3.1731,3.195,3.2375,3.2732,3.2892,3.2982,3.3271,3.2919,3.2692,3.2454,3.2063,3.1746,3.1618,3.1585,3.1594,3.1534,3.1923,3.179,3.1383,3.1516,3.1218,3.0245,2.9902,2.9725,2.94,2.9094,2.9014,2.8984,2.8984,2.8984,2.8984,2.8984,2.8984,2.8895,2.8746,2.8418,2.811,2.7762,2.734,2.6844,2.6236,2.5433,2.488,2.4232,2.3611,2.3206,2.3113,2.3012,2.2699,2.2393,2.2104,2.1828,2.1576,2.1393,2.133,2.126,2.1134,2.1102,2.1166,2.1166,3.4799,3.4799,3.4799,3.4799,3.4799,3.4799,3.4799,3.4799,3.4799,3.4799,3.4799,3.4799,3.4799,3.4799,3.4799,3.4799,3.4799,3.4799,3.4799,3.4799,3.4799,3.4799,3.4799,3.4799,3.4799,3.4799,3.4739,3.4739,3.4739,3.4787,3.4595,3.4739,3.4751,3.4475,3.4174,3.4102,3.3994,3.3729,3.3705,3.3561,3.3428,3.3392,3.3344,3.3152,3.3128,3.3151,3.3129,3.3086,3.2936,3.263,3.2475,3.2283,3.2068,3.195,3.2054,3.2467,3.2548,3.2823,3.3111,3.3249,3.3247,3.3281,3.3031,3.2768,3.2493,3.2179,3.1874,3.175,3.1698,3.1741,3.1678,3.2093,3.1947,3.1495,3.1586,3.114,3.0245,2.9892,2.9636,2.9163,2.9044,2.9014,2.8984,2.8984,2.8984,2.8984,2.8984,2.8955,2.8865,2.8657,2.8298,2.7969,2.762,2.7099,2.6571,2.5939,2.5103,2.451,2.3891,2.3331,2.2832,2.2675,2.2574,2.2324,2.2041,2.1758,2.1544,2.1362,2.1204,2.1102,2.1102,2.1102,2.1102,2.1102,2.1102,3.4799,3.4799,3.4799,3.4799,3.4799,3.4799,3.4799,3.4799,3.4799,3.4799,3.4799,3.4799,3.4799,3.4799,3.4799,3.4799,3.4799,3.4799,3.4799,3.4799,3.4799,3.4799,3.4799,3.4799,3.4799,3.4799,3.4799,3.4799,3.4799,3.4799,3.4799,3.4799,3.4799,3.4691,3.4655,3.4631,3.4547,3.4366,3.4366,3.4222,3.397,3.3874,3.3742,3.3501,3.3477,3.344,3.3477,3.3646,3.3625,3.3254,3.3533,3.3428,3.3004,3.2618,3.249,3.2605,3.2915,3.3143,3.3258,3.3281,3.3281,3.3231,3.3092,3.2804,3.2493,3.2215,3.1958,3.1859,3.2018,3.2179,3.2094,3.2438,3.2344,3.1936,3.1611,3.1267,3.0274,2.9863,2.9627,2.9103,2.9014,2.8984,2.8984,2.8984,2.8984,2.8984,2.8984,2.8925,2.8845,2.8537,2.8118,2.7818,2.7517,2.6904,2.6297,2.5594,2.4857,2.4324,2.3767,2.3199,2.2731,2.2386,2.2135,2.1891,2.1734,2.1544,2.133,2.1172,2.1141,2.1102,2.1102,2.1102,2.1102,2.1102,2.1102,3.4799,3.4799,3.4799,3.4799,3.4799,3.4799,3.4799,3.4799,3.4799,3.4799,3.4799,3.4799,3.4799,3.4799,3.4799,3.4799,3.4799,3.4799,3.4799,3.4799,3.4799,3.4799,3.4799,3.4799,3.4799,3.4799,3.4799,3.4799,3.4799,3.4799,3.4799,3.4799,3.4799,3.4799,3.4787,3.4775,3.4799,3.4799,3.4787,3.4691,3.4426,3.4402,3.4234,3.4138,3.4042,3.4066,3.4138,3.4246,3.4234,3.3978,3.4008,3.3854,3.3524,3.3174,3.2904,3.2925,3.3132,3.3281,3.3281,3.3281,3.3281,3.3281,3.3156,3.2894,3.2606,3.2328,3.2159,3.2141,3.2149,3.244,3.2552,3.2785,3.25,3.2011,3.1787,3.1179,3.0304,2.9981,2.9568,2.9124,2.9014,2.8984,2.8984,2.8984,2.8984,2.8984,2.8984,2.8895,2.8815,2.8418,2.7999,2.7509,2.7146,2.654,2.5892,2.5187,2.4641,2.4139,2.3549,2.3012,2.2543,2.2167,2.1765,2.1457,2.1299,2.1292,2.1229,2.1102,2.1102,2.1102,2.1102,2.1102,2.1102,2.1102,2.1102,3.4799,3.4799,3.4799,3.4799,3.4799,3.4799,3.4799,3.4799,3.4799,3.4799,3.4799,3.4799,3.4799,3.4799,3.4799,3.4799,3.4799,3.4799,3.4799,3.4799,3.4799,3.4799,3.4799,3.4799,3.4799,3.4799,3.4799,3.4799,3.4799,3.4799,3.4799,3.4799,3.4799,3.4799,3.4799,3.4799,3.4799,3.4799,3.4799,3.4799,3.4799,3.4799,3.4799,3.4799,3.4799,3.4751,3.4679,3.4703,3.4581,3.4361,3.4175,3.3977,3.3704,3.3419,3.3306,3.3281,3.3281,3.3281,3.3281,3.3281,3.3281,3.3281,3.3281,3.3019,3.2749,3.2574,3.2497,3.2426,3.2678,3.2721,3.2852,3.3008,3.2625,3.2019,3.173,3.1392,3.0392,2.9833,2.9607,2.9281,2.9073,2.8984,2.8984,2.8984,2.8984,2.8984,2.8984,2.8815,2.8666,2.8328,2.784,2.7259,2.6714,2.6136,2.5464,2.4787,2.4324,2.3953,2.3324,2.2699,2.2261,2.1891,2.1513,2.1235,2.1172,2.1166,2.1102,2.1102,2.1102,2.1102,2.1102,2.1102,2.1102,2.1102,2.1102,3.4799,3.4799,3.4799,3.4799,3.4799,3.4799,3.4799,3.4799,3.4799,3.4799,3.4799,3.4799,3.4799,3.4799,3.4799,3.4799,3.4799,3.4799,3.4799,3.4799,3.4799,3.4799,3.4799,3.4799,3.4799,3.4799,3.4799,3.4799,3.4799,3.4799,3.4799,3.4799,3.4799,3.4799,3.4799,3.4799,3.4799,3.4799,3.4799,3.4799,3.4799,3.4799,3.4799,3.4799,3.4799,3.4799,3.4799,3.4799,3.4677,3.4457,3.4211,3.3977,3.3704,3.3431,3.3306,3.3281,3.3281,3.3281,3.3281,3.3281,3.3281,3.3281,3.3281,3.3131,3.2915,3.2755,3.2653,3.245,3.3049,3.3301,3.3108,3.3295,3.283,3.2264,3.1787,3.1121,3.0245,2.9892,2.9607,2.9252,2.9014,2.8984,2.8984,2.8984,2.8984,2.8984,2.8955,2.8755,2.8457,2.8089,2.7569,2.6896,2.6501,2.5923,2.5218,2.451,2.4108,2.379,2.3074,2.2449,2.2142,2.1796,2.145,2.1229,2.1134,2.1102,2.1102,2.1102,2.1102,2.1102,2.1102,2.1102,2.1102,2.1102,2.1102,3.4799,3.4799,3.4799,3.4799,3.4799,3.4799,3.4799,3.4799,3.4799,3.4799,3.4799,3.4799,3.4799,3.4799,3.4799,3.4799,3.4799,3.4799,3.4799,3.4799,3.4799,3.4799,3.4799,3.4799,3.4799,3.4799,3.4799,3.4799,3.4799,3.4799,3.4799,3.4799,3.4799,3.4799,3.4799,3.4799,3.4799,3.4799,3.4799,3.4799,3.4799,3.4799,3.4799,3.4799,3.4799,3.4799,3.4799,3.4799,3.475,3.4592,3.4396,3.4162,3.3915,3.3679,3.3481,3.3281,3.3281,3.3281,3.3281,3.3281,3.3281,3.3281,3.329,3.3231,3.3053,3.2927,3.2994,3.3196,3.353,3.3566,3.3382,3.3497,3.2825,3.2238,3.1816,3.1005,3.0304,3.0039,2.9715,2.9331,2.8984,2.8984,2.8984,2.8984,2.8984,2.8984,2.8895,2.8716,2.8268,2.7698,2.7116,2.6441,2.6136,2.58,2.5095,2.4386,2.4015,2.3604,2.2793,2.2261,2.208,2.1765,2.1387,2.1197,2.1102,2.1102,2.1102,2.1102,2.1102,2.1102,2.1102,2.1102,2.1102,2.1102,2.1102,3.4799,3.4799,3.4799,3.4799,3.4799,3.4799,3.4799,3.4799,3.4799,3.4799,3.4799,3.4799,3.4799,3.4799,3.4799,3.4799,3.4799,3.4799,3.4799,3.4799,3.4799,3.4799,3.4799,3.4799,3.4799,3.4799,3.4799,3.4799,3.4799,3.4799,3.4799,3.4799,3.4799,3.4799,3.4799,3.4799,3.4799,3.4799,3.4799,3.4799,3.4799,3.4799,3.4799,3.4799,3.4799,3.4799,3.4799,3.4799,3.4799,3.4738,3.4506,3.4298,3.4126,3.3853,3.363,3.3431,3.3381,3.3281,3.3281,3.3281,3.3281,3.3281,3.3302,3.3289,3.3335,3.3127,3.3243,3.378,3.395,3.3869,3.3687,3.3597,3.2934,3.2305,3.1787,3.0947,3.0245,3.001,2.9686,2.9252,2.8984,2.8984,2.8984,2.8984,2.8984,2.8984,2.8865,2.8648,2.8148,2.7517,2.6874,2.6288,2.6106,2.5678,2.4787,2.4201,2.3891,2.3425,2.2637,2.2198,2.2017,2.167,2.1229,2.1102,2.1102,2.1102,2.1102,2.1102,2.1102,2.1102,2.1102,2.1102,2.1102,2.1102,2.1102,3.4799,3.4799,3.4799,3.4799,3.4799,3.4799,3.4799,3.4799,3.4799,3.4799,3.4799,3.4799,3.4799,3.4799,3.4799,3.4799,3.4799,3.4799,3.4799,3.4799,3.4799,3.4799,3.4799,3.4799,3.4799,3.4799,3.4799,3.4799,3.4799,3.4799,3.4799,3.4799,3.4799,3.4799,3.4799,3.4799,3.4799,3.4799,3.4799,3.4799,3.4799,3.4799,3.4799,3.4799,3.4799,3.4799,3.4799,3.4799,3.4799,3.4787,3.458,3.4409,3.4273,3.4014,3.3767,3.3605,3.3456,3.3356,3.3306,3.3281,3.3281,3.3281,3.3348,3.3465,3.3619,3.3765,3.3948,3.4146,3.429,3.4064,3.379,3.3484,3.303,3.2277,3.1672,3.1034,3.0392,3.001,2.9656,2.9192,2.8984,2.8984,2.8984,2.8984,2.8984,2.8984,2.8677,2.8469,2.8089,2.7487,2.6844,2.6349,2.6167,2.5556,2.4479,2.4015,2.3829,2.3331,2.2574,2.2261,2.2073,2.1632,2.1102,2.1102,2.1102,2.1102,2.1102,2.1102,2.1102,2.1102,2.1102,2.1102,2.1102,2.1102,2.1102,3.4799,3.4799,3.4799,3.4799,3.4799,3.4799,3.4799,3.4799,3.4799,3.4799,3.4799,3.4799,3.4799,3.4799,3.4799,3.4799,3.4799,3.4799,3.4799,3.4799,3.4799,3.4799,3.4799,3.4799,3.4799,3.4799,3.4799,3.4799,3.4799,3.4799,3.4799,3.4799,3.4799,3.4799,3.4799,3.4799,3.4799,3.4799,3.4799,3.4799,3.4799,3.4799,3.4799,3.4799,3.4799,3.4799,3.4799,3.4799,3.4799,3.4775,3.4689,3.4592,3.4433,3.42,3.399,3.3767,3.3605,3.3456,3.3331,3.3306,3.3281,3.3386,3.3568,3.3833,3.404,3.4211,3.4421,3.4582,3.4548,3.4289,3.3738,3.354,3.3172,3.2248,3.1556,3.1034,3.0509,3.0069,2.9686,2.9213,2.9044,2.8984,2.8984,2.8984,2.8984,2.8955,2.8618,2.8289,2.793,2.7487,2.6844,2.6349,2.6167,2.5464,2.4386,2.4046,2.386,2.3206,2.255,2.2292,2.2041,2.1513,2.1102,2.1102,2.1102,2.1102,2.1102,2.1102,2.1102,2.1102,2.1102,2.1102,2.1102,2.1102,2.1102,3.4799,3.4799,3.4799,3.4799,3.4799,3.4799,3.4799,3.4799,3.4799,3.4799,3.4799,3.4799,3.4799,3.4799,3.4799,3.4799,3.4799,3.4799,3.4799,3.4799,3.4799,3.4799,3.4799,3.4799,3.4799,3.4799,3.4799,3.4799,3.4799,3.4799,3.4799,3.4799,3.4799,3.4799,3.4799,3.4799,3.4799,3.4799,3.4799,3.4799,3.4799,3.4799,3.4799,3.4799,3.4799,3.4799,3.4799,3.4799,3.4799,3.4799,3.475,3.4702,3.4555,3.4384,3.4212,3.399,3.3779,3.3605,3.3456,3.3331,3.3386,3.3568,3.3763,3.4162,3.4547,3.4739,3.4822,3.5013,3.4819,3.4384,3.3766,3.3568,3.3058,3.2133,3.1845,3.1354,3.0567,3.001,2.9656,2.9272,2.9153,2.8984,2.8984,2.8984,2.8984,2.8865,2.8469,2.8199,2.796,2.7487,2.6852,2.6419,2.6106,2.528,2.4355,2.4139,2.386,2.3206,2.2613,2.2261,2.1915,2.1418,2.1141,2.1102,2.1102,2.1102,2.1102,2.1102,2.1102,2.1102,2.1102,2.1102,2.1102,2.1102,2.1102,3.4799,3.4799,3.4799,3.4799,3.4799,3.4799,3.4799,3.4799,3.4799,3.4799,3.4799,3.4799,3.4799,3.4799,3.4799,3.4799,3.4799,3.4799,3.4799,3.4799,3.4799,3.4799,3.4799,3.4799,3.4799,3.4799,3.4799,3.4799,3.4799,3.4799,3.4799,3.4799,3.4799,3.4799,3.4799,3.4799,3.4799,3.4799,3.4799,3.4799,3.4799,3.4799,3.4799,3.4799,3.4799,3.4799,3.4799,3.4799,3.4799,3.4799,3.4799,3.4775,3.4726,3.4531,3.4384,3.431,3.394,3.3766,3.3678,3.3454,3.3559,3.3878,3.4108,3.4561,3.515,3.5267,3.514,3.5279,3.5063,3.4534,3.403,3.354,3.2877,3.2334,3.2037,3.1527,3.0713,3.001,2.9686,2.9361,2.9153,2.8984,2.8984,2.8984,2.8984,2.8806,2.8358,2.8089,2.796,2.7478,2.6852,2.6419,2.6045,2.5272,2.451,2.4232,2.386,2.3206,2.2675,2.2261,2.1891,2.1488,2.1235,2.1134,2.1102,2.1102,2.1102,2.1102,2.1102,2.1102,2.1102,2.1102,2.1102,2.1102,2.1102,3.4799,3.4799,3.4799,3.4799,3.4799,3.4799,3.4799,3.4799,3.4799,3.4799,3.4799,3.4799,3.4799,3.4799,3.4799,3.4799,3.4799,3.4799,3.4799,3.4799,3.4799,3.4799,3.4799,3.4799,3.4799,3.4799,3.4799,3.4799,3.4799,3.4799,3.4799,3.4799,3.4799,3.4799,3.4799,3.4799,3.4799,3.4799,3.4799,3.4799,3.4799,3.4799,3.4799,3.4799,3.4799,3.4799,3.4799,3.4799,3.4799,3.4799,3.4799,3.4799,3.4799,3.4653,3.4555,3.4457,3.4187,3.419,3.4103,3.3952,3.3857,3.4165,3.4587,3.506,3.5455,3.5579,3.5506,3.5383,3.5202,3.4646,3.4114,3.3738,3.3161,3.2581,3.2141,3.1546,3.0859,3.0216,2.9745,2.9479,2.9213,2.9044,2.8984,2.8984,2.8984,2.8836,2.8448,2.814,2.799,2.7448,2.6852,2.6419,2.5953,2.5241,2.4656,2.4293,2.3891,2.33,2.2707,2.2198,2.1828,2.1488,2.1267,2.1102,2.1102,2.1102,2.1102,2.1102,2.1102,2.1102,2.1102,2.1102,2.1102,2.1102,2.1102,3.4799,3.4799,3.4799,3.4799,3.4799,3.4799,3.4799,3.4799,3.4799,3.4799,3.4799,3.4799,3.4799,3.4799,3.4799,3.4799,3.4799,3.4799,3.4799,3.4799,3.4799,3.4799,3.4799,3.4799,3.4799,3.4799,3.4799,3.4799,3.4799,3.4799,3.4799,3.4799,3.4799,3.4799,3.4799,3.4799,3.4799,3.4799,3.4799,3.4799,3.4799,3.4799,3.4799,3.4799,3.4799,3.4799,3.4799,3.4799,3.4799,3.4799,3.4799,3.4799,3.4799,3.4775,3.4714,3.4592,3.4634,3.4588,3.4396,3.4808,3.4734,3.4659,3.5195,3.5566,3.5734,3.5919,3.5788,3.5604,3.5285,3.4841,3.4328,3.3963,3.336,3.2742,3.2152,3.1575,3.1092,3.045,2.9863,2.9597,2.9242,2.9103,2.8984,2.8984,2.8984,2.8776,2.8528,2.8289,2.799,2.7448,2.6904,2.641,2.5984,2.5402,2.4787,2.4293,2.386,2.3362,2.2762,2.2135,2.1859,2.1544,2.1324,2.1102,2.1102,2.1102,2.1102,2.1102,2.1102,2.1102,2.1102,2.1102,2.1102,2.1102,2.1102,3.4799,3.4799,3.4799,3.4799,3.4799,3.4799,3.4799,3.4799,3.4799,3.4799,3.4799,3.4799,3.4799,3.4799,3.4799,3.4799,3.4799,3.4799,3.4799,3.4799,3.4799,3.4799,3.4799,3.4799,3.4799,3.4799,3.4799,3.4799,3.4799,3.4799,3.4799,3.4799,3.4799,3.4799,3.4799,3.4799,3.4799,3.4799,3.4799,3.4799,3.4799,3.4799,3.4799,3.4799,3.4799,3.4799,3.4799,3.4799,3.4799,3.4799,3.4799,3.4799,3.4799,3.4799,3.4775,3.4858,3.5021,3.4847,3.4861,3.5422,3.5665,3.5491,3.5573,3.5879,3.6071,3.6165,3.602,3.5769,3.5478,3.5024,3.4607,3.4009,3.3416,3.282,3.219,3.1701,3.1267,3.0713,3.0098,2.9656,2.9281,2.9073,2.9014,2.8984,2.8984,2.8865,2.8627,2.8328,2.7999,2.7569,2.6995,2.6441,2.6014,2.5617,2.5034,2.4386,2.3922,2.3487,2.2668,2.2073,2.1828,2.1607,2.1292,2.1102,2.1102,2.1102,2.1102,2.1102,2.1102,2.1102,2.1102,2.1102,2.1102,2.1102,2.1102,3.4799,3.4799,3.4799,3.4799,3.4799,3.4799,3.4799,3.4799,3.4799,3.4799,3.4799,3.4799,3.4799,3.4799,3.4799,3.4799,3.4799,3.4799,3.4799,3.4799,3.4799,3.4799,3.4799,3.4799,3.4799,3.4799,3.4799,3.4799,3.4799,3.4799,3.4799,3.4799,3.4799,3.4799,3.4799,3.4799,3.4799,3.4799,3.4799,3.4799,3.4799,3.4799,3.4799,3.4799,3.4799,3.4799,3.4799,3.4799,3.4799,3.4799,3.4799,3.4799,3.4799,3.4799,3.4799,3.4847,3.5069,3.526,3.5559,3.6015,3.6294,3.6309,3.6298,3.6271,3.634,3.6266,3.6141,3.5906,3.5588,3.5163,3.4691,3.4132,3.3643,3.3133,3.2449,3.1787,3.1325,3.0743,3.0128,2.9715,2.9311,2.9044,2.8984,2.8984,2.8984,2.8904,2.8725,2.8427,2.8029,2.7599,2.7086,2.6532,2.6106,2.5739,2.5126,2.451,2.4046,2.3542,2.2731,2.2104,2.1922,2.167,2.126,2.1102,2.1102,2.1102,2.1102,2.1102,2.1102,2.1102,2.1102,2.1102,2.1102,2.1102,2.1102,3.4799,3.4799,3.4799,3.4799,3.4799,3.4799,3.4799,3.4799,3.4799,3.4799,3.4799,3.4799,3.4799,3.4799,3.4799,3.4799,3.4799,3.4799,3.4799,3.4799,3.4799,3.4799,3.4799,3.4799,3.4799,3.4799,3.4799,3.4799,3.4799,3.4799,3.4799,3.4799,3.4799,3.4799,3.4799,3.4799,3.4799,3.4799,3.4799,3.4799,3.4799,3.4799,3.4799,3.4799,3.4799,3.4799,3.4799,3.4799,3.4799,3.4799,3.4799,3.4799,3.4799,3.4799,3.4991,3.5111,3.5552,3.5902,3.6236,3.6677,3.6841,3.6823,3.6754,3.6607,3.6472,3.6347,3.6211,3.6032,3.5659,3.5257,3.4774,3.4328,3.3963,3.3568,3.2734,3.1874,3.1267,3.0684,3.0216,2.9774,2.942,2.9103,2.8984,2.8984,2.8984,2.8955,2.8806,2.8537,2.814,2.768,2.7177,2.6631,2.6258,2.5892,2.5249,2.4664,2.417,2.3604,2.2762,2.2237,2.2048,2.167,2.1197,2.1102,2.1102,2.1102,2.1102,2.1102,2.1102,2.1102,2.1102,2.1102,2.1102,2.1102,2.1102,3.4799,3.4799,3.4799,3.4799,3.4799,3.4799,3.4799,3.4799,3.4799,3.4799,3.4799,3.4799,3.4799,3.4799,3.4799,3.4799,3.4799,3.4799,3.4799,3.4799,3.4799,3.4799,3.4799,3.4799,3.4799,3.4799,3.4799,3.4799,3.4799,3.4799,3.4799,3.4799,3.4799,3.4799,3.4799,3.4799,3.4799,3.4799,3.4799,3.4799,3.4799,3.4799,3.4799,3.4799,3.4799,3.4799,3.4799,3.4799,3.4799,3.4799,3.4799,3.4799,3.4799,3.4811,3.5075,3.5508,3.5939,3.6366,3.6789,3.7235,3.7299,3.7173,3.6916,3.6781,3.6646,3.6402,3.6239,3.6141,3.5797,3.5494,3.5052,3.4468,3.4019,3.354,3.282,3.2133,3.1556,3.0859,3.0069,2.9656,2.9311,2.9044,2.8984,2.8984,2.8984,2.8984,2.8925,2.8648,2.8229,2.7771,2.7345,2.677,2.6327,2.5953,2.5533,2.4949,2.4324,2.3642,2.2853,2.2331,2.2111,2.1639,2.1134,2.1102,2.1102,2.1102,2.1102,2.1102,2.1102,2.1102,2.1102,2.1102,2.1102,2.1102,2.1102,3.4799,3.4799,3.4799,3.4799,3.4799,3.4799,3.4799,3.4799,3.4799,3.4799,3.4799,3.4799,3.4799,3.4799,3.4799,3.4799,3.4799,3.4799,3.4799,3.4799,3.4799,3.4799,3.4799,3.4799,3.4799,3.4799,3.4799,3.4799,3.4799,3.4799,3.4799,3.4799,3.4799,3.4799,3.4799,3.4799,3.4799,3.4799,3.4799,3.4799,3.4799,3.4799,3.4799,3.4799,3.4799,3.4799,3.4799,3.4799,3.4799,3.4799,3.4799,3.4799,3.4799,3.4799,3.5087,3.5568,3.617,3.6672,3.7124,3.7551,3.7646,3.7584,3.7343,3.7074,3.682,3.6495,3.6277,3.6168,3.5977,3.5687,3.5273,3.4635,3.4019,3.3473,3.2905,3.2391,3.1845,3.0918,2.9981,2.9568,2.9222,2.9073,2.9044,2.8984,2.8984,2.8984,2.8984,2.8776,2.8289,2.787,2.76,2.7055,2.6427,2.5992,2.5656,2.5113,2.4471,2.3911,2.3213,2.2692,2.2184,2.1669,2.1209,2.1129,2.1102,2.1102,2.1102,2.1102,2.1102,2.1102,2.1102,2.1102,2.1102,2.1102,2.1102,3.4799,3.4799,3.4799,3.4799,3.4799,3.4799,3.4799,3.4799,3.4799,3.4799,3.4799,3.4799,3.4799,3.4799,3.4799,3.4799,3.4799,3.4799,3.4799,3.4799,3.4799,3.4799,3.4799,3.4799,3.4799,3.4799,3.4799,3.4799,3.4799,3.4799,3.4799,3.4799,3.4799,3.4799,3.4799,3.4799,3.4799,3.4799,3.4799,3.4799,3.4799,3.4799,3.4799,3.4799,3.4799,3.4799,3.4799,3.4799,3.4799,3.4799,3.4799,3.4799,3.4883,3.5063,3.5424,3.5954,3.6495,3.6988,3.7445,3.7757,3.7933,3.7785,3.7622,3.7316,3.7182,3.6847,3.644,3.6305,3.5988,3.5687,3.5329,3.4747,3.416,3.3597,3.2991,3.2381,3.1662,3.083,3.0186,2.9774,2.945,2.9213,2.9124,2.8984,2.8984,2.8984,2.8984,2.8773,2.8316,2.8119,2.7813,2.7366,2.6725,2.6241,2.5939,2.5269,2.4515,2.3982,2.3563,2.2996,2.2452,2.1787,2.1316,2.1303,2.1229,2.1102,2.1102,2.1122,2.1109,2.1102,2.1102,2.1102,2.1102,2.1102,2.1102,3.4799,3.4799,3.4799,3.4799,3.4799,3.4799,3.4799,3.4799,3.4799,3.4799,3.4799,3.4799,3.4799,3.4799,3.4799,3.4799,3.4799,3.4799,3.4799,3.4799,3.4799,3.4799,3.4799,3.4799,3.4799,3.4799,3.4799,3.4799,3.4799,3.4799,3.4799,3.4799,3.4799,3.4799,3.4799,3.4799,3.4799,3.4799,3.4799,3.4799,3.4799,3.4799,3.4799,3.4799,3.4799,3.4799,3.4799,3.4799,3.4799,3.4799,3.4799,3.4799,3.4955,3.5232,3.576,3.6254,3.6771,3.7312,3.7781,3.794,3.7974,3.7933,3.7732,3.7584,3.745,3.7128,3.6685,3.6386,3.607,3.5687,3.5356,3.4997,3.4412,3.3597,3.2962,3.2342,3.1575,3.0801,3.0362,2.9951,2.9686,2.9381,2.9213,2.9073,2.9032,2.8993,2.8929,2.863,2.8441,2.8458,2.8333,2.7749,2.7123,2.6655,2.6306,2.5468,2.4641,2.4417,2.4038,2.3357,2.2717,2.2081,2.1655,2.1589,2.1463,2.1296,2.1182,2.1169,2.1149,2.1109,2.1102,2.1102,2.1102,2.1102,2.1102,3.4799,3.4799,3.4799,3.4799,3.4799,3.4799,3.4799,3.4799,3.4799,3.4799,3.4799,3.4799,3.4799,3.4799,3.4799,3.4799,3.4799,3.4799,3.4799,3.4799,3.4799,3.4799,3.4799,3.4799,3.4799,3.4799,3.4799,3.4799,3.4799,3.4799,3.4799,3.4799,3.4799,3.4799,3.4799,3.4799,3.4799,3.4799,3.4799,3.4799,3.4799,3.4799,3.4799,3.4799,3.4799,3.4799,3.4799,3.4799,3.4799,3.4799,3.4799,3.4799,3.5003,3.5352,3.593,3.6423,3.6952,3.7469,3.7841,3.7976,3.8,3.8,3.7826,3.7797,3.7584,3.7251,3.6889,3.6646,3.6293,3.5868,3.5511,3.5356,3.483,3.3653,3.2791,3.2277,3.1633,3.0976,3.0392,3.0098,2.9863,2.9618,2.9411,2.927,2.9126,2.9179,2.9409,2.9134,2.8912,2.8883,2.8787,2.8213,2.7548,2.7252,2.6952,2.5747,2.4959,2.4764,2.4428,2.3748,2.3045,2.2353,2.2015,2.1897,2.1729,2.1542,2.1435,2.1308,2.1169,2.1129,2.1109,2.1102,2.1102,2.1102,2.1102]},{"header":{"parameterUnit":"m.s-1","parameterCategory":1,"la1":31.0,"la2":29.5877,"lo1":-88.7671,"lo2":-86.6584,"dy":0.0162,"dx":0.0185,"nx":115,"ny":88,"refTime":"2024-06-09T12:00:00:Z","depth":0,"parameterNumber":3,"parameterNumberName":"V-component_of_WINDS"},"data":[0.0,0.0,0.0,0.0,0.0,0.0,0.0,0.0,0.0,0.0,0.0,0.0,0.0,0.0,0.0,0.0,0.0,0.0,0.0,0.0,0.0,0.0,0.0,0.0,0.0,0.0,0.0,0.0,0.0,0.0,0.0,0.0,0.0,0.0,0.0,0.0,0.0,0.0,0.0,0.0,0.0,0.0,0.0,0.0,0.0,0.0,0.0,0.0,0.0,0.0,0.0,0.0,0.0,0.0,0.0,0.0,0.0,0.0,0.0,0.0,0.0,0.0,0.0,0.0,0.0,0.0,0.0,0.0,0.0,0.0,0.0,0.0,0.0,0.0,0.0,0.0,0.0,0.0,0.0,0.0,0.0,0.0,0.0,0.0,0.0,0.0,0.0,0.0,0.0,0.0,0.0,0.0,0.0,0.0,0.0,0.0,0.0,0.0,0.0,0.0,0.0,0.0,0.0,0.0,0.0,0.0,0.0,0.0,0.0,0.0,0.0,0.0,0.0,0.0,0.0,0.0,0.0,0.0,0.0,0.0,0.0,0.0,0.0,0.0,0.0,0.0,0.0,0.0,0.0,0.0,0.0,0.0,0.0,0.0,0.0,0.0,0.0,0.0,0.0,0.0,0.0,0.0,0.0,0.0,0.0,0.0,0.0,0.0,0.0,0.0,0.0,0.0,0.0,0.0,0.0,0.0,0.0,0.0,0.0,0.0,0.0,0.0,0.0,0.0,0.0,0.0,0.0,0.0,0.0,0.0,0.0,0.0,0.0,0.0,0.0,0.0,0.0,0.0,0.0,0.0,0.0,0.0,0.0,0.0,0.0,0.0,0.0,0.0,0.0,0.0,0.0,0.0,0.0,0.0,0.0,0.0,0.0,0.0,0.0,0.0,0.0,0.0,0.0,0.0,0.0,0.0,0.0,0.0,0.0,0.0,0.0,0.0,0.0,0.0,0.0,0.0,0.0,0.0,0.0,0.0,0.0,0.0,0.0,0.0,0.0,0.0,0.0,0.0,0.0,0.0,0.0,0.0,0.0,0.0,0.0,0.0,0.0,0.0,0.0,0.0,0.0,0.0,0.0,0.0,0.0,0.0,0.0,0.0,0.0,0.0,0.0,0.0,0.0,0.0,0.0,0.0,0.0,0.0,0.0,0.0,0.0,0.0,0.0,0.0,0.0,0.0,0.0,0.0,0.0,0.0,0.0,0.0,0.0,0.0,0.0,0.0,0.0,0.0,0.0,0.0,0.0,0.0,0.0,0.0,0.0,0.0,0.0,0.0,0.0,0.0,0.0,0.0,0.0,0.0,0.0,0.0,0.0,0.0,0.0,0.0,0.0,0.0,0.0,0.0,0.0,0.0,0.0,0.0,0.0,0.0,0.0,0.0,0.0,0.0,0.0,0.0,0.0,0.0,0.0,0.0,0.0,0.0,0.0,0.0,0.0,0.0,0.0,0.0,0.0,0.0,0.0,0.0,0.0,0.0,0.0,0.0,0.0,0.0,0.0,0.0,0.0,0.0,0.0,0.0,0.0,0.0,0.0,0.0,0.0,0.0,0.0,0.0,0.0,0.0,0.0,0.0,0.0,0.0,0.0,0.0,0.0,0.0,0.0,0.0,0.0,0.0,0.0,0.0,0.0,0.0,0.0,0.0,0.0,0.0,0.0,0.0,0.0,0.0,0.0,0.0,0.0,0.0,0.0,0.0,0.0,0.0,0.0,0.0,0.0,0.0,0.0,0.0,0.0,0.0,0.0,0.0,0.0,0.0,0.0,0.0,0.0,0.0,0.0,0.0,0.0,0.0,0.0,0.0,0.0,0.0,0.0,0.0,0.0,0.0,0.0,0.0,0.0,0.0,0.0,0.0,0.0,0.0,0.0,0.0,0.0,0.0,0.0,0.0,0.0,0.0,0.0,0.0,0.0,0.0,0.0,0.0,0.0,0.0,0.0,0.0,0.0,0.0,0.0,0.0,0.0,0.0,0.0,0.0,0.0,0.0,0.0,0.0,0.0,0.0,0.0,0.0,0.0,0.0,0.0,0.0,0.0,0.0,0.0,0.0,0.0,0.0,0.0,0.0,0.0,0.0,0.0,0.0,0.0,0.0,0.0,0.0,0.0,0.0,0.0,0.0,0.0,0.0,0.0,0.0,0.0,0.0,0.0,0.0,0.0,0.0,0.0,0.0,0.0,0.0,0.0,0.0,0.0,0.0,0.0,0.0,0.0,0.0,0.0,0.0,0.0,0.0,0.0,0.0,0.0,0.0,0.0,0.0,0.0,0.0,0.0,0.0,0.0,0.0,0.0,0.0,0.0,0.0,0.0,0.0,0.0,0.0,0.0,0.0,0.0,0.0,0.0,0.0,0.0,0.0,0.0,0.0,0.0,0.0,0.0,0.0,0.0,0.0,0.0,0.0,0.0,0.0,0.0,0.0,0.0,0.0,0.0,0.0,0.0,0.0,0.0,0.0,0.0,0.0,0.0,0.0,0.0,0.0,0.0,0.0,0.0,0.0,0.0,0.0,0.0,0.0,0.0,0.0,0.0,0.0,0.0,0.0,0.0,0.0,0.0,0.0,0.0,0.0,0.0,0.0,0.0,0.0,0.0,0.0,0.0,0.0,0.0,0.0,0.0,0.0,0.0,0.0,0.0,0.0,0.0,0.0,0.0,0.0,0.0,0.0,0.0,0.0,0.0,0.0,0.0,0.0,0.0,0.0,0.0,0.0,0.0,0.0,0.0,0.0,0.0,0.0,0.0,0.0,0.0,0.0,0.0,0.0,0.0,0.0,0.0,0.0,0.0,0.0,0.0,0.0,0.0,0.0,0.0,0.0,0.0,0.0,0.0,0.0,0.0,0.0,0.0,0.0,0.0,0.0,0.0,0.0,0.0,0.0,0.0,0.0,0.0,0.0,0.0,0.0,0.0,0.0,0.0,0.0,0.0,0.0,0.0,0.0,0.0,0.0,0.0,0.0,0.0,0.0,0.0,0.0,0.0,0.0,0.0,0.0,0.0,0.0,0.0,0.0,0.0,0.0,0.0,0.0,0.0,0.0,0.0,0.0,0.0,0.0,0.0,0.0,0.0,0.0,0.0,0.0,0.0,0.0,0.0,0.0,0.0,0.0,0.0,0.0,0.0,0.0,0.0,0.0,0.0,0.0,0.0,0.0,0.0,0.0,0.0,0.0,0.0,0.0,0.0,0.0,0.0,0.0,0.0,0.0,0.0,0.0,0.0,0.0,0.0,0.0,0.0,0.0,0.0,0.0,0.0,0.0,0.0,0.0,0.0,0.0,0.0,0.0,0.0,0.0,0.0,0.0,0.0,0.0,0.0,0.0,0.0,0.0,0.0,0.0,0.0,0.0,0.0,0.0,0.0,0.0,0.0,0.0,0.0,0.0,0.0,0.0,0.0,0.0,0.0,0.0,0.0,0.0,0.0,0.0,0.0,0.0,0.0,0.0,0.0,0.0,0.0,0.0,0.0,0.0,0.0,0.0,0.0,0.0,0.0,0.0,0.0,0.0,0.0,0.0,0.0,0.0,0.0,0.0,0.0,0.0,0.0,0.0,0.0,0.0,0.0,0.0,0.0,0.0,0.0,0.0,0.0,0.0,0.0,0.0,0.0,0.0,0.0,0.0,0.0,0.0,0.0,0.0,0.0,0.0,0.0,0.0,0.0,0.0,0.0,0.0,0.0,0.0,0.0,0.0,0.0,0.0,0.0,0.0,0.0,0.0,0.0,0.0,0.0,0.0,0.0,0.0,0.0,0.0,0.0,0.0,0.0,0.0,0.0,0.0,0.0,0.0,0.0,0.0,0.0,0.0,0.0,0.0,0.0,0.0,0.0,0.0,0.0,0.0,0.0,0.0,0.0,0.0,0.0,0.0,0.0,0.0,0.0,0.0,0.0,0.0,0.0,0.0,0.0,0.0,0.0,0.0,0.0,0.0,0.0,0.0,0.0,0.0,0.0,0.0,0.0,0.0,0.0,0.0,0.0,0.0,0.0,0.0,0.0,0.0,0.0,0.0,0.0,0.0,0.0,0.0,0.0,0.0,0.0,0.0,0.0,0.0,0.0,0.0,0.0,0.0,0.0,0.0,0.0,0.0,0.0,0.0,0.0,0.0,0.0,0.0,0.0,0.0,0.0,0.0,0.0,0.0,0.0,0.0,0.0,0.0,0.0,0.0,0.0,0.0,0.0,0.0,0.0,0.0,0.0,0.0,0.0,0.0,0.0,0.0,0.0,0.0,0.0,0.0,0.0,0.0,0.0,0.0,0.0,0.0,2.0475,0.0,0.0,0.0,0.0,0.0,0.0,0.0,0.0,0.0,0.0,0.0,0.0,0.0,0.0,0.0,0.0,0.0,0.0,0.0,0.0,0.0,0.0,0.0,0.0,0.0,0.0,0.0,0.0,0.0,0.0,0.0,0.0,0.0,0.0,0.0,0.0,0.0,0.0,0.0,0.0,0.0,0.0,0.0,0.0,0.0,0.0,0.0,0.0,0.0,0.0,0.0,0.0,0.0,0.0,0.0,0.0,0.0,0.0,0.0,0.0,0.0,0.0,0.0,0.0,0.0,0.0,0.0,0.0,0.0,0.0,0.0,0.0,0.0,0.0,0.0,0.0,0.0,0.0,0.0,0.0,0.0,0.0,0.0,0.0,0.0,0.0,0.0,0.0,0.0,0.0,0.0,0.0,0.0,0.0,0.0,0.0,0.0,0.0,0.0,0.0,0.0,0.0,0.0,0.0,0.0,0.0,0.0,0.0,0.0,0.0,2.0598,2.092,2.0837,2.0685,2.0488,0.0,0.0,0.0,0.0,0.0,0.0,0.0,0.0,0.0,0.0,0.0,0.0,0.0,0.0,0.0,0.0,0.0,0.0,0.0,0.0,0.0,0.0,0.0,0.0,0.0,0.0,0.0,0.0,0.0,0.0,0.0,0.0,0.0,0.0,0.0,0.0,0.0,0.0,0.0,0.0,0.0,0.0,0.0,0.0,0.0,0.0,0.0,0.0,0.0,0.0,0.0,0.0,0.0,0.0,0.0,0.0,0.0,0.0,0.0,0.0,0.0,0.0,0.0,0.0,0.0,0.0,0.0,0.0,0.0,0.0,0.0,0.0,0.0,0.0,0.0,0.0,0.0,0.0,0.0,0.0,0.0,0.0,0.0,0.0,0.0,0.0,0.0,0.0,0.0,0.0,0.0,0.0,0.0,0.0,0.0,0.0,0.0,0.0,0.0,0.0,0.0,0.0,0.0,0.0,0.0,0.0,0.0,0.0,0.0,0.0,0.0,0.0,2.1157,2.0862,2.0323,0.0,0.0,0.0,0.0,0.0,0.0,0.0,0.0,0.0,0.0,0.0,0.0,0.0,0.0,0.0,0.0,0.0,0.0,0.0,0.0,0.0,0.0,0.0,0.0,0.0,0.0,0.0,0.0,0.0,0.0,0.0,0.0,0.0,0.0,0.0,0.0,0.0,0.0,0.0,0.0,0.0,0.0,0.0,0.0,0.0,0.0,0.0,0.0,0.0,0.0,0.0,0.0,0.0,0.0,0.0,0.0,0.0,0.0,0.0,0.0,0.0,0.0,0.0,0.0,0.0,0.0,0.0,0.0,0.0,0.0,0.0,0.0,0.0,0.0,0.0,0.0,0.0,0.0,0.0,0.0,0.0,0.0,0.0,0.0,0.0,0.0,0.0,0.0,0.0,0.0,0.0,0.0,0.0,0.0,0.0,0.0,0.0,0.0,0.0,0.0,0.0,0.0,0.0,0.0,0.0,0.0,0.0,0.0,0.0,0.0,2.1696,2.2232,2.1782,0.0,2.0348,0.0,0.0,0.0,0.0,0.0,0.0,0.0,0.0,0.0,0.0,0.0,0.0,0.0,0.0,0.0,0.0,0.0,0.0,0.0,0.0,0.0,0.0,0.0,0.0,0.0,0.0,0.0,0.0,0.0,0.0,0.0,0.0,0.0,0.0,0.0,0.0,0.0,0.0,0.0,0.0,0.0,0.0,0.0,0.0,0.0,0.0,0.0,0.0,0.0,0.0,0.0,0.0,0.0,0.0,0.0,0.0,0.0,0.0,0.0,0.0,0.0,0.0,0.0,0.0,0.0,0.0,0.0,0.0,0.0,0.0,0.0,0.0,0.0,0.0,0.0,0.0,0.0,0.0,0.0,0.0,0.0,0.0,0.0,0.0,0.0,0.0,0.0,0.0,0.0,0.0,0.0,0.0,0.0,0.0,0.0,0.0,0.0,0.0,0.0,0.0,0.0,0.0,0.0,0.0,0.0,0.0,0.0,0.0,0.0,0.0,2.2026,2.2263,2.1764,2.1244,0.0,0.0,0.0,0.0,0.0,0.0,0.0,0.0,0.0,0.0,0.0,0.0,0.0,0.0,0.0,0.0,0.0,0.0,0.0,0.0,0.0,0.0,0.0,0.0,0.0,0.0,0.0,0.0,0.0,0.0,0.0,0.0,0.0,0.0,0.0,0.0,0.0,0.0,0.0,0.0,0.0,0.0,0.0,0.0,0.0,0.0,0.0,0.0,0.0,0.0,0.0,0.0,0.0,0.0,0.0,0.0,0.0,0.0,0.0,0.0,0.0,0.0,0.0,0.0,0.0,0.0,0.0,0.0,0.0,0.0,0.0,0.0,0.0,0.0,0.0,0.0,0.0,0.0,0.0,0.0,0.0,0.0,0.0,0.0,0.0,0.0,0.0,0.0,0.0,0.0,0.0,0.0,0.0,0.0,0.0,0.0,0.0,0.0,0.0,0.0,0.0,0.0,0.0,0.0,0.0,0.0,0.0,0.0,0.0,0.0,2.1518,2.2161,2.2165,2.1685,2.125,2.0957,0.0,0.0,0.0,0.0,0.0,0.0,0.0,0.0,0.0,0.0,0.0,0.0,0.0,0.0,0.0,0.0,0.0,0.0,0.0,0.0,0.0,0.0,0.0,0.0,0.0,0.0,0.0,0.0,0.0,0.0,0.0,0.0,0.0,0.0,0.0,0.0,0.0,0.0,0.0,0.0,0.0,0.0,0.0,0.0,0.0,0.0,0.0,0.0,0.0,0.0,0.0,0.0,0.0,0.0,0.0,0.0,0.0,0.0,0.0,0.0,0.0,0.0,0.0,0.0,0.0,0.0,0.0,0.0,0.0,0.0,0.0,0.0,0.0,0.0,0.0,0.0,0.0,0.0,0.0,0.0,0.0,0.0,0.0,0.0,0.0,0.0,0.0,0.0,0.0,0.0,0.0,0.0,0.0,0.0,0.0,0.0,0.0,0.0,0.0,0.0,0.0,0.0,0.0,0.0,0.0,0.0,0.0,0.0,0.0,2.1392,2.2067,2.2182,2.1674,2.1207,0.0,0.0,0.0,0.0,0.0,0.0,0.0,0.0,0.0,0.0,0.0,0.0,0.0,0.0,0.0,0.0,0.0,0.0,0.0,0.0,0.0,0.0,0.0,0.0,0.0,0.0,0.0,0.0,0.0,0.0,0.0,0.0,0.0,0.0,0.0,0.0,0.0,0.0,0.0,0.0,0.0,0.0,0.0,0.0,0.0,0.0,0.0,0.0,0.0,0.0,0.0,0.0,0.0,0.0,0.0,0.0,0.0,0.0,0.0,0.0,0.0,0.0,0.0,0.0,0.0,0.0,0.0,0.0,0.0,0.0,0.0,0.0,0.0,0.0,0.0,0.0,0.0,0.0,0.0,0.0,0.0,0.0,0.0,0.0,0.0,0.0,0.0,0.0,0.0,0.0,0.0,0.0,0.0,0.0,0.0,0.0,0.0,0.0,0.0,0.0,0.0,0.0,0.0,0.0,0.0,0.0,0.0,0.0,0.0,2.0659,2.1518,2.2065,2.2182,2.202,2.1507,0.0,0.0,0.0,0.0,0.0,0.0,0.0,0.0,0.0,0.0,0.0,0.0,0.0,0.0,0.0,0.0,0.0,0.0,0.0,0.0,0.0,0.0,0.0,0.0,0.0,0.0,0.0,0.0,0.0,0.0,0.0,0.0,0.0,0.0,0.0,0.0,0.0,0.0,0.0,0.0,0.0,0.0,0.0,0.0,0.0,0.0,0.0,0.0,0.0,0.0,0.0,0.0,0.0,0.0,0.0,0.0,0.0,0.0,0.0,0.0,0.0,0.0,0.0,0.0,0.0,0.0,0.0,0.0,0.0,0.0,0.0,0.0,0.0,0.0,0.0,0.0,0.0,0.0,0.0,0.0,0.0,0.0,0.0,0.0,0.0,0.0,0.0,0.0,0.0,0.0,0.0,0.0,0.0,0.0,0.0,0.0,0.0,0.0,0.0,0.0,0.0,0.0,0.0,0.0,0.0,0.0,0.0,0.0,0.0,2.11,0.0,2.2044,0.0,2.2184,2.1665,0.0,0.0,0.0,0.0,0.0,0.0,0.0,0.0,0.0,0.0,0.0,0.0,0.0,0.0,0.0,0.0,0.0,0.0,0.0,0.0,0.0,0.0,0.0,0.0,0.0,0.0,0.0,0.0,0.0,0.0,0.0,0.0,0.0,0.0,0.0,0.0,0.0,0.0,0.0,0.0,0.0,0.0,0.0,0.0,0.0,0.0,0.0,0.0,0.0,0.0,0.0,0.0,0.0,0.0,0.0,0.0,0.0,0.0,0.0,0.0,0.0,0.0,0.0,0.0,0.0,0.0,0.0,0.0,0.0,0.0,0.0,0.0,0.0,0.0,0.0,0.0,0.0,0.0,0.0,0.0,0.0,0.0,0.0,0.0,0.0,0.0,0.0,0.0,0.0,0.0,0.0,0.0,0.0,0.0,0.0,0.0,0.0,0.0,0.0,0.0,0.0,0.0,0.0,0.0,0.0,0.0,0.0,0.0,2.0414,2.1534,2.1839,2.1983,2.2008,2.2137,2.1665,0.0,0.0,0.0,0.0,0.0,0.0,0.0,0.0,0.0,0.0,0.0,0.0,0.0,0.0,0.0,0.0,0.0,0.0,0.0,0.0,0.0,0.0,0.0,0.0,0.0,0.0,0.0,0.0,0.0,0.0,0.0,0.0,0.0,0.0,0.0,0.0,0.0,0.0,0.0,0.0,0.0,0.0,0.0,0.0,0.0,0.0,0.0,0.0,0.0,0.0,0.0,0.0,0.0,0.0,0.0,0.0,0.0,0.0,0.0,0.0,0.0,0.0,0.0,0.0,0.0,0.0,0.0,0.0,0.0,0.0,0.0,0.0,0.0,0.0,0.0,0.0,0.0,0.0,0.0,0.0,0.0,0.0,0.0,0.0,0.0,0.0,0.0,0.0,0.0,0.0,0.0,0.0,0.0,0.0,0.0,0.0,0.0,0.0,0.0,0.0,0.0,0.0,0.0,0.0,0.0,0.0,0.0,0.0,0.0,2.1577,2.1783,2.1914,2.1996,2.2137,2.1631,0.0,0.0,0.0,0.0,0.0,0.0,0.0,0.0,0.0,0.0,0.0,0.0,0.0,0.0,0.0,0.0,0.0,0.0,0.0,0.0,0.0,0.0,0.0,0.0,0.0,0.0,0.0,0.0,0.0,0.0,0.0,0.0,0.0,0.0,0.0,0.0,0.0,0.0,0.0,0.0,0.0,0.0,0.0,0.0,0.0,0.0,0.0,0.0,0.0,0.0,0.0,0.0,0.0,0.0,0.0,0.0,0.0,0.0,0.0,0.0,0.0,0.0,0.0,0.0,0.0,0.0,0.0,0.0,0.0,0.0,0.0,0.0,0.0,0.0,0.0,0.0,0.0,0.0,0.0,0.0,0.0,0.0,0.0,0.0,0.0,0.0,0.0,0.0,0.0,0.0,0.0,0.0,0.0,0.0,0.0,0.0,0.0,0.0,0.0,0.0,0.0,0.0,0.0,0.0,0.0,0.0,0.0,0.0,0.0,2.1845,2.1822,2.1855,2.1912,2.2102,2.1732,2.0776,0.0,0.0,0.0,0.0,0.0,0.0,0.0,0.0,0.0,0.0,0.0,0.0,0.0,0.0,0.0,0.0,0.0,0.0,0.0,0.0,0.0,0.0,0.0,0.0,0.0,0.0,0.0,0.0,0.0,0.0,0.0,0.0,0.0,0.0,0.0,0.0,0.0,0.0,0.0,0.0,0.0,0.0,0.0,0.0,0.0,0.0,0.0,0.0,0.0,0.0,0.0,0.0,0.0,0.0,0.0,0.0,0.0,0.0,0.0,0.0,0.0,0.0,0.0,0.0,0.0,0.0,0.0,0.0,0.0,0.0,0.0,0.0,0.0,0.0,0.0,0.0,0.0,0.0,0.0,0.0,0.0,0.0,0.0,0.0,0.0,0.0,0.0,0.0,0.0,0.0,0.0,0.0,0.0,0.0,0.0,0.0,0.0,0.0,0.0,0.0,0.0,0.0,0.0,0.0,0.0,0.0,0.0,0.0,2.2347,2.206,2.1931,2.1917,2.2151,2.1969,0.0,0.0,0.0,0.0,0.0,0.0,0.0,0.0,0.0,0.0,0.0,0.0,0.0,0.0,0.0,0.0,0.0,0.0,0.0,0.0,0.0,0.0,0.0,0.0,0.0,0.0,0.0,0.0,0.0,0.0,0.0,0.0,0.0,0.0,0.0,0.0,0.0,0.0,0.0,0.0,0.0,0.0,0.0,0.0,0.0,0.0,0.0,0.0,0.0,0.0,0.0,0.0,0.0,0.0,0.0,0.0,0.0,0.0,0.0,0.0,0.0,0.0,0.0,0.0,0.0,0.0,0.0,0.0,0.0,0.0,0.0,0.0,0.0,0.0,0.0,0.0,0.0,0.0,0.0,0.0,0.0,0.0,0.0,0.0,0.0,0.0,0.0,0.0,0.0,0.0,0.0,0.0,0.0,0.0,0.0,0.0,0.0,0.0,0.0,0.0,0.0,0.0,0.0,0.0,0.0,0.0,0.0,0.0,0.0,2.2944,2.3063,2.3119,2.3132,2.2963,2.259,0.0,0.0,0.0,0.0,0.0,0.0,0.0,0.0,0.0,0.0,0.0,0.0,0.0,0.0,0.0,0.0,0.0,0.0,0.0,0.0,0.0,0.0,0.0,0.0,0.0,0.0,0.0,0.0,0.0,0.0,0.0,0.0,0.0,0.0,0.0,0.0,0.0,0.0,0.0,0.0,0.0,0.0,0.0,0.0,0.0,0.0,0.0,0.0,0.0,0.0,0.0,0.0,0.0,0.0,0.0,0.0,0.0,0.0,0.0,0.0,0.0,0.0,0.0,0.0,0.0,0.0,0.0,0.0,0.0,0.0,0.0,0.0,0.0,0.0,0.0,0.0,0.0,0.0,0.0,0.0,0.0,0.0,0.0,0.0,0.0,0.0,0.0,0.0,0.0,0.0,0.0,0.0,0.0,0.0,0.0,0.0,0.0,0.0,0.0,0.0,0.0,0.0,0.0,0.0,0.0,0.0,0.0,0.0,2.3242,2.3581,2.412,2.4403,2.439,2.3842,2.3222,0.0,0.0,0.0,0.0,0.0,0.0,0.0,0.0,0.0,0.0,0.0,0.0,0.0,0.0,0.0,0.0,0.0,0.0,0.0,0.0,0.0,0.0,0.0,0.0,0.0,0.0,0.0,0.0,0.0,0.0,0.0,0.0,0.0,0.0,0.0,0.0,0.0,0.0,0.0,0.0,0.0,0.0,0.0,0.0,0.0,0.0,0.0,0.0,0.0,0.0,0.0,0.0,0.0,0.0,0.0,0.0,0.0,0.0,0.0,0.0,0.0,0.0,0.0,0.0,0.0,0.0,0.0,0.0,0.0,0.0,0.0,0.0,0.0,0.0,0.0,0.0,0.0,0.0,0.0,0.0,0.0,0.0,0.0,0.0,0.0,0.0,0.0,0.0,0.0,0.0,0.0,0.0,0.0,0.0,0.0,0.0,0.0,0.0,0.0,0.0,0.0,0.0,0.0,0.0,0.0,0.0,0.0,0.0,2.4218,2.4299,2.5217,2.5646,2.5577,2.4694,2.3881,0.0,0.0,0.0,0.0,0.0,0.0,0.0,0.0,0.0,0.0,0.0,0.0,0.0,0.0,0.0,0.0,0.0,0.0,0.0,0.0,0.0,0.0,0.0,0.0,0.0,0.0,0.0,0.0,0.0,0.0,0.0,0.0,0.0,0.0,0.0,0.0,0.0,0.0,0.0,0.0,0.0,0.0,0.0,0.0,0.0,0.0,0.0,0.0,0.0,0.0,0.0,0.0,0.0,0.0,0.0,0.0,0.0,0.0,0.0,0.0,0.0,0.0,0.0,0.0,0.0,0.0,0.0,0.0,0.0,0.0,0.0,0.0,0.0,0.0,0.0,0.0,0.0,0.0,0.0,0.0,0.0,0.0,0.0,0.0,0.0,0.0,0.0,0.0,0.0,0.0,0.0,0.0,0.0,0.0,0.0,0.0,0.0,0.0,0.0,0.0,0.0,0.0,0.0,0.0,0.0,0.0,0.0,0.0,2.5046,2.5535,2.644,2.6696,2.6227,2.5309,2.4514,0.0,0.0,0.0,0.0,0.0,0.0,0.0,0.0,0.0,0.0,0.0,0.0,0.0,0.0,0.0,0.0,0.0,0.0,0.0,0.0,0.0,0.0,0.0,0.0,0.0,0.0,0.0,0.0,0.0,0.0,0.0,0.0,0.0,0.0,0.0,0.0,0.0,0.0,0.0,0.0,0.0,0.0,0.0,0.0,0.0,0.0,0.0,0.0,2.6656,0.0,0.0,0.0,0.0,0.0,0.0,0.0,0.0,0.0,0.0,0.0,0.0,0.0,0.0,0.0,0.0,0.0,0.0,0.0,0.0,0.0,0.0,0.0,0.0,0.0,0.0,0.0,0.0,0.0,0.0,0.0,0.0,0.0,0.0,0.0,0.0,0.0,0.0,0.0,0.0,0.0,0.0,0.0,0.0,0.0,0.0,0.0,0.0,0.0,0.0,0.0,0.0,0.0,0.0,0.0,0.0,0.0,0.0,0.0,2.5575,2.5915,2.681,2.7027,2.642,2.6036,2.5288,0.0,0.0,0.0,0.0,0.0,0.0,0.0,0.0,0.0,0.0,0.0,0.0,0.0,0.0,0.0,0.0,0.0,0.0,0.0,0.0,0.0,0.0,0.0,0.0,0.0,0.0,0.0,0.0,0.0,0.0,0.0,0.0,0.0,0.0,0.0,0.0,0.0,0.0,0.0,0.0,0.0,0.0,0.0,0.0,0.0,0.0,0.0,0.0,0.0,0.0,0.0,0.0,0.0,0.0,0.0,0.0,0.0,0.0,0.0,0.0,0.0,0.0,0.0,0.0,0.0,0.0,0.0,0.0,0.0,0.0,0.0,0.0,0.0,0.0,0.0,0.0,0.0,0.0,0.0,0.0,0.0,0.0,0.0,0.0,0.0,0.0,0.0,0.0,0.0,0.0,0.0,0.0,0.0,0.0,0.0,0.0,0.0,0.0,0.0,0.0,0.0,0.0,0.0,0.0,0.0,0.0,0.0,2.5072,2.6065,2.6108,2.7058,2.7263,2.6601,2.6833,2.6048,2.4189,0.0,0.0,0.0,0.0,0.0,0.0,0.0,0.0,0.0,0.0,0.0,0.0,0.0,0.0,0.0,0.0,0.0,0.0,0.0,0.0,0.0,0.0,0.0,0.0,0.0,0.0,0.0,0.0,0.0,0.0,0.0,0.0,0.0,0.0,0.0,0.0,0.0,0.0,2.4356,2.5519,0.0,0.0,0.0,0.0,0.0,0.0,0.0,0.0,2.7447,0.0,0.0,0.0,0.0,0.0,0.0,0.0,0.0,0.0,0.0,0.0,0.0,0.0,0.0,0.0,0.0,0.0,0.0,0.0,0.0,0.0,0.0,0.0,0.0,0.0,0.0,0.0,0.0,0.0,0.0,0.0,0.0,0.0,0.0,0.0,0.0,0.0,0.0,0.0,0.0,0.0,0.0,0.0,0.0,0.0,0.0,0.0,0.0,0.0,0.0,0.0,0.0,0.0,0.0,0.0,0.0,2.3215,2.5478,2.6749,2.6912,2.8136,2.8317,2.7384,2.7519,2.6525,2.4274,0.0,0.0,0.0,0.0,0.0,0.0,0.0,0.0,0.0,0.0,0.0,0.0,0.0,0.0,0.0,0.0,0.0,0.0,0.0,0.0,0.0,0.0,0.0,0.0,0.0,0.0,0.0,0.0,0.0,0.0,0.0,0.0,0.0,0.0,0.0,0.0,0.0,0.0,0.0,2.7257,2.8,0.0,0.0,0.0,0.0,0.0,0.0,0.0,0.0,2.8937,0.0,0.0,0.0,0.0,0.0,0.0,0.0,0.0,0.0,0.0,0.0,0.0,0.0,0.0,0.0,0.0,0.0,0.0,0.0,0.0,0.0,0.0,0.0,0.0,0.0,0.0,0.0,0.0,0.0,0.0,0.0,0.0,0.0,0.0,0.0,0.0,0.0,0.0,0.0,0.0,0.0,0.0,0.0,0.0,0.0,0.0,0.0,0.0,0.0,0.0,0.0,0.0,0.0,0.0,0.0,2.3757,2.5824,2.7154,2.7589,2.8675,2.8703,2.7567,2.7703,2.6624,0.0,0.0,0.0,0.0,0.0,0.0,0.0,0.0,0.0,0.0,0.0,0.0,0.0,0.0,0.0,0.0,0.0,0.0,0.0,0.0,0.0,0.0,0.0,0.0,0.0,0.0,0.0,0.0,0.0,0.0,0.0,0.0,0.0,0.0,0.0,0.0,0.0,0.0,0.0,0.0,2.7988,2.8884,2.958,0.0,0.0,0.0,0.0,0.0,0.0,3.0433,3.0298,0.0,0.0,0.0,0.0,0.0,0.0,0.0,0.0,0.0,0.0,0.0,0.0,0.0,0.0,0.0,0.0,0.0,0.0,0.0,0.0,0.0,0.0,0.0,0.0,0.0,0.0,0.0,0.0,0.0,0.0,0.0,0.0,0.0,0.0,0.0,0.0,0.0,0.0,0.0,0.0,0.0,0.0,0.0,0.0,0.0,0.0,0.0,0.0,0.0,0.0,0.0,0.0,0.0,0.0,0.0,2.415,2.6075,2.7397,2.8033,2.8922,2.8812,2.7597,2.7703,2.6624,0.0,0.0,0.0,0.0,0.0,0.0,0.0,0.0,0.0,0.0,0.0,0.0,0.0,0.0,0.0,0.0,0.0,0.0,0.0,0.0,0.0,0.0,0.0,0.0,0.0,0.0,0.0,0.0,0.0,0.0,0.0,0.0,0.0,0.0,0.0,0.0,0.0,0.0,0.0,0.0,0.0,2.9584,3.0303,3.0981,0.0,0.0,0.0,0.0,3.1618,3.1562,0.0,0.0,0.0,0.0,0.0,0.0,0.0,0.0,0.0,0.0,0.0,0.0,0.0,0.0,0.0,0.0,0.0,0.0,0.0,0.0,0.0,0.0,0.0,0.0,0.0,0.0,0.0,0.0,0.0,0.0,0.0,0.0,0.0,0.0,0.0,0.0,0.0,0.0,0.0,0.0,0.0,0.0,0.0,0.0,0.0,0.0,0.0,0.0,0.0,0.0,0.0,0.0,0.0,0.0,0.0,0.0,2.4136,2.6089,2.7458,2.8157,2.8969,2.8873,2.7789,2.7791,2.6624,0.0,0.0,0.0,0.0,0.0,0.0,0.0,0.0,0.0,0.0,0.0,0.0,0.0,0.0,0.0,0.0,0.0,0.0,0.0,0.0,0.0,0.0,0.0,0.0,0.0,0.0,0.0,0.0,0.0,0.0,0.0,0.0,0.0,0.0,0.0,0.0,0.0,0.0,0.0,0.0,0.0,3.0318,3.0989,3.127,3.144,0.0,0.0,3.1634,3.1762,3.1762,0.0,0.0,0.0,0.0,0.0,0.0,0.0,0.0,0.0,0.0,0.0,0.0,0.0,0.0,0.0,0.0,0.0,0.0,0.0,0.0,0.0,0.0,0.0,0.0,0.0,0.0,0.0,0.0,0.0,0.0,0.0,0.0,0.0,0.0,0.0,0.0,0.0,0.0,0.0,0.0,0.0,0.0,0.0,0.0,0.0,0.0,0.0,0.0,0.0,0.0,0.0,0.0,0.0,0.0,0.0,2.4,2.5283,2.6651,2.7851,2.8856,2.9291,2.8965,2.7833,2.7805,2.6638,0.0,0.0,0.0,0.0,0.0,0.0,0.0,0.0,0.0,0.0,0.0,0.0,0.0,0.0,0.0,0.0,0.0,0.0,0.0,0.0,0.0,0.0,0.0,0.0,0.0,0.0,0.0,0.0,0.0,0.0,0.0,0.0,0.0,0.0,0.0,0.0,0.0,0.0,0.0,0.0,0.0,0.0,3.2463,3.3319,0.0,0.0,0.0,3.4147,3.4319,0.0,0.0,0.0,0.0,0.0,0.0,0.0,0.0,0.0,0.0,0.0,0.0,0.0,0.0,0.0,0.0,0.0,0.0,0.0,0.0,0.0,0.0,0.0,0.0,0.0,0.0,0.0,0.0,0.0,0.0,0.0,0.0,0.0,0.0,0.0,0.0,0.0,0.0,0.0,0.0,0.0,0.0,0.0,0.0,0.0,0.0,0.0,0.0,0.0,0.0,0.0,0.0,0.0,0.0,0.0,0.0,0.0,2.6206,2.7061,2.8099,2.9343,2.954,2.9026,2.7862,2.7805,0.0,0.0,0.0,0.0,0.0,0.0,0.0,0.0,0.0,0.0,0.0,0.0,0.0,0.0,0.0,0.0,0.0,0.0,0.0,0.0,0.0,0.0,0.0,0.0,0.0,0.0,0.0,2.1504,0.0,0.0,0.0,0.0,0.0,0.0,0.0,0.0,0.0,0.0,0.0,0.0,0.0,0.0,3.3464,3.3728,3.4968,3.5872,0.0,0.0,3.6147,3.6289,3.5754,3.5114,0.0,0.0,0.0,0.0,0.0,0.0,0.0,0.0,0.0,0.0,0.0,0.0,0.0,0.0,0.0,0.0,0.0,0.0,0.0,0.0,0.0,0.0,0.0,0.0,0.0,0.0,0.0,0.0,0.0,0.0,0.0,0.0,0.0,0.0,0.0,0.0,0.0,0.0,0.0,0.0,0.0,0.0,0.0,0.0,0.0,0.0,0.0,0.0,0.0,0.0,0.0,0.0,0.0,0.0,0.0,2.6323,2.712,2.8114,2.9357,2.9524,2.9012,2.7862,2.7805,2.6638,0.0,0.0,0.0,0.0,0.0,0.0,0.0,0.0,0.0,0.0,0.0,0.0,0.0,0.0,0.0,0.0,0.0,0.0,0.0,0.0,0.0,0.0,0.0,0.0,0.0,0.0,0.0,0.0,0.0,0.0,0.0,0.0,0.0,0.0,0.0,0.0,0.0,0.0,0.0,0.0,0.0,3.3744,3.442,3.5364,3.5991,0.0,3.616,3.6273,3.6306,3.6257,3.5949,3.5247,0.0,0.0,0.0,0.0,0.0,0.0,0.0,0.0,0.0,0.0,0.0,0.0,0.0,0.0,0.0,0.0,0.0,0.0,0.0,0.0,0.0,0.0,0.0,0.0,0.0,0.0,0.0,0.0,0.0,0.0,0.0,0.0,0.0,0.0,0.0,0.0,0.0,0.0,0.0,0.0,0.0,0.0,0.0,0.0,0.0,0.0,0.0,0.0,0.0,0.0,0.0,0.0,0.0,2.4855,2.705,2.7475,2.8277,2.9468,2.9571,2.918,2.8366,2.8016,2.6807,0.0,0.0,0.0,0.0,0.0,0.0,0.0,0.0,0.0,0.0,0.0,0.0,0.0,0.0,0.0,0.0,0.0,0.0,0.0,0.0,0.0,0.0,0.0,0.0,0.0,0.0,0.0,0.0,2.4302,2.5023,2.6177,0.0,0.0,0.0,0.0,0.0,0.0,0.0,0.0,0.0,0.0,3.5113,3.6007,3.6837,0.0,0.0,3.7829,3.776,3.8211,3.7583,3.6923,3.666,3.6333,0.0,0.0,0.0,0.0,0.0,0.0,0.0,0.0,0.0,0.0,0.0,0.0,0.0,0.0,0.0,0.0,0.0,0.0,0.0,0.0,0.0,0.0,0.0,0.0,0.0,0.0,0.0,0.0,0.0,0.0,0.0,0.0,0.0,0.0,0.0,0.0,0.0,0.0,0.0,0.0,0.0,0.0,0.0,0.0,0.0,0.0,0.0,0.0,0.0,0.0,0.0,0.0,2.5519,2.7573,2.7901,2.8563,2.9574,2.9602,2.9321,2.8732,2.8114,2.7032,0.0,0.0,0.0,0.0,0.0,0.0,0.0,0.0,0.0,0.0,0.0,0.0,0.0,0.0,0.0,0.0,0.0,0.0,0.0,0.0,0.0,0.0,0.0,0.0,0.0,0.0,0.0,0.0,2.5181,2.6082,2.7257,0.0,0.0,0.0,0.0,0.0,0.0,0.0,0.0,0.0,0.0,3.6384,3.7313,3.8092,3.8858,3.9687,3.9423,3.9289,3.9807,3.9139,3.8485,3.8344,0.0,0.0,0.0,0.0,0.0,0.0,0.0,0.0,0.0,0.0,0.0,0.0,0.0,0.0,0.0,0.0,0.0,0.0,0.0,0.0,0.0,0.0,0.0,0.0,0.0,0.0,0.0,1.8945,0.0,0.0,1.8907,0.0,0.0,0.0,0.0,0.0,0.0,0.0,0.0,0.0,0.0,0.0,0.0,0.0,0.0,0.0,0.0,0.0,0.0,0.0,0.0,0.0,0.0,2.6483,2.7777,2.8367,2.897,2.9588,2.9602,2.9321,2.8747,2.8128,2.7272,2.6097,0.0,0.0,0.0,0.0,0.0,0.0,0.0,0.0,0.0,0.0,0.0,0.0,0.0,0.0,0.0,0.0,0.0,0.0,0.0,0.0,0.0,0.0,0.0,0.0,0.0,0.0,2.5882,2.6609,2.7336,0.0,0.0,0.0,0.0,0.0,0.0,0.0,0.0,0.0,0.0,3.6103,3.7329,3.8096,3.8935,3.9718,4.0398,4.0629,4.075,4.0766,4.0847,4.076,0.0,0.0,0.0,0.0,0.0,0.0,0.0,0.0,0.0,0.0,0.0,0.0,0.0,0.0,0.0,0.0,0.0,0.0,0.0,0.0,0.0,0.0,0.0,0.0,0.0,0.0,0.0,2.1516,2.1012,0.0,0.0,0.0,0.0,0.0,0.0,0.0,0.0,0.0,0.0,0.0,2.5562,2.5649,0.0,0.0,0.0,0.0,0.0,0.0,0.0,0.0,0.0,0.0,0.0,0.0,2.6512,2.7763,2.8395,2.8998,2.9573,2.9602,2.9551,2.9434,2.8856,2.7854,2.6463,0.0,0.0,0.0,0.0,0.0,0.0,0.0,0.0,0.0,0.0,0.0,0.0,0.0,0.0,0.0,0.0,0.0,0.0,0.0,0.0,0.0,0.0,0.0,0.0,0.0,2.6493,0.0,0.0,0.0,0.0,0.0,0.0,0.0,0.0,0.0,0.0,0.0,3.5531,3.6871,3.7506,3.8302,3.9549,4.01,4.0611,0.0,0.0,0.0,0.0,0.0,0.0,0.0,0.0,0.0,0.0,0.0,0.0,0.0,0.0,4.0881,3.9638,3.9042,3.8717,3.8561,0.0,0.0,0.0,0.0,0.0,0.0,0.0,0.0,0.0,0.0,0.0,0.0,0.0,0.0,2.373,0.0,2.3177,0.0,0.0,0.0,0.0,0.0,0.0,0.0,0.0,2.6124,2.6777,2.7307,2.751,2.7543,0.0,2.6809,2.5848,0.0,0.0,0.0,0.0,0.0,0.0,0.0,0.0,2.7074,2.8086,2.8704,2.9209,2.9573,2.9649,2.9713,2.9793,2.9364,2.8412,2.6864,2.581,2.4879,0.0,0.0,0.0,0.0,0.0,0.0,0.0,0.0,0.0,0.0,0.0,0.0,0.0,0.0,0.0,0.0,0.0,0.0,0.0,0.0,0.0,0.0,0.0,2.7541,0.0,0.0,0.0,0.0,0.0,0.0,0.0,0.0,0.0,3.491,3.5901,3.7126,3.8476,3.8845,3.9484,4.0767,0.0,0.0,0.0,0.0,0.0,0.0,0.0,4.2643,4.2755,4.2918,4.2966,4.2766,4.3317,4.3754,4.352,0.0,0.0,4.1881,4.1152,4.088,4.0905,4.052,4.0193,4.021,4.0204,4.0193,0.0,0.0,0.0,0.0,0.0,0.0,0.0,0.0,2.6214,2.6117,0.0,2.541,0.0,0.0,0.0,0.0,0.0,2.5584,0.0,0.0,2.7905,2.8511,2.8695,2.9257,2.9214,2.8644,2.8101,2.761,2.7135,2.5381,0.0,0.0,0.0,0.0,0.0,0.0,2.8114,2.8717,2.9321,2.9645,2.9702,2.9814,2.9865,2.9853,2.9721,2.8908,2.7401,2.7359,2.6934,2.59,2.4598,0.0,0.0,0.0,0.0,0.0,0.0,0.0,0.0,0.0,0.0,0.0,0.0,0.0,0.0,0.0,0.0,0.0,0.0,0.0,0.0,2.7696,0.0,0.0,0.0,0.0,0.0,0.0,0.0,0.0,0.0,0.0,3.7371,3.7854,3.8588,3.946,0.0,0.0,0.0,0.0,4.227,4.334,4.3588,4.3828,4.4152,4.4291,4.4505,4.4816,0.0,0.0,4.4124,4.519,4.5932,4.54,4.6409,4.6598,4.3709,4.3274,4.328,4.3293,4.3241,4.3241,4.3189,4.2982,4.3046,2.9361,0.0,0.0,0.0,0.0,2.7818,2.801,2.814,2.8335,2.8014,2.7417,2.7279,0.0,0.0,0.0,0.0,0.0,0.0,2.8073,2.8701,2.947,2.9839,2.992,3.0218,3.0272,3.0078,3.0033,2.9923,2.9755,2.8555,2.7494,2.6661,0.0,0.0,0.0,0.0,2.8731,2.9336,2.9938,3.0536,3.1088,3.1136,3.1101,3.0989,3.0499,3.0015,2.9547,2.8452,2.7743,2.7509,2.6317,0.0,0.0,0.0,0.0,0.0,0.0,0.0,0.0,0.0,0.0,0.0,0.0,0.0,0.0,0.0,0.0,0.0,0.0,0.0,2.915,2.9457,2.9899,0.0,0.0,0.0,0.0,0.0,0.0,0.0,0.0,0.0,4.0193,4.0031,4.0156,0.0,0.0,4.194,4.3315,4.371,4.4157,4.4976,4.5549,0.0,4.5997,4.6259,4.6473,4.6558,4.6674,4.6686,4.6636,4.6955,4.7193,4.701,4.7338,4.7338,4.658,4.5935,4.5648,4.5609,4.5182,4.4596,4.4108,4.3983,4.3845,3.173,3.0375,2.9978,2.9768,2.9689,2.9689,2.9851,3.0106,3.012,2.9883,2.9503,2.9342,2.9056,2.871,2.8522,0.0,0.0,0.0,2.9714,3.0084,3.0682,3.0955,3.0969,3.1336,3.1361,3.1158,3.1202,3.1177,3.1012,3.0422,2.9764,2.9056,0.0,0.0,2.8522,2.8872,2.949,3.0319,3.0761,3.1225,3.1676,3.1661,3.1698,3.1879,3.1233,3.0875,3.0757,2.9861,2.9169,2.8759,2.7852,2.6905,0.0,0.0,0.0,0.0,0.0,0.0,0.0,0.0,0.0,0.0,0.0,2.5523,2.6145,0.0,0.0,0.0,2.8582,2.9576,3.0512,3.0905,0.0,0.0,0.0,0.0,0.0,0.0,0.0,3.9104,3.988,4.0769,4.184,4.1918,4.2076,4.2607,4.3039,4.3684,4.4693,0.0,4.556,4.6117,4.6591,4.6932,4.7066,4.7236,4.7392,4.7448,4.7536,4.7592,4.7689,4.7927,4.8134,4.8169,4.8393,4.8617,4.86,4.8238,4.7703,4.7151,4.6669,4.6169,4.573,4.5661,4.5506,3.3936,3.3368,3.2258,3.1696,3.1569,3.1569,3.1597,3.1626,3.164,3.1597,3.1569,3.1361,3.1235,3.1163,3.0979,0.0,3.0963,3.0977,3.1005,3.106,3.1613,3.1875,3.1889,3.2445,3.2431,3.1924,3.191,3.1722,3.1378,3.1325,3.1394,3.1516,2.9239,2.8648,2.9701,2.9771,3.0363,3.156,3.1726,3.1839,3.1914,3.1799,3.2011,3.2572,3.1972,3.1525,3.132,3.1372,3.092,2.985,2.9223,2.8623,2.8002,0.0,0.0,0.0,0.0,0.0,0.0,0.0,0.0,0.0,0.0,0.0,0.0,0.0,0.0,0.0,3.0467,0.0,3.146,3.2209,0.0,0.0,0.0,3.6066,3.8094,3.8498,3.9169,4.0496,0.0,0.0,4.2715,4.3603,4.4185,4.4217,4.5026,4.5706,4.5895,4.6219,4.657,4.6978,4.7146,4.7332,4.7735,4.7806,4.7876,4.7972,4.7893,4.7979,4.8013,4.8444,4.8858,4.891,4.9496,4.9944,4.9979,4.9858,4.9562,4.8151,4.7893,4.7858,4.7686,4.7669,4.76,3.488,3.4725,3.4444,3.3498,3.2188,3.2188,3.2455,3.2859,3.289,3.262,3.2171,3.1959,3.1558,3.0979,3.0911,3.1157,3.1599,3.1585,3.1834,3.2275,3.2414,3.2483,3.25,3.2794,3.2851,3.2744,3.2863,3.2895,3.2793,3.233,3.2154,3.2145,3.1134,3.0771,3.1052,3.1152,3.1615,3.2407,3.2561,3.2992,3.3737,3.3781,3.3614,3.3275,3.2957,3.2592,3.2127,3.174,3.1523,3.1396,3.0334,2.9434,2.8836,2.8018,0.0,0.0,0.0,0.0,0.0,0.0,0.0,0.0,0.0,2.8419,2.8575,0.0,3.0519,0.0,3.1595,3.2631,3.368,3.4053,0.0,0.0,3.6961,3.7897,3.9077,4.0173,4.116,4.2003,4.2731,4.3524,4.4399,4.5293,4.593,4.6171,4.5952,4.6089,4.6992,4.7386,4.7802,4.8442,4.8813,4.9071,4.911,4.9312,4.9367,4.9462,4.9427,4.9459,4.9427,4.9597,4.972,4.9735,4.9855,4.9979,5.0031,4.9996,4.991,4.9528,4.9444,4.9255,4.8686,4.8548,4.8376,3.5597,3.5569,3.532,3.4598,3.3624,3.334,3.3406,3.3669,3.342,3.3111,3.2788,3.2674,3.2388,3.1964,3.1964,3.2163,3.2465,3.2465,3.2646,3.2966,3.298,3.298,3.2966,3.3086,3.3139,3.3139,3.3241,3.3294,3.328,3.2971,3.2788,3.2803,3.2568,3.245,3.2436,3.2254,3.2541,3.3322,3.3643,3.4137,3.4854,3.4688,3.448,3.4257,3.3572,3.3146,3.2987,3.2474,3.2122,3.1987,3.1369,3.0735,3.0046,2.9094,2.8383,0.0,0.0,0.0,0.0,0.0,0.0,0.0,0.0,0.0,0.0,0.0,3.2076,3.2743,3.3501,3.4415,3.5532,3.6023,3.6789,3.7923,3.875,3.9549,4.0333,4.1387,4.231,4.3023,4.3815,4.4626,4.5424,4.6159,4.6847,4.7402,4.7341,4.7457,4.8089,4.8435,4.8815,4.9342,4.9649,4.9813,4.983,4.9935,4.9996,4.9996,4.9996,4.9996,4.9996,4.9996,5.0114,5.0407,5.0479,5.0599,5.0893,5.0979,5.0962,5.0962,5.0962,5.0548,4.9565,4.9324,4.9169,3.623,3.6174,3.5653,3.5428,3.539,3.4712,3.4403,3.4305,3.3771,3.3533,3.3533,3.3547,3.3505,3.342,3.3434,3.3378,3.3294,3.3294,3.3294,3.3294,3.3294,3.3294,3.3294,3.3294,3.3294,3.3294,3.3294,3.3326,3.3329,3.3329,3.3329,3.3396,3.3553,3.3657,3.3695,3.3186,3.3359,3.423,3.4719,3.5164,3.5506,3.5113,3.5001,3.5141,3.4024,3.3494,3.3684,3.3187,3.2667,3.2214,3.2259,3.1994,3.1353,3.0093,2.9367,0.0,2.8821,0.0,0.0,0.0,0.0,0.0,0.0,0.0,0.0,3.2443,3.3556,3.5067,3.5735,3.6437,3.724,3.8055,3.8769,3.9432,4.0194,4.0965,4.1759,4.2407,4.3087,4.3913,4.4724,4.5506,4.6224,4.6749,4.7353,4.8077,4.8558,4.8835,4.9077,4.9286,4.9526,4.9725,4.9889,4.9982,4.9999,5.0082,5.0168,5.0183,5.0324,5.0287,5.0373,5.0341,5.0528,5.1082,5.1237,5.1444,5.2099,5.2151,5.2151,5.2082,5.2065,5.1703,5.0666,5.0218,5.0149,3.6829,3.6815,3.6703,3.6661,3.6604,3.6,3.5452,3.5002,3.4894,3.4851,3.4851,3.4851,3.452,3.4066,3.402,3.3754,3.3308,3.3294,3.3294,3.3294,3.3294,3.3294,3.3294,3.3294,3.3294,3.3294,3.3294,3.3396,3.355,3.355,3.3623,3.3793,3.3827,3.3983,3.4213,0.0,0.0,0.0,3.5261,3.5474,3.5654,3.5837,3.5675,3.5202,3.4587,0.0,3.3872,3.3228,3.2956,3.3035,3.2579,0.0,0.0,0.0,0.0,0.0,0.0,0.0,0.0,0.0,0.0,0.0,3.33,3.3439,3.3169,3.4383,3.5774,3.7162,3.7566,3.8278,3.9551,3.9878,4.0353,4.1049,4.1305,4.1888,4.312,4.3427,4.4042,4.5472,4.5814,4.6289,4.721,4.7622,4.7932,4.837,4.8768,4.9094,4.9385,4.9547,4.9725,4.9906,5.005,5.0031,4.9996,5.0531,5.0875,5.0944,5.1427,5.1703,5.1703,5.172,5.1755,5.1996,5.1981,5.203,5.222,5.2186,5.2289,5.2203,5.222,5.2134,5.1841,5.1306,5.092,3.6978,3.6978,3.6978,3.6978,0.0,3.6675,3.6385,3.6042,3.5475,3.5189,3.5189,3.5189,3.5002,3.4688,3.4688,3.4538,3.4257,3.4243,3.4243,3.4243,3.4243,3.4257,3.4243,3.4333,3.4387,3.4401,3.449,3.458,3.4669,3.4686,3.4793,3.4984,3.5057,3.5218,3.5484,3.5431,3.5376,3.5358,3.5685,3.5894,3.5974,3.6211,3.6183,3.5861,3.5307,0.0,0.0,0.0,0.0,0.0,0.0,0.0,0.0,0.0,0.0,3.1757,3.206,3.2237,3.2269,3.3227,3.397,3.4334,3.5506,3.6102,3.5851,3.6598,3.7663,3.9032,3.9282,3.9778,4.0812,4.1001,4.1467,4.2471,4.2649,4.3071,4.4059,4.4544,4.508,4.5928,4.6518,4.706,4.7754,4.8065,4.834,4.8611,4.9001,4.9443,4.99,4.9859,4.9872,5.0449,5.0875,5.1099,5.1099,5.1358,5.1651,5.1703,5.1961,5.2168,5.2186,5.2186,5.2323,5.2668,5.2789,5.2875,5.3254,5.3323,5.3323,5.3323,5.3341,5.3387,5.3397,5.2598,5.18,3.6978,3.6978,3.6978,3.6978,3.6978,3.6978,3.6978,3.6928,0.0,0.0,0.0,3.5513,3.5456,3.5358,3.5376,3.5302,3.5222,3.5226,3.5259,3.5244,3.5281,3.53,3.53,3.5465,3.5553,3.5571,3.5753,3.5862,3.588,3.5917,3.6043,3.624,3.6369,3.6514,3.6752,3.673,3.643,3.583,3.6051,3.6227,3.6258,3.6414,3.6492,3.6492,3.586,3.5611,3.5878,3.5252,3.477,3.4512,3.4478,3.4254,3.3688,3.3148,3.2858,3.2876,3.3369,3.3659,3.3688,3.4857,3.5723,3.6001,3.7293,3.8181,3.8372,3.8628,3.9313,4.0592,4.0706,4.0981,4.1694,4.1904,4.2439,4.3589,4.38,4.4172,4.4885,4.5485,4.5925,4.637,4.7077,4.7704,4.8001,4.834,4.8694,4.9016,4.9455,4.9977,5.0619,5.0536,5.0535,5.119,5.1703,5.2117,5.2203,5.2341,5.241,5.2427,5.2548,5.2617,5.2617,5.2599,5.2875,5.3494,5.358,5.3822,5.4339,5.4391,5.4512,5.4512,5.451,5.459,5.466,5.3853,5.2996,3.6978,3.6978,3.6978,3.6978,3.6978,3.6978,3.6978,3.6984,3.6815,3.6745,3.6745,3.6745,3.645,3.5977,3.5958,3.5695,3.5222,3.5373,3.5447,3.5465,3.5626,3.5731,3.5717,3.5735,3.5753,3.5786,3.5967,3.6115,3.6244,3.6408,3.6588,3.6775,3.6813,3.702,3.7381,3.7817,3.7671,3.6954,3.647,3.6274,3.646,3.6476,3.6492,3.6461,3.586,3.5626,3.5878,3.5269,3.5005,3.5222,3.5252,3.5189,3.5108,3.4982,3.4966,3.4966,3.5061,3.5094,3.511,3.5837,3.6903,3.8325,3.8719,3.892,3.9065,3.9775,4.056,4.1353,4.1418,4.1711,4.2392,4.3006,4.3427,4.3751,4.4269,4.4901,4.5598,4.5909,4.6402,4.7141,4.7655,4.7968,4.8163,4.8534,4.9086,4.9747,5.0294,5.0857,5.1655,5.1899,5.1897,5.2015,5.2117,5.2186,5.2427,5.2823,5.3166,5.322,5.3703,5.3979,5.3994,5.3979,5.4047,5.4305,5.4254,5.4356,5.4512,5.4512,5.4512,5.4527,5.4622,5.4749,5.4844,5.4681,5.453,3.6978,3.6978,3.6978,3.6978,3.6978,3.6978,3.6978,3.7012,3.7115,3.7109,3.6998,3.6978,3.6901,3.6744,3.6763,3.6665,3.6509,3.6603,3.6636,3.6641,3.673,3.6842,3.6944,3.7037,3.7162,3.7268,3.7456,3.7587,3.766,3.7768,3.7948,3.8249,3.8476,3.8542,3.8453,3.8678,3.8492,3.7901,3.7242,3.6767,3.6507,3.6492,3.6492,3.6492,3.6261,3.6243,3.6501,3.6262,3.6079,3.5949,3.5933,3.5789,3.5424,3.5408,3.5408,3.5424,3.5728,3.5933,3.5933,3.6928,3.7962,3.8928,3.9709,4.0247,4.0489,4.087,4.1402,4.2067,4.2148,4.2424,4.312,4.3508,4.401,4.4787,4.516,4.5663,4.6413,4.6644,4.6959,4.7522,4.782,4.8082,4.8324,4.9026,4.9664,5.0259,5.1151,5.2181,5.2776,5.3168,5.3272,5.2961,5.3168,5.3427,5.3444,5.372,5.3977,5.3996,5.427,5.4494,5.4512,5.4512,5.4512,5.4512,5.4512,5.4512,5.4512,5.4512,5.4543,5.4655,5.4717,5.4826,5.4976,5.5187,5.5216,3.7316,3.7209,3.7209,3.7144,3.707,3.707,3.7095,3.7134,3.7303,3.7284,3.7134,3.7115,3.7226,3.7361,3.7361,3.7438,3.7591,3.7687,3.7725,3.7744,3.7839,3.7972,3.8127,3.8258,3.8408,3.859,3.8815,3.8925,3.8943,3.9035,3.9213,3.955,3.9889,3.9847,3.9451,3.9486,3.9266,3.8738,3.8214,3.7554,3.6753,3.66,3.6492,3.6507,3.6616,3.6785,3.7,3.715,3.7017,3.6677,3.6644,3.6407,3.593,3.5867,3.5867,3.5914,3.6374,3.6723,3.6914,3.8034,3.8945,3.9439,4.046,4.1306,4.1745,4.1823,4.2035,4.2521,4.2732,4.3104,4.3622,4.4026,4.4625,4.5678,4.5969,4.6346,4.7052,4.7234,4.7386,4.7721,4.7968,4.8278,4.8833,4.9604,5.0378,5.114,5.2431,5.3423,5.3687,5.4151,5.4201,5.3977,5.4134,5.4375,5.4512,5.4477,5.4461,5.4512,5.4494,5.4512,5.4512,5.4512,5.4512,5.4512,5.4559,5.4575,5.4575,5.4606,5.4684,5.4811,5.4886,5.4976,5.5234,5.5398,5.5534,3.8361,3.785,3.7821,3.7603,3.7326,3.7298,3.7394,3.7529,3.7567,3.7553,3.7553,3.7534,3.7553,3.7553,3.7572,3.761,3.7649,3.7976,3.8146,3.8198,3.8538,3.869,3.8705,3.8727,3.876,3.8819,3.9159,3.9355,3.9355,3.9696,3.9889,3.996,4.0172,4.0246,4.0189,4.0295,4.0042,3.9413,3.9337,3.8691,3.7461,3.6815,3.6492,3.6492,3.6631,3.68,3.7,3.7104,3.7268,3.7385,3.7369,3.7353,3.7274,3.729,3.7304,3.729,3.7369,3.7654,3.8255,3.8997,3.9833,4.0782,4.1005,4.1515,4.2376,4.2505,4.2537,4.2732,4.3201,4.3589,4.3783,4.4804,4.5565,4.5873,4.6391,4.6897,4.7167,4.7369,4.7604,4.7935,4.8261,4.8766,4.9562,5.0217,5.1123,5.2549,5.3512,5.4223,5.4272,5.4391,5.4478,5.4391,5.4478,5.4494,5.4512,5.4512,5.4512,5.4512,5.4512,5.4512,5.4527,5.4527,5.4512,5.4622,5.467,5.4764,5.4795,5.4855,5.493,5.4976,5.5081,5.5214,5.5431,5.5578,5.5663,3.8822,3.867,3.8684,3.8422,3.8093,3.807,3.7876,3.762,3.7739,3.7839,3.7953,3.8085,3.8066,3.7957,3.7957,3.8071,3.8333,3.8486,3.8575,3.856,3.8727,3.887,3.898,3.9104,3.9195,3.9343,3.9625,3.9732,3.9801,4.0064,4.0172,4.0189,4.0331,4.0418,4.0403,4.0487,4.0336,4.0091,3.9691,3.923,3.863,3.7631,3.7108,3.7093,3.6956,3.6892,3.7014,3.724,3.742,3.7495,3.751,3.751,3.751,3.751,3.7685,3.808,3.846,3.8807,3.9076,3.974,4.042,4.1069,4.1469,4.1965,4.2555,4.3007,4.3249,4.3282,4.3525,4.3994,4.4803,4.5484,4.5969,4.6375,4.6817,4.715,4.7352,4.7504,4.7754,4.8099,4.8724,4.9349,5.009,5.1198,5.2465,5.3681,5.4325,5.4494,5.4512,5.4512,5.4512,5.4512,5.4512,5.4512,5.4512,5.4512,5.4512,5.4512,5.4512,5.4527,5.4655,5.4686,5.4684,5.4761,5.4855,5.4917,5.49,5.4946,5.5022,5.5111,5.5336,5.5514,5.5607,5.5721,5.5836,3.9571,3.9524,3.9353,3.9139,3.8928,3.9007,3.8802,3.8409,3.8428,3.8497,3.8618,3.8589,3.8534,3.8445,3.8389,3.8523,3.8778,3.887,3.8925,3.8962,3.9035,3.9162,3.9355,3.9499,3.9625,3.9785,3.9978,4.0101,4.0154,4.0277,4.0349,4.0366,4.0455,4.0489,4.0489,4.0489,4.0489,4.0443,3.9999,3.9784,3.9614,3.8645,3.7969,3.7785,3.7591,3.7514,3.7561,3.7821,3.8019,3.8048,3.8048,3.8048,3.8048,3.8048,3.827,3.8776,3.9439,3.9787,3.9803,4.0467,4.1023,4.1358,4.1837,4.2318,4.2863,4.3395,4.3881,4.4285,4.4302,4.4804,4.5565,4.5986,4.6359,4.6829,4.7081,4.7268,4.747,4.7654,4.8001,4.8544,4.9221,5.0049,5.0889,5.2323,5.3669,5.4276,5.4478,5.4512,5.4512,5.4512,5.4512,5.4512,5.4512,5.4512,5.4512,5.4512,5.4512,5.4527,5.4527,5.4655,5.478,5.4811,5.484,5.49,5.4992,5.505,5.5066,5.5081,5.5189,5.5354,5.5546,5.5721,5.575,5.5876,5.6035,4.0981,4.0373,3.9773,3.9665,3.9773,4.0025,4.0207,4.0154,3.9868,3.9713,3.9629,3.9136,3.8903,3.9094,3.8948,3.8811,3.8852,3.905,3.9228,3.9388,3.9571,3.9768,3.9943,3.996,3.9993,3.9996,4.0189,4.0331,4.0437,4.0472,4.0489,4.0472,4.0489,4.0489,4.0489,4.0489,4.0489,4.0474,4.0413,4.0428,4.0336,3.9737,3.9076,3.8585,3.8626,3.8679,3.8855,3.9077,3.9235,3.9376,3.9313,3.9345,3.936,3.9376,3.9408,3.9518,4.0151,4.0546,4.0625,4.1146,4.1657,4.1965,4.2045,4.2527,4.3428,4.3703,4.4302,4.5548,4.5597,4.5726,4.5905,4.6407,4.6764,4.6912,4.7081,4.7301,4.7487,4.7869,4.8463,4.9273,4.9851,5.0847,5.25,5.3562,5.4114,5.4414,5.4512,5.4512,5.4512,5.4512,5.4512,5.4512,5.4512,5.4512,5.4512,5.4543,5.4543,5.4575,5.4686,5.4813,5.4842,5.4886,5.4961,5.5053,5.5141,5.5202,5.5232,5.5336,5.5487,5.5604,5.5695,5.5811,5.595,5.6063,5.6217,4.1435,4.1474,4.1372,4.122,4.1036,4.1135,4.0979,4.0694,4.0502,4.0514,4.0599,4.0494,4.0338,4.0117,4.0184,3.9892,3.9442,3.9574,3.9729,3.9801,3.9887,3.9943,4.0011,4.0134,4.0189,4.0224,4.0349,4.0437,4.0489,4.0489,4.0489,4.0489,4.0489,4.0489,4.0489,4.0489,4.0489,4.0489,4.0489,4.0489,4.0489,4.0276,4.0014,3.9753,3.9134,3.8849,3.9011,3.9187,3.9361,3.9487,3.9487,3.9487,3.9534,3.9945,4.0214,4.0277,4.0862,4.1241,4.1257,4.1446,4.1753,4.2045,4.2093,4.2575,4.3525,4.414,4.4804,4.5646,4.6261,4.6471,4.652,4.6764,4.6961,4.7081,4.7268,4.7453,4.7753,4.8349,4.9093,4.9688,5.0782,5.2368,5.3326,5.4117,5.4415,5.4496,5.4512,5.4512,5.4512,5.4512,5.4512,5.4512,5.4512,5.4512,5.4512,5.4622,5.4702,5.4749,5.4826,5.4963,5.5037,5.5081,5.5154,5.5297,5.5369,5.5443,5.547,5.5587,5.575,5.5836,5.5911,5.6039,5.6207,5.6328,5.646,4.1987,4.2234,4.2433,4.2311,4.2034,4.2099,4.1927,4.1591,4.1476,4.1541,4.1683,4.164,4.143,4.1182,4.1334,4.1125,4.0516,4.0206,4.0031,4.0084,4.0101,4.0134,4.0172,4.0312,4.0349,4.0366,4.0453,4.0489,4.0489,4.0489,4.0489,4.0489,4.0489,4.0489,4.0489,4.0489,4.0489,4.0489,4.0489,4.0489,4.0489,4.0489,4.0489,4.0416,3.9748,3.9467,3.9666,3.9811,3.9989,4.015,4.0182,4.0166,4.0245,4.064,4.0909,4.0972,4.1336,4.1588,4.1588,4.1588,4.172,4.2028,4.2333,4.288,4.3864,4.4673,4.5386,4.6067,4.6553,4.6893,4.6893,4.6893,4.6996,4.7183,4.7386,4.7587,4.782,4.8795,4.9724,5.072,5.2188,5.3446,5.407,5.4333,5.4463,5.4512,5.4512,5.4512,5.4512,5.4512,5.4512,5.4512,5.4512,5.4543,5.4622,5.4747,5.4795,5.4826,5.4961,5.5129,5.5217,5.5274,5.5363,5.5519,5.5625,5.568,5.575,5.5865,5.5947,5.6046,5.6148,5.6277,5.6424,5.6568,5.6702,4.2668,4.2688,4.2694,4.2734,4.2761,4.2906,4.3091,4.309,4.2821,4.2753,4.2811,4.2345,4.2132,4.2055,4.2206,4.2267,4.1894,4.0837,4.0319,4.0417,4.0325,4.0349,4.0455,4.047,4.0472,4.0472,4.0489,4.0489,4.0489,4.0489,4.0489,4.0489,4.0489,4.0489,4.0489,4.0489,4.0489,4.0489,4.0489,4.0489,4.0489,4.0489,4.0489,4.0489,4.0399,4.0524,4.0959,4.0992,4.1082,4.138,4.1462,4.1557,4.1431,4.151,4.1557,4.1509,4.1605,4.1588,4.1588,4.1588,4.1687,4.2074,4.2716,4.3505,4.4458,4.5254,4.6002,4.6601,4.6829,4.6893,4.6893,4.6927,4.7013,4.7184,4.7403,4.7637,4.8183,4.9025,5.0387,5.2143,5.3451,5.4105,5.4238,5.4367,5.4496,5.4512,5.4512,5.4512,5.4512,5.4512,5.4512,5.4512,5.4543,5.4606,5.4747,5.4904,5.4888,5.4886,5.5098,5.5262,5.5369,5.544,5.5558,5.5695,5.5897,5.595,5.5993,5.6088,5.6213,5.631,5.641,5.6492,5.6649,5.6794,5.6868,4.2864,4.311,4.311,4.3309,4.3581,4.366,4.3738,4.3778,4.3648,4.363,4.3662,4.3594,4.3335,4.3006,4.3116,4.2944,4.248,4.1963,4.1582,4.119,4.0699,4.0484,4.0503,4.0505,4.0489,4.0489,4.0489,4.0489,4.0489,4.0489,4.0489,4.0489,4.0489,4.0489,4.0489,4.0489,4.0489,4.0489,4.0489,4.0489,4.0489,4.0489,4.0489,4.0489,4.0489,4.0627,4.0882,4.1034,4.1187,4.1374,4.1522,4.1588,4.1588,4.1588,4.1588,4.1588,4.1588,4.1588,4.1588,4.1637,4.1908,4.2502,4.2987,4.3873,4.5037,4.5593,4.6147,4.678,4.6893,4.6893,4.6911,4.703,4.7183,4.7403,4.747,4.7934,4.8961,5.0457,5.2012,5.3271,5.3941,5.4205,5.4367,5.4496,5.4496,5.4512,5.4512,5.4512,5.4512,5.4512,5.4512,5.4512,5.459,5.4684,5.4824,5.4976,5.5068,5.5113,5.5279,5.5396,5.5502,5.5648,5.575,5.5922,5.6106,5.6231,5.6273,5.6338,5.6474,5.6582,5.6649,5.6768,5.6899,5.7003,5.7061,4.3265,4.3547,4.3562,4.3734,4.4003,4.4022,4.4065,4.4089,4.4108,4.4166,4.4243,4.4343,4.4186,4.3871,4.3922,4.3725,4.3325,4.3094,4.2743,4.2263,4.1614,4.1184,4.0907,4.0599,4.0489,4.0489,4.0489,4.0489,4.0489,4.0489,4.0489,4.0489,4.0489,4.0489,4.0489,4.0489,4.0489,4.0489,4.0489,4.0489,4.0489,4.0489,4.0489,4.0489,4.0489,4.0576,4.0696,4.0966,4.1153,4.129,4.1506,4.1588,4.1588,4.1588,4.1588,4.1588,4.1588,4.1588,4.162,4.1889,4.2207,4.28,4.3528,4.4352,4.5371,4.5849,4.6455,4.6796,4.6893,4.6893,4.6944,4.7081,4.7301,4.747,4.7537,4.8266,4.9726,5.1476,5.2834,5.3724,5.4191,5.4351,5.4464,5.4512,5.4512,5.4512,5.4512,5.4512,5.4512,5.4512,5.4512,5.4543,5.467,5.4762,5.4871,5.5053,5.5229,5.5351,5.547,5.5561,5.5637,5.5839,5.5996,5.6231,5.6424,5.6501,5.6541,5.6622,5.671,5.6807,5.6881,5.6972,5.7074,5.715,5.7239,4.3832,4.4007,4.4026,4.4026,4.4065,4.4065,4.4166,4.4301,4.432,4.4416,4.4568,4.4553,4.4556,4.456,4.4483,4.4437,4.4452,4.3929,4.3636,4.3436,4.294,4.2371,4.1663,4.1122,4.0891,4.0797,4.0689,4.0612,4.0691,4.0551,4.0489,4.0489,4.0489,4.0489,4.0489,4.0489,4.0489,4.0489,4.0489,4.0489,4.0489,4.0489,4.0489,4.0489,4.0489,4.0507,4.0576,4.0898,4.1186,4.1323,4.1506,4.1588,4.1588,4.1588,4.1588,4.1588,4.1588,4.1667,4.1794,4.2253,4.2743,4.3109,4.429,4.5325,4.5539,4.6282,4.6796,4.6877,4.6893,4.6893,4.6928,4.7098,4.7351,4.7619,4.8051,4.8962,5.0559,5.2109,5.3249,5.3875,5.4289,5.4512,5.4512,5.4512,5.4512,5.4512,5.4512,5.4512,5.4512,5.4512,5.4512,5.459,5.4749,5.4869,5.4974,5.5159,5.5351,5.5499,5.5648,5.575,5.5854,5.6067,5.6263,5.6492,5.6675,5.6755,5.6834,5.6868,5.6946,5.7023,5.71,5.7176,5.7251,5.7344,5.7412,4.4046,4.4205,4.4224,4.4301,4.4419,4.4454,4.4458,4.4515,4.4496,4.4549,4.4591,4.4591,4.4591,4.4591,4.4591,4.4591,4.4529,4.4406,4.4329,4.4314,4.419,4.3387,4.254,4.2155,4.1999,4.1922,4.1491,4.1324,4.1261,4.0845,4.0582,4.0489,4.0612,4.0551,4.0489,4.0536,4.0489,4.0489,4.0489,4.0489,4.0489,4.0489,4.0489,4.0489,4.0489,4.0489,4.0539,4.0881,4.1253,4.1489,4.1572,4.1588,4.1588,4.1588,4.162,4.1668,4.1668,4.1889,4.2315,4.2632,4.3153,4.4087,4.4846,4.5517,4.6012,4.6555,4.6875,4.6893,4.6893,4.6893,4.6961,4.7249,4.7817,4.8796,4.9393,5.0276,5.1546,5.287,5.3809,5.3995,5.4287,5.4464,5.4512,5.4512,5.4512,5.4512,5.4512,5.4512,5.4512,5.4512,5.4512,5.47,5.4855,5.499,5.5124,5.5309,5.5472,5.5634,5.5793,5.595,5.6106,5.6314,5.6505,5.6702,5.6873,5.6977,5.7036,5.71,5.7176,5.7251,5.7338,5.7412,5.748,5.7541,5.7601,4.4243,4.4416,4.4435,4.4492,4.4591,4.4591,4.4591,4.4591,4.4591,4.4591,4.4591,4.4591,4.4591,4.4591,4.4591,4.4591,4.4591,4.4591,4.4575,4.4575,4.4545,4.3959,4.3156,4.2786,4.2602,4.2553,4.2217,4.2048,4.1971,4.1568,4.1414,4.143,4.1384,4.1245,4.0999,4.0953,4.0799,4.0584,4.0489,4.0489,4.0489,4.0489,4.0489,4.0489,4.0489,4.0524,4.0645,4.0949,4.1236,4.1439,4.1539,4.1588,4.1588,4.1588,4.1731,4.2,4.2063,4.2378,4.3011,4.3358,4.388,4.4644,4.5274,4.5865,4.6274,4.6667,4.6893,4.6893,4.6893,4.6893,4.7027,4.7496,4.8545,4.9709,5.0677,5.1447,5.2168,5.3224,5.3928,5.4127,5.4303,5.4512,5.4512,5.4512,5.4512,5.4512,5.4512,5.4512,5.4512,5.4512,5.4557,5.4762,5.4932,5.505,5.5214,5.5413,5.5619,5.5793,5.606,5.6203,5.6355,5.6555,5.6728,5.6899,5.7067,5.7194,5.7244,5.7301,5.7418,5.7492,5.7589,5.7625,5.7661,5.7703,5.7745,4.4419,4.4591,4.4591,4.4591,4.4591,4.4591,4.4591,4.4591,4.4591,4.4591,4.4591,4.4591,4.4591,4.4591,4.4591,4.4591,4.4591,4.4591,4.4591,4.4591,4.4545,4.4221,4.3747,4.3282,4.3063,4.2971,4.2786,4.2694,4.2633,4.2586,4.254,4.2402,4.2448,4.2263,4.1801,4.1694,4.1337,4.0999,4.0968,4.0876,4.0799,4.0737,4.0691,4.0489,4.0489,4.0558,4.0744,4.1027,4.1308,4.1415,4.1537,4.1588,4.1604,4.162,4.1999,4.2553,4.2726,4.3088,4.372,4.4257,4.4684,4.4992,4.5766,4.6264,4.6369,4.6667,4.6893,4.6893,4.6893,4.7009,4.7339,4.8053,4.9255,5.0526,5.1447,5.2051,5.2604,5.3408,5.4045,5.419,5.4383,5.448,5.4512,5.4512,5.4512,5.4512,5.4512,5.4512,5.4527,5.4575,5.4669,5.4824,5.4961,5.5096,5.5291,5.5502,5.5732,5.5961,5.6324,5.6528,5.6622,5.6794,5.692,5.7074,5.7219,5.7332,5.7418,5.7504,5.7601,5.7649,5.7697,5.7745,5.778,5.7822,5.7869,4.4553,4.4591,4.4591,4.4591,4.4591,4.4591,4.4591,4.4591,4.4591,4.4591,4.4591,4.4591,4.4591,4.4591,4.4591,4.4591,4.4591,4.4591,4.4591,4.4591,4.4591,4.4529,4.4344,4.4113,4.4129,4.399,4.359,4.339,4.3313,4.2971,4.2633,4.2679,4.2802,4.2556,4.2432,4.2386,4.2355,4.2153,4.2091,4.1768,4.1417,4.134,4.1122,4.0689,4.0597,4.0568,4.0714,4.1274,4.1728,4.1827,4.1784,4.1746,4.1841,4.2221,4.2568,4.2853,4.3295,4.3783,4.4352,4.4668,4.4968,4.5494,4.5923,4.6298,4.6315,4.6667,4.6859,4.6893,4.6927,4.7224,4.7969,4.8842,4.9949,5.116,5.2133,5.2876,5.3513,5.3845,5.4028,5.4207,5.4367,5.4512,5.4512,5.4512,5.4512,5.4512,5.4512,5.4512,5.4559,5.4606,5.4747,5.4886,5.502,5.5187,5.5443,5.5692,5.5961,5.6199,5.6541,5.6834,5.6912,5.6977,5.7087,5.7213,5.7356,5.7455,5.7565,5.7661,5.7775,5.7798,5.7815,5.7862,5.7897,5.7939,5.7939,4.4591,4.4591,4.4591,4.4591,4.4591,4.4591,4.4591,4.4591,4.4591,4.4591,4.4591,4.4591,4.4591,4.4591,4.4591,4.4591,4.4591,4.4591,4.4591,4.4591,4.4591,4.4591,4.4591,4.4591,4.4575,4.4529,4.4271,4.4067,4.3944,4.3728,4.3605,4.3544,4.351,4.3405,4.3128,4.3082,4.2848,4.2602,4.2602,4.2417,4.2125,4.2063,4.1971,4.1553,4.1476,4.1491,4.1601,4.1979,4.2326,4.2492,4.2501,4.2501,4.2599,4.2963,4.3279,4.3674,4.3925,4.451,4.4999,4.5221,4.5396,4.5742,4.6044,4.6205,4.6349,4.6597,4.679,4.6876,4.6993,4.7339,4.8385,4.9157,5.0263,5.1527,5.2451,5.3196,5.38,5.4014,5.4111,5.4289,5.4431,5.4496,5.4512,5.4512,5.4512,5.4512,5.4512,5.4512,5.4559,5.4637,5.4809,5.4946,5.5079,5.5289,5.5575,5.5865,5.6213,5.646,5.6742,5.7003,5.7168,5.7206,5.7226,5.7351,5.7492,5.7583,5.7709,5.7804,5.7892,5.7916,5.792,5.7967,5.7978,5.7955,5.7955,4.4591,4.4591,4.4591,4.4591,4.4591,4.4591,4.4591,4.4591,4.4591,4.4591,4.4591,4.4591,4.4591,4.4591,4.4591,4.4591,4.4591,4.4591,4.4591,4.4591,4.4591,4.4591,4.4591,4.4591,4.4591,4.4591,4.4514,4.4514,4.4514,4.4575,4.4329,4.4514,4.4529,4.4175,4.384,4.3747,4.3559,4.3171,4.314,4.2956,4.2786,4.274,4.2679,4.2432,4.2402,4.2384,4.2451,4.2731,4.3019,4.3252,4.3539,4.3778,4.3936,4.3925,4.4068,4.4636,4.4747,4.5126,4.5521,4.571,4.576,4.5807,4.5988,4.6152,4.6298,4.6493,4.6703,4.6905,4.7105,4.7617,4.8548,4.9419,5.0511,5.1711,5.2568,5.3196,5.38,5.3997,5.416,5.4416,5.448,5.4496,5.4512,5.4512,5.4512,5.4512,5.4512,5.4527,5.4575,5.4684,5.4871,5.504,5.5171,5.5408,5.5706,5.6025,5.6383,5.6622,5.6886,5.7118,5.7319,5.7381,5.74,5.7498,5.7607,5.7714,5.7815,5.7904,5.7962,5.7978,5.7978,5.7978,5.7978,5.7978,5.7978,4.4591,4.4591,4.4591,4.4591,4.4591,4.4591,4.4591,4.4591,4.4591,4.4591,4.4591,4.4591,4.4591,4.4591,4.4591,4.4591,4.4591,4.4591,4.4591,4.4591,4.4591,4.4591,4.4591,4.4591,4.4591,4.4591,4.4591,4.4591,4.4591,4.4591,4.4591,4.4591,4.4591,4.4452,4.4406,4.4425,4.4267,4.4036,4.4036,4.3852,4.3528,4.3405,4.3236,4.2879,4.2848,4.2802,4.2848,4.3211,4.3623,4.4029,4.4601,4.5021,4.5115,4.4792,4.4668,4.4826,4.5252,4.5618,4.5776,4.5807,4.5807,4.5844,4.5968,4.615,4.6298,4.6492,4.6717,4.7067,4.7525,4.8217,4.9302,5.001,5.1138,5.2242,5.2804,5.3213,5.3783,5.4013,5.4143,5.4448,5.4496,5.4512,5.4512,5.4512,5.4512,5.4512,5.4512,5.4543,5.4608,5.4747,5.4963,5.5116,5.5267,5.5546,5.5836,5.6162,5.6492,5.6702,5.6938,5.715,5.7338,5.7474,5.7571,5.7685,5.7745,5.7815,5.7916,5.7973,5.7985,5.7978,5.7978,5.7978,5.7978,5.7978,5.7978,4.4591,4.4591,4.4591,4.4591,4.4591,4.4591,4.4591,4.4591,4.4591,4.4591,4.4591,4.4591,4.4591,4.4591,4.4591,4.4591,4.4591,4.4591,4.4591,4.4591,4.4591,4.4591,4.4591,4.4591,4.4591,4.4591,4.4591,4.4591,4.4591,4.4591,4.4591,4.4591,4.4591,4.4591,4.4575,4.456,4.4591,4.4591,4.4575,4.4452,4.4113,4.4083,4.3867,4.3744,4.3621,4.3652,4.3694,4.3882,4.4263,4.4583,4.4977,4.5336,4.546,4.5451,4.5236,4.5317,4.5602,4.5807,4.5807,4.5807,4.5807,4.5807,4.5898,4.6062,4.6243,4.6438,4.6792,4.7372,4.7719,4.8607,5.0006,5.0484,5.1385,5.2494,5.2903,5.3264,5.3767,5.3948,5.4175,5.4415,5.4496,5.4512,5.4512,5.4512,5.4512,5.4512,5.4512,5.4559,5.4623,5.4809,5.5024,5.5249,5.5428,5.5721,5.6003,5.6324,5.6586,5.6781,5.7028,5.7226,5.7412,5.7559,5.7733,5.7869,5.7927,5.7909,5.7932,5.7978,5.7978,5.7978,5.7978,5.7978,5.7978,5.7978,5.7978,4.4591,4.4591,4.4591,4.4591,4.4591,4.4591,4.4591,4.4591,4.4591,4.4591,4.4591,4.4591,4.4591,4.4591,4.4591,4.4591,4.4591,4.4591,4.4591,4.4591,4.4591,4.4591,4.4591,4.4591,4.4591,4.4591,4.4591,4.4591,4.4591,4.4591,4.4591,4.4591,4.4591,4.4591,4.4591,4.4591,4.4591,4.4591,4.4591,4.4591,4.4591,4.4591,4.4591,4.4591,4.4591,4.4529,4.4437,4.4468,4.4612,4.4831,4.5095,4.5294,4.5497,4.5682,4.5789,4.5807,4.5807,4.5807,4.5807,4.5807,4.5807,4.5807,4.5807,4.5972,4.6285,4.6575,4.7009,4.7792,4.8447,4.9029,5.0347,5.0828,5.1583,5.2443,5.2938,5.3161,5.3717,5.4029,5.4176,5.4353,5.4464,5.4512,5.4512,5.4512,5.4512,5.4512,5.4512,5.4623,5.4702,5.4855,5.5083,5.5351,5.5616,5.589,5.6199,5.6501,5.6702,5.686,5.71,5.7351,5.7522,5.7685,5.7827,5.795,5.7973,5.7955,5.7978,5.7978,5.7978,5.7978,5.7978,5.7978,5.7978,5.7978,5.7978,4.4591,4.4591,4.4591,4.4591,4.4591,4.4591,4.4591,4.4591,4.4591,4.4591,4.4591,4.4591,4.4591,4.4591,4.4591,4.4591,4.4591,4.4591,4.4591,4.4591,4.4591,4.4591,4.4591,4.4591,4.4591,4.4591,4.4591,4.4591,4.4591,4.4591,4.4591,4.4591,4.4591,4.4591,4.4591,4.4591,4.4591,4.4591,4.4591,4.4591,4.4591,4.4591,4.4591,4.4591,4.4591,4.4591,4.4591,4.4591,4.4685,4.4855,4.5092,4.5294,4.5497,4.5698,4.5789,4.5807,4.5807,4.5807,4.5807,4.5807,4.5807,4.5807,4.5807,4.5916,4.6359,4.6997,4.7566,4.794,4.8997,4.9957,5.0739,5.127,5.2032,5.2522,5.2903,5.3298,5.38,5.3997,5.4176,5.4369,5.4496,5.4512,5.4512,5.4512,5.4512,5.4512,5.4527,5.4655,5.4811,5.4978,5.5219,5.5528,5.5718,5.5989,5.631,5.6622,5.6794,5.6907,5.7201,5.7449,5.7589,5.7721,5.7851,5.7932,5.7967,5.7978,5.7978,5.7978,5.7978,5.7978,5.7978,5.7978,5.7978,5.7978,5.7978,4.4591,4.4591,4.4591,4.4591,4.4591,4.4591,4.4591,4.4591,4.4591,4.4591,4.4591,4.4591,4.4591,4.4591,4.4591,4.4591,4.4591,4.4591,4.4591,4.4591,4.4591,4.4591,4.4591,4.4591,4.4591,4.4591,4.4591,4.4591,4.4591,4.4591,4.4591,4.4591,4.4591,4.4591,4.4591,4.4591,4.4591,4.4591,4.4591,4.4591,4.4591,4.4591,4.4591,4.4591,4.4591,4.4591,4.4591,4.4591,4.4629,4.4776,4.4927,4.5129,4.5315,4.5515,4.5662,4.5807,4.5807,4.5807,4.5807,4.5807,4.5807,4.5807,4.5873,4.6108,4.6715,4.7353,4.8232,4.9157,4.971,5.0414,5.1097,5.1581,5.215,5.2607,5.2886,5.3366,5.3767,5.3915,5.4094,5.4303,5.4512,5.4512,5.4512,5.4512,5.4512,5.4512,5.4559,5.4653,5.4886,5.5176,5.5443,5.5746,5.589,5.6046,5.6365,5.6675,5.6834,5.6984,5.7313,5.7522,5.7613,5.7733,5.7874,5.7944,5.7978,5.7978,5.7978,5.7978,5.7978,5.7978,5.7978,5.7978,5.7978,5.7978,5.7978,4.4591,4.4591,4.4591,4.4591,4.4591,4.4591,4.4591,4.4591,4.4591,4.4591,4.4591,4.4591,4.4591,4.4591,4.4591,4.4591,4.4591,4.4591,4.4591,4.4591,4.4591,4.4591,4.4591,4.4591,4.4591,4.4591,4.4591,4.4591,4.4591,4.4591,4.4591,4.4591,4.4591,4.4591,4.4591,4.4591,4.4591,4.4591,4.4591,4.4591,4.4591,4.4591,4.4591,4.4591,4.4591,4.4591,4.4591,4.4591,4.4591,4.4663,4.4818,4.5002,4.5133,4.5386,4.5552,4.5698,4.5735,4.5807,4.5807,4.5807,4.5807,4.5807,4.5889,4.6188,4.7114,4.7642,4.8369,4.9729,5.0274,5.0869,5.1504,5.1796,5.2197,5.2589,5.2903,5.3399,5.38,5.3931,5.411,5.4369,5.4512,5.4512,5.4512,5.4512,5.4512,5.4512,5.4575,5.4667,5.4948,5.5267,5.5561,5.5818,5.5904,5.6102,5.6501,5.6755,5.6886,5.7079,5.7375,5.7547,5.7637,5.7768,5.7932,5.7978,5.7978,5.7978,5.7978,5.7978,5.7978,5.7978,5.7978,5.7978,5.7978,5.7978,5.7978,4.4591,4.4591,4.4591,4.4591,4.4591,4.4591,4.4591,4.4591,4.4591,4.4591,4.4591,4.4591,4.4591,4.4591,4.4591,4.4591,4.4591,4.4591,4.4591,4.4591,4.4591,4.4591,4.4591,4.4591,4.4591,4.4591,4.4591,4.4591,4.4591,4.4591,4.4591,4.4591,4.4591,4.4591,4.4591,4.4591,4.4591,4.4591,4.4591,4.4591,4.4591,4.4591,4.4591,4.4591,4.4591,4.4591,4.4591,4.4591,4.4591,4.4625,4.4761,4.4893,4.5021,4.5241,4.5426,4.557,4.568,4.5753,4.5789,4.5807,4.5807,4.5807,4.5952,4.6325,4.7296,4.8054,4.8879,4.9858,5.0539,5.1162,5.16,5.1869,5.216,5.2606,5.2972,5.3349,5.3717,5.3931,5.4127,5.44,5.4512,5.4512,5.4512,5.4512,5.4512,5.4512,5.4652,5.4761,5.4978,5.5282,5.5575,5.579,5.5876,5.6158,5.6635,5.6834,5.6912,5.7118,5.74,5.7522,5.7595,5.7762,5.7978,5.7978,5.7978,5.7978,5.7978,5.7978,5.7978,5.7978,5.7978,5.7978,5.7978,5.7978,5.7978,4.4591,4.4591,4.4591,4.4591,4.4591,4.4591,4.4591,4.4591,4.4591,4.4591,4.4591,4.4591,4.4591,4.4591,4.4591,4.4591,4.4591,4.4591,4.4591,4.4591,4.4591,4.4591,4.4591,4.4591,4.4591,4.4591,4.4591,4.4591,4.4591,4.4591,4.4591,4.4591,4.4591,4.4591,4.4591,4.4591,4.4591,4.4591,4.4591,4.4591,4.4591,4.4591,4.4591,4.4591,4.4591,4.4591,4.4591,4.4591,4.4591,4.461,4.4701,4.4776,4.4874,4.5077,4.526,4.5426,4.557,4.568,4.5771,4.5789,4.5807,4.59,4.6202,4.6782,4.7668,4.8576,4.9502,5.0317,5.086,5.1317,5.1704,5.1833,5.2069,5.2624,5.3041,5.3349,5.3651,5.3899,5.411,5.4367,5.448,5.4512,5.4512,5.4512,5.4512,5.4527,5.4683,5.4853,5.5037,5.5282,5.5575,5.579,5.5876,5.6199,5.6675,5.6821,5.6899,5.7168,5.7431,5.751,5.7607,5.7827,5.7978,5.7978,5.7978,5.7978,5.7978,5.7978,5.7978,5.7978,5.7978,5.7978,5.7978,5.7978,5.7978,4.4591,4.4591,4.4591,4.4591,4.4591,4.4591,4.4591,4.4591,4.4591,4.4591,4.4591,4.4591,4.4591,4.4591,4.4591,4.4591,4.4591,4.4591,4.4591,4.4591,4.4591,4.4591,4.4591,4.4591,4.4591,4.4591,4.4591,4.4591,4.4591,4.4591,4.4591,4.4591,4.4591,4.4591,4.4591,4.4591,4.4591,4.4591,4.4591,4.4591,4.4591,4.4591,4.4591,4.4591,4.4591,4.4591,4.4591,4.4591,4.4591,4.4591,4.4629,4.4667,4.478,4.4911,4.5042,4.526,4.5442,4.557,4.568,4.5771,4.59,4.6202,4.6471,4.7291,4.8266,4.904,4.9674,5.0589,5.0959,5.1277,5.1686,5.1815,5.2142,5.2694,5.2868,5.3161,5.3617,5.3931,5.4127,5.4335,5.4399,5.4512,5.4512,5.4512,5.4512,5.4575,5.4761,5.49,5.5022,5.5282,5.5593,5.5779,5.5904,5.6282,5.6689,5.6781,5.6899,5.7168,5.7406,5.7522,5.7655,5.7862,5.7985,5.7978,5.7978,5.7978,5.7978,5.7978,5.7978,5.7978,5.7978,5.7978,5.7978,5.7978,5.7978,4.4591,4.4591,4.4591,4.4591,4.4591,4.4591,4.4591,4.4591,4.4591,4.4591,4.4591,4.4591,4.4591,4.4591,4.4591,4.4591,4.4591,4.4591,4.4591,4.4591,4.4591,4.4591,4.4591,4.4591,4.4591,4.4591,4.4591,4.4591,4.4591,4.4591,4.4591,4.4591,4.4591,4.4591,4.4591,4.4591,4.4591,4.4591,4.4591,4.4591,4.4591,4.4591,4.4591,4.4591,4.4591,4.4591,4.4591,4.4591,4.4591,4.4591,4.4591,4.461,4.4648,4.4799,4.4911,4.4968,4.5297,4.5476,4.5565,4.573,4.6137,4.6629,4.6945,4.7678,4.8602,4.9215,4.9665,5.0618,5.0839,5.1199,5.1536,5.1833,5.2233,5.2571,5.273,5.3059,5.3534,5.3931,5.411,5.4287,5.4399,5.4512,5.4512,5.4512,5.4512,5.4606,5.484,5.4978,5.5022,5.5264,5.5593,5.5779,5.5933,5.6265,5.6622,5.6742,5.6899,5.7168,5.7381,5.7522,5.7685,5.7857,5.795,5.7967,5.7978,5.7978,5.7978,5.7978,5.7978,5.7978,5.7978,5.7978,5.7978,5.7978,5.7978,4.4591,4.4591,4.4591,4.4591,4.4591,4.4591,4.4591,4.4591,4.4591,4.4591,4.4591,4.4591,4.4591,4.4591,4.4591,4.4591,4.4591,4.4591,4.4591,4.4591,4.4591,4.4591,4.4591,4.4591,4.4591,4.4591,4.4591,4.4591,4.4591,4.4591,4.4591,4.4591,4.4591,4.4591,4.4591,4.4591,4.4591,4.4591,4.4591,4.4591,4.4591,4.4591,4.4591,4.4591,4.4591,4.4591,4.4591,4.4591,4.4591,4.4591,4.4591,4.4591,4.4591,4.4704,4.478,4.4855,4.5111,4.5475,4.593,4.6357,4.6547,4.7024,4.7659,4.8256,4.8911,4.9593,5.0124,5.0474,5.0743,5.1124,5.148,5.1704,5.2053,5.2395,5.2643,5.3025,5.345,5.3816,5.4078,5.4223,5.4367,5.448,5.4512,5.4512,5.4512,5.459,5.4793,5.493,5.5007,5.5279,5.5593,5.5779,5.5975,5.6278,5.6537,5.6715,5.6886,5.713,5.7369,5.7547,5.7709,5.7857,5.7939,5.7978,5.7978,5.7978,5.7978,5.7978,5.7978,5.7978,5.7978,5.7978,5.7978,5.7978,5.7978,4.4591,4.4591,4.4591,4.4591,4.4591,4.4591,4.4591,4.4591,4.4591,4.4591,4.4591,4.4591,4.4591,4.4591,4.4591,4.4591,4.4591,4.4591,4.4591,4.4591,4.4591,4.4591,4.4591,4.4591,4.4591,4.4591,4.4591,4.4591,4.4591,4.4591,4.4591,4.4591,4.4591,4.4591,4.4591,4.4591,4.4591,4.4591,4.4591,4.4591,4.4591,4.4591,4.4591,4.4591,4.4591,4.4591,4.4591,4.4591,4.4591,4.4591,4.4591,4.4591,4.4591,4.461,4.4682,4.4776,4.5187,4.564,4.6272,4.7255,4.7479,4.7703,4.8497,4.8952,4.924,4.9781,5.0115,5.0437,5.0685,5.0991,5.1315,5.1557,5.1926,5.2272,5.266,5.3007,5.3315,5.3684,5.4013,5.4159,5.4351,5.4448,5.4512,5.4512,5.4512,5.4622,5.473,5.4853,5.5007,5.5279,5.5546,5.5761,5.5961,5.6227,5.6501,5.6715,5.6899,5.7105,5.7326,5.7571,5.7697,5.7815,5.7897,5.7978,5.7978,5.7978,5.7978,5.7978,5.7978,5.7978,5.7978,5.7978,5.7978,5.7978,5.7978,4.4591,4.4591,4.4591,4.4591,4.4591,4.4591,4.4591,4.4591,4.4591,4.4591,4.4591,4.4591,4.4591,4.4591,4.4591,4.4591,4.4591,4.4591,4.4591,4.4591,4.4591,4.4591,4.4591,4.4591,4.4591,4.4591,4.4591,4.4591,4.4591,4.4591,4.4591,4.4591,4.4591,4.4591,4.4591,4.4591,4.4591,4.4591,4.4591,4.4591,4.4591,4.4591,4.4591,4.4591,4.4591,4.4591,4.4591,4.4591,4.4591,4.4591,4.4591,4.4591,4.4591,4.4591,4.461,4.4817,4.5383,4.5983,4.6632,4.7652,4.8419,4.8571,4.885,4.9327,4.9647,4.9892,5.0093,5.0321,5.055,5.0842,5.1127,5.1503,5.189,5.2269,5.2659,5.2955,5.3213,5.3534,5.3882,5.4127,5.4353,5.4464,5.4496,5.4512,5.4512,5.4575,5.47,5.4855,5.5024,5.5219,5.5502,5.5746,5.5947,5.613,5.6392,5.6675,5.6873,5.7054,5.7363,5.7595,5.7709,5.7792,5.7909,5.7978,5.7978,5.7978,5.7978,5.7978,5.7978,5.7978,5.7978,5.7978,5.7978,5.7978,5.7978,4.4591,4.4591,4.4591,4.4591,4.4591,4.4591,4.4591,4.4591,4.4591,4.4591,4.4591,4.4591,4.4591,4.4591,4.4591,4.4591,4.4591,4.4591,4.4591,4.4591,4.4591,4.4591,4.4591,4.4591,4.4591,4.4591,4.4591,4.4591,4.4591,4.4591,4.4591,4.4591,4.4591,4.4591,4.4591,4.4591,4.4591,4.4591,4.4591,4.4591,4.4591,4.4591,4.4591,4.4591,4.4591,4.4591,4.4591,4.4591,4.4591,4.4591,4.4591,4.4591,4.4591,4.4591,4.4591,4.4702,4.5395,4.616,4.6816,4.7793,4.8658,4.9182,4.9335,4.9525,4.9789,4.9916,5.003,5.0223,5.0473,5.0746,5.107,5.1445,5.1743,5.2071,5.25,5.2903,5.3179,5.3517,5.3866,5.4094,5.4337,5.448,5.4512,5.4512,5.4512,5.4576,5.467,5.4826,5.5009,5.5204,5.5458,5.5703,5.5904,5.6074,5.6351,5.6622,5.6821,5.701,5.7338,5.7583,5.7673,5.7768,5.792,5.7978,5.7978,5.7978,5.7978,5.7978,5.7978,5.7978,5.7978,5.7978,5.7978,5.7978,5.7978,4.4591,4.4591,4.4591,4.4591,4.4591,4.4591,4.4591,4.4591,4.4591,4.4591,4.4591,4.4591,4.4591,4.4591,4.4591,4.4591,4.4591,4.4591,4.4591,4.4591,4.4591,4.4591,4.4591,4.4591,4.4591,4.4591,4.4591,4.4591,4.4591,4.4591,4.4591,4.4591,4.4591,4.4591,4.4591,4.4591,4.4591,4.4591,4.4591,4.4591,4.4591,4.4591,4.4591,4.4591,4.4591,4.4591,4.4591,4.4591,4.4591,4.4591,4.4591,4.4591,4.4591,4.4591,4.4837,4.5041,4.5762,4.6578,4.7331,4.8124,4.8834,4.9311,4.9557,4.9641,4.9741,4.9856,4.9955,5.0109,5.0398,5.0705,5.1013,5.1315,5.1557,5.1815,5.2322,5.2851,5.3213,5.3551,5.3816,5.4062,5.4255,5.4448,5.4512,5.4512,5.4512,5.4527,5.4606,5.4747,5.493,5.5141,5.5413,5.5677,5.5833,5.6003,5.6296,5.6555,5.6768,5.6984,5.7326,5.7553,5.7625,5.7768,5.7944,5.7978,5.7978,5.7978,5.7978,5.7978,5.7978,5.7978,5.7978,5.7978,5.7978,5.7978,5.7978,4.4591,4.4591,4.4591,4.4591,4.4591,4.4591,4.4591,4.4591,4.4591,4.4591,4.4591,4.4591,4.4591,4.4591,4.4591,4.4591,4.4591,4.4591,4.4591,4.4591,4.4591,4.4591,4.4591,4.4591,4.4591,4.4591,4.4591,4.4591,4.4591,4.4591,4.4591,4.4591,4.4591,4.4591,4.4591,4.4591,4.4591,4.4591,4.4591,4.4591,4.4591,4.4591,4.4591,4.4591,4.4591,4.4591,4.4591,4.4591,4.4591,4.4591,4.4591,4.4591,4.4591,4.4606,4.4945,4.5499,4.6104,4.6861,4.762,4.8361,4.8829,4.9219,4.9437,4.9537,4.9637,4.9817,4.9935,5.003,5.0301,5.0515,5.0823,5.1221,5.152,5.1833,5.2269,5.2694,5.3041,5.345,5.3899,5.4127,5.4337,5.448,5.4512,5.4512,5.4512,5.4512,5.4543,5.4667,5.4884,5.5096,5.5374,5.5654,5.5822,5.5975,5.6189,5.6451,5.6702,5.699,5.7374,5.7516,5.7601,5.778,5.7967,5.7978,5.7978,5.7978,5.7978,5.7978,5.7978,5.7978,5.7978,5.7978,5.7978,5.7978,5.7978,4.4591,4.4591,4.4591,4.4591,4.4591,4.4591,4.4591,4.4591,4.4591,4.4591,4.4591,4.4591,4.4591,4.4591,4.4591,4.4591,4.4591,4.4591,4.4591,4.4591,4.4591,4.4591,4.4591,4.4591,4.4591,4.4591,4.4591,4.4591,4.4591,4.4591,4.4591,4.4591,4.4591,4.4591,4.4591,4.4591,4.4591,4.4591,4.4591,4.4591,4.4591,4.4591,4.4591,4.4591,4.4591,4.4591,4.4591,4.4591,4.4591,4.4591,4.4591,4.4591,4.4591,4.4591,4.496,4.5576,4.6296,4.7044,4.7731,4.8389,4.8785,4.898,4.9164,4.9367,4.9533,4.9773,4.9931,5.001,5.0148,5.0379,5.0669,5.1108,5.152,5.1853,5.2215,5.2536,5.2868,5.3416,5.3948,5.4175,5.4385,5.4464,5.448,5.4512,5.4512,5.4512,5.4512,5.4622,5.4853,5.5068,5.5356,5.5625,5.5796,5.5979,5.6134,5.6571,5.6958,5.7195,5.7545,5.7606,5.7698,5.7956,5.8272,5.8052,5.7978,5.7978,5.7978,5.7978,5.7978,5.7978,5.7978,5.7978,5.7978,5.7978,5.7978,4.4591,4.4591,4.4591,4.4591,4.4591,4.4591,4.4591,4.4591,4.4591,4.4591,4.4591,4.4591,4.4591,4.4591,4.4591,4.4591,4.4591,4.4591,4.4591,4.4591,4.4591,4.4591,4.4591,4.4591,4.4591,4.4591,4.4591,4.4591,4.4591,4.4591,4.4591,4.4591,4.4591,4.4591,4.4591,4.4591,4.4591,4.4591,4.4591,4.4591,4.4591,4.4591,4.4591,4.4591,4.4591,4.4591,4.4591,4.4591,4.4591,4.4591,4.4591,4.4591,4.4699,4.4929,4.5391,4.6018,4.6711,4.7342,4.7927,4.8327,4.8661,4.88,4.8975,4.9184,4.9286,4.9513,4.9812,4.9912,5.0164,5.0379,5.0631,5.1032,5.1427,5.1796,5.2161,5.2519,5.2956,5.3467,5.3833,5.4062,5.4239,5.4367,5.4415,5.4512,5.4512,5.4512,5.4512,5.4689,5.4906,5.5336,5.5556,5.5799,5.6109,5.6035,5.6025,5.6672,5.7406,5.7631,5.7867,5.8472,5.8872,5.8663,5.8565,5.8529,5.8327,5.7978,5.7978,5.8033,5.7997,5.7978,5.7978,5.7978,5.7978,5.7978,5.7978,4.4591,4.4591,4.4591,4.4591,4.4591,4.4591,4.4591,4.4591,4.4591,4.4591,4.4591,4.4591,4.4591,4.4591,4.4591,4.4591,4.4591,4.4591,4.4591,4.4591,4.4591,4.4591,4.4591,4.4591,4.4591,4.4591,4.4591,4.4591,4.4591,4.4591,4.4591,4.4591,4.4591,4.4591,4.4591,4.4591,4.4591,4.4591,4.4591,4.4591,4.4591,4.4591,4.4591,4.4591,4.4591,4.4591,4.4591,4.4591,4.4591,4.4591,4.4591,4.4591,4.4791,4.5145,4.5823,4.6403,4.7065,4.7758,4.8358,4.8507,4.8604,4.8661,4.8841,4.898,4.9082,4.9327,4.9633,4.9852,5.0105,5.0379,5.0612,5.0861,5.1258,5.1796,5.2179,5.252,5.3007,5.3484,5.3734,5.3964,5.411,5.4254,5.4367,5.4464,5.453,5.4529,5.4695,5.4852,5.5149,5.5777,5.6212,5.6503,5.6784,5.6596,5.6414,5.7118,5.8138,5.8317,5.8665,5.9485,5.9962,5.9554,5.9294,5.9214,5.8969,5.851,5.8198,5.8162,5.8107,5.7997,5.7978,5.7978,5.7978,5.7978,5.7978,4.4591,4.4591,4.4591,4.4591,4.4591,4.4591,4.4591,4.4591,4.4591,4.4591,4.4591,4.4591,4.4591,4.4591,4.4591,4.4591,4.4591,4.4591,4.4591,4.4591,4.4591,4.4591,4.4591,4.4591,4.4591,4.4591,4.4591,4.4591,4.4591,4.4591,4.4591,4.4591,4.4591,4.4591,4.4591,4.4591,4.4591,4.4591,4.4591,4.4591,4.4591,4.4591,4.4591,4.4591,4.4591,4.4591,4.4591,4.4591,4.4591,4.4591,4.4591,4.4591,4.4852,4.5299,4.5988,4.6619,4.7296,4.7958,4.8435,4.8553,4.8583,4.8583,4.8744,4.8816,4.898,4.921,4.9457,4.9637,4.9896,5.0227,5.048,5.0612,5.0975,5.176,5.2287,5.2606,5.2973,5.3382,5.3717,5.3882,5.4013,5.4126,5.4238,5.4403,5.4635,5.4806,5.5237,5.5448,5.5763,5.6305,5.688,5.7211,5.7512,5.7783,5.788,5.8255,5.8979,5.9146,5.9433,6.0191,6.0527,6.0286,6.0078,6.0059,5.96,5.9086,5.8792,5.8444,5.8162,5.8052,5.7997,5.7978,5.7978,5.7978,5.7978]}]]